<?xml version="1.0" encoding="UTF-8" standalone="no" ?>
<gpx xmlns="http://www.topografix.com/GPX/1/1" xmlns:xsi="http://www.w3.org/2001/XMLSchema-instance" xsi:schemaLocation="http://www.topografix.com/GPX/1/1 http://www.topografix.com/GPX/1/1/gpx.xsd" version="1.1" creator="VisuGPX - https://www.visugpx.com">
  <metadata>
    <name>Saverne - La Hoube</name>
    <desc><![CDATA[essentiellement du single Trail. Pas ou peu de portage.]]></desc>
  </metadata>
  <trk>
    <name><![CDATA[EDGE705]]></name>
    <trkseg>
      <trkpt lat="48.74611" lon="7.35623">
        <ele>212.3</ele>
        <time>2011-06-26T06:31:55Z</time>
      </trkpt>
      <trkpt lat="48.74598" lon="7.35617">
        <ele>212</ele>
        <time>2011-06-26T06:32:02Z</time>
      </trkpt>
      <trkpt lat="48.74579" lon="7.35608">
        <ele>211</ele>
        <time>2011-06-26T06:32:08Z</time>
      </trkpt>
      <trkpt lat="48.74561" lon="7.356">
        <ele>209.8</ele>
        <time>2011-06-26T06:32:13Z</time>
      </trkpt>
      <trkpt lat="48.74542" lon="7.3559">
        <ele>208.1</ele>
        <time>2011-06-26T06:32:18Z</time>
      </trkpt>
      <trkpt lat="48.74541" lon="7.35586">
        <ele>207.3</ele>
        <time>2011-06-26T06:32:22Z</time>
      </trkpt>
      <trkpt lat="48.74542" lon="7.35584">
        <ele>207.1</ele>
        <time>2011-06-26T06:32:54Z</time>
      </trkpt>
      <trkpt lat="48.7454" lon="7.35568">
        <ele>206.4</ele>
        <time>2011-06-26T06:32:59Z</time>
      </trkpt>
      <trkpt lat="48.74533" lon="7.35564">
        <ele>206.2</ele>
        <time>2011-06-26T06:33:02Z</time>
      </trkpt>
      <trkpt lat="48.7453" lon="7.35565">
        <ele>206.1</ele>
        <time>2011-06-26T06:33:03Z</time>
      </trkpt>
      <trkpt lat="48.745" lon="7.35577">
        <ele>205.1</ele>
        <time>2011-06-26T06:33:10Z</time>
      </trkpt>
      <trkpt lat="48.74457" lon="7.35599">
        <ele>204.4</ele>
        <time>2011-06-26T06:33:20Z</time>
      </trkpt>
      <trkpt lat="48.74423" lon="7.35622">
        <ele>203.7</ele>
        <time>2011-06-26T06:33:28Z</time>
      </trkpt>
      <trkpt lat="48.74381" lon="7.35662">
        <ele>203.1</ele>
        <time>2011-06-26T06:33:39Z</time>
      </trkpt>
      <trkpt lat="48.74352" lon="7.35685">
        <ele>202</ele>
        <time>2011-06-26T06:33:45Z</time>
      </trkpt>
      <trkpt lat="48.74306" lon="7.35697">
        <ele>200.2</ele>
        <time>2011-06-26T06:33:52Z</time>
      </trkpt>
      <trkpt lat="48.74285" lon="7.35699">
        <ele>199.4</ele>
        <time>2011-06-26T06:33:55Z</time>
      </trkpt>
      <trkpt lat="48.74258" lon="7.3571">
        <ele>198.7</ele>
        <time>2011-06-26T06:33:59Z</time>
      </trkpt>
      <trkpt lat="48.74229" lon="7.35729">
        <ele>199.5</ele>
        <time>2011-06-26T06:34:05Z</time>
      </trkpt>
      <trkpt lat="48.74207" lon="7.35754">
        <ele>200.4</ele>
        <time>2011-06-26T06:34:12Z</time>
      </trkpt>
      <trkpt lat="48.74191" lon="7.3579">
        <ele>201.8</ele>
        <time>2011-06-26T06:34:20Z</time>
      </trkpt>
      <trkpt lat="48.74176" lon="7.35836">
        <ele>202.8</ele>
        <time>2011-06-26T06:34:29Z</time>
      </trkpt>
      <trkpt lat="48.7416" lon="7.35884">
        <ele>204.5</ele>
        <time>2011-06-26T06:34:39Z</time>
      </trkpt>
      <trkpt lat="48.74147" lon="7.35911">
        <ele>204.8</ele>
        <time>2011-06-26T06:34:45Z</time>
      </trkpt>
      <trkpt lat="48.74125" lon="7.35938">
        <ele>206.2</ele>
        <time>2011-06-26T06:34:54Z</time>
      </trkpt>
      <trkpt lat="48.74099" lon="7.35967">
        <ele>208.2</ele>
        <time>2011-06-26T06:35:05Z</time>
      </trkpt>
      <trkpt lat="48.74087" lon="7.35959">
        <ele>209.1</ele>
        <time>2011-06-26T06:35:10Z</time>
      </trkpt>
      <trkpt lat="48.74084" lon="7.35955">
        <ele>209.5</ele>
        <time>2011-06-26T06:35:12Z</time>
      </trkpt>
      <trkpt lat="48.74071" lon="7.35926">
        <ele>211.4</ele>
        <time>2011-06-26T06:35:22Z</time>
      </trkpt>
      <trkpt lat="48.7407" lon="7.35894">
        <ele>211.7</ele>
        <time>2011-06-26T06:35:29Z</time>
      </trkpt>
      <trkpt lat="48.74071" lon="7.35856">
        <ele>211.4</ele>
        <time>2011-06-26T06:35:36Z</time>
      </trkpt>
      <trkpt lat="48.74072" lon="7.35809">
        <ele>210.9</ele>
        <time>2011-06-26T06:35:43Z</time>
      </trkpt>
      <trkpt lat="48.74076" lon="7.35755">
        <ele>210</ele>
        <time>2011-06-26T06:35:50Z</time>
      </trkpt>
      <trkpt lat="48.7407" lon="7.3573">
        <ele>209.5</ele>
        <time>2011-06-26T06:35:54Z</time>
      </trkpt>
      <trkpt lat="48.74062" lon="7.35725">
        <ele>209.5</ele>
        <time>2011-06-26T06:35:56Z</time>
      </trkpt>
      <trkpt lat="48.7403" lon="7.35712">
        <ele>210.9</ele>
        <time>2011-06-26T06:36:05Z</time>
      </trkpt>
      <trkpt lat="48.74003" lon="7.357">
        <ele>212.5</ele>
        <time>2011-06-26T06:36:13Z</time>
      </trkpt>
      <trkpt lat="48.73973" lon="7.35679">
        <ele>214.7</ele>
        <time>2011-06-26T06:36:26Z</time>
      </trkpt>
      <trkpt lat="48.73943" lon="7.35658">
        <ele>216.7</ele>
        <time>2011-06-26T06:36:39Z</time>
      </trkpt>
      <trkpt lat="48.7392" lon="7.35636">
        <ele>218.6</ele>
        <time>2011-06-26T06:36:50Z</time>
      </trkpt>
      <trkpt lat="48.73898" lon="7.35613">
        <ele>220.6</ele>
        <time>2011-06-26T06:37:01Z</time>
      </trkpt>
      <trkpt lat="48.73878" lon="7.3559">
        <ele>222.1</ele>
        <time>2011-06-26T06:37:11Z</time>
      </trkpt>
      <trkpt lat="48.73856" lon="7.35567">
        <ele>224.2</ele>
        <time>2011-06-26T06:37:22Z</time>
      </trkpt>
      <trkpt lat="48.73845" lon="7.3556">
        <ele>225.3</ele>
        <time>2011-06-26T06:37:27Z</time>
      </trkpt>
      <trkpt lat="48.73843" lon="7.35558">
        <ele>225.5</ele>
        <time>2011-06-26T06:37:28Z</time>
      </trkpt>
      <trkpt lat="48.73832" lon="7.3555">
        <ele>226.1</ele>
        <time>2011-06-26T06:37:33Z</time>
      </trkpt>
      <trkpt lat="48.73808" lon="7.35533">
        <ele>227.6</ele>
        <time>2011-06-26T06:37:43Z</time>
      </trkpt>
      <trkpt lat="48.73785" lon="7.35516">
        <ele>229.2</ele>
        <time>2011-06-26T06:37:53Z</time>
      </trkpt>
      <trkpt lat="48.73764" lon="7.35504">
        <ele>230.8</ele>
        <time>2011-06-26T06:38:02Z</time>
      </trkpt>
      <trkpt lat="48.73746" lon="7.35494">
        <ele>232.3</ele>
        <time>2011-06-26T06:38:10Z</time>
      </trkpt>
      <trkpt lat="48.73743" lon="7.35493">
        <ele>232.6</ele>
        <time>2011-06-26T06:38:11Z</time>
      </trkpt>
      <trkpt lat="48.73739" lon="7.35491">
        <ele>232.9</ele>
        <time>2011-06-26T06:38:13Z</time>
      </trkpt>
      <trkpt lat="48.73735" lon="7.35488">
        <ele>233.2</ele>
        <time>2011-06-26T06:38:15Z</time>
      </trkpt>
      <trkpt lat="48.73732" lon="7.35487">
        <ele>233.3</ele>
        <time>2011-06-26T06:38:16Z</time>
      </trkpt>
      <trkpt lat="48.73711" lon="7.35476">
        <ele>234.6</ele>
        <time>2011-06-26T06:38:26Z</time>
      </trkpt>
      <trkpt lat="48.73704" lon="7.35472">
        <ele>235.9</ele>
        <time>2011-06-26T06:38:29Z</time>
      </trkpt>
      <trkpt lat="48.73693" lon="7.35466">
        <ele>236.7</ele>
        <time>2011-06-26T06:38:34Z</time>
      </trkpt>
      <trkpt lat="48.73686" lon="7.35464">
        <ele>237</ele>
        <time>2011-06-26T06:38:37Z</time>
      </trkpt>
      <trkpt lat="48.73684" lon="7.35463">
        <ele>237.2</ele>
        <time>2011-06-26T06:38:38Z</time>
      </trkpt>
      <trkpt lat="48.73679" lon="7.3546">
        <ele>237.5</ele>
        <time>2011-06-26T06:38:40Z</time>
      </trkpt>
      <trkpt lat="48.73665" lon="7.35449">
        <ele>238.4</ele>
        <time>2011-06-26T06:38:46Z</time>
      </trkpt>
      <trkpt lat="48.73656" lon="7.35443">
        <ele>238.9</ele>
        <time>2011-06-26T06:38:50Z</time>
      </trkpt>
      <trkpt lat="48.73634" lon="7.35428">
        <ele>240.1</ele>
        <time>2011-06-26T06:38:59Z</time>
      </trkpt>
      <trkpt lat="48.73618" lon="7.35414">
        <ele>240.3</ele>
        <time>2011-06-26T06:39:05Z</time>
      </trkpt>
      <trkpt lat="48.73587" lon="7.35391">
        <ele>241.1</ele>
        <time>2011-06-26T06:39:16Z</time>
      </trkpt>
      <trkpt lat="48.73564" lon="7.35374">
        <ele>242.9</ele>
        <time>2011-06-26T06:39:26Z</time>
      </trkpt>
      <trkpt lat="48.73546" lon="7.3536">
        <ele>244.3</ele>
        <time>2011-06-26T06:39:34Z</time>
      </trkpt>
      <trkpt lat="48.73521" lon="7.35337">
        <ele>246.9</ele>
        <time>2011-06-26T06:39:46Z</time>
      </trkpt>
      <trkpt lat="48.73499" lon="7.35319">
        <ele>249.3</ele>
        <time>2011-06-26T06:39:57Z</time>
      </trkpt>
      <trkpt lat="48.73483" lon="7.35306">
        <ele>251.1</ele>
        <time>2011-06-26T06:40:05Z</time>
      </trkpt>
      <trkpt lat="48.73472" lon="7.35299">
        <ele>252.1</ele>
        <time>2011-06-26T06:40:10Z</time>
      </trkpt>
      <trkpt lat="48.7345" lon="7.35285">
        <ele>253.9</ele>
        <time>2011-06-26T06:40:20Z</time>
      </trkpt>
      <trkpt lat="48.73428" lon="7.35272">
        <ele>255.2</ele>
        <time>2011-06-26T06:40:30Z</time>
      </trkpt>
      <trkpt lat="48.73413" lon="7.35265">
        <ele>255.9</ele>
        <time>2011-06-26T06:40:36Z</time>
      </trkpt>
      <trkpt lat="48.73387" lon="7.35254">
        <ele>256.7</ele>
        <time>2011-06-26T06:40:46Z</time>
      </trkpt>
      <trkpt lat="48.73371" lon="7.35247">
        <ele>257</ele>
        <time>2011-06-26T06:40:52Z</time>
      </trkpt>
      <trkpt lat="48.73367" lon="7.35232">
        <ele>257.3</ele>
        <time>2011-06-26T06:40:56Z</time>
      </trkpt>
      <trkpt lat="48.73367" lon="7.35177">
        <ele>259.1</ele>
        <time>2011-06-26T06:41:09Z</time>
      </trkpt>
      <trkpt lat="48.73366" lon="7.35162">
        <ele>259.8</ele>
        <time>2011-06-26T06:41:13Z</time>
      </trkpt>
      <trkpt lat="48.73367" lon="7.35154">
        <ele>260.1</ele>
        <time>2011-06-26T06:41:15Z</time>
      </trkpt>
      <trkpt lat="48.73366" lon="7.35128">
        <ele>261.6</ele>
        <time>2011-06-26T06:41:22Z</time>
      </trkpt>
      <trkpt lat="48.73366" lon="7.35076">
        <ele>264.2</ele>
        <time>2011-06-26T06:41:36Z</time>
      </trkpt>
      <trkpt lat="48.73366" lon="7.35035">
        <ele>266.4</ele>
        <time>2011-06-26T06:41:47Z</time>
      </trkpt>
      <trkpt lat="48.73367" lon="7.35003">
        <ele>268.3</ele>
        <time>2011-06-26T06:41:56Z</time>
      </trkpt>
      <trkpt lat="48.73367" lon="7.34992">
        <ele>269.2</ele>
        <time>2011-06-26T06:41:59Z</time>
      </trkpt>
      <trkpt lat="48.73367" lon="7.34986">
        <ele>269.5</ele>
        <time>2011-06-26T06:42:01Z</time>
      </trkpt>
      <trkpt lat="48.7337" lon="7.34968">
        <ele>270.7</ele>
        <time>2011-06-26T06:42:08Z</time>
      </trkpt>
      <trkpt lat="48.73377" lon="7.34937">
        <ele>272.6</ele>
        <time>2011-06-26T06:42:18Z</time>
      </trkpt>
      <trkpt lat="48.73388" lon="7.34906">
        <ele>274.9</ele>
        <time>2011-06-26T06:42:29Z</time>
      </trkpt>
      <trkpt lat="48.73397" lon="7.34877">
        <ele>276.8</ele>
        <time>2011-06-26T06:42:39Z</time>
      </trkpt>
      <trkpt lat="48.73399" lon="7.34846">
        <ele>278.1</ele>
        <time>2011-06-26T06:42:48Z</time>
      </trkpt>
      <trkpt lat="48.73391" lon="7.3482">
        <ele>279.4</ele>
        <time>2011-06-26T06:42:56Z</time>
      </trkpt>
      <trkpt lat="48.73375" lon="7.34794">
        <ele>280.6</ele>
        <time>2011-06-26T06:43:06Z</time>
      </trkpt>
      <trkpt lat="48.73367" lon="7.3478">
        <ele>281.4</ele>
        <time>2011-06-26T06:43:13Z</time>
      </trkpt>
      <trkpt lat="48.73366" lon="7.3478">
        <ele>281.5</ele>
        <time>2011-06-26T06:43:18Z</time>
      </trkpt>
      <trkpt lat="48.73366" lon="7.34782">
        <ele>281.5</ele>
        <time>2011-06-26T06:43:34Z</time>
      </trkpt>
      <trkpt lat="48.73366" lon="7.34782">
        <ele>281.5</ele>
        <time>2011-06-26T06:43:35Z</time>
      </trkpt>
      <trkpt lat="48.73366" lon="7.34783">
        <ele>281.4</ele>
        <time>2011-06-26T06:43:45Z</time>
      </trkpt>
      <trkpt lat="48.73366" lon="7.34783">
        <ele>281.4</ele>
        <time>2011-06-26T06:43:46Z</time>
      </trkpt>
      <trkpt lat="48.73366" lon="7.34783">
        <ele>281.4</ele>
        <time>2011-06-26T06:43:47Z</time>
      </trkpt>
      <trkpt lat="48.73366" lon="7.34782">
        <ele>281.5</ele>
        <time>2011-06-26T06:44:03Z</time>
      </trkpt>
      <trkpt lat="48.73366" lon="7.34782">
        <ele>281.7</ele>
        <time>2011-06-26T06:44:06Z</time>
      </trkpt>
      <trkpt lat="48.73366" lon="7.34783">
        <ele>281.3</ele>
        <time>2011-06-26T06:44:36Z</time>
      </trkpt>
      <trkpt lat="48.73366" lon="7.34783">
        <ele>281.3</ele>
        <time>2011-06-26T06:44:38Z</time>
      </trkpt>
      <trkpt lat="48.73366" lon="7.34783">
        <ele>281.3</ele>
        <time>2011-06-26T06:44:39Z</time>
      </trkpt>
      <trkpt lat="48.73365" lon="7.34783">
        <ele>281.3</ele>
        <time>2011-06-26T06:44:48Z</time>
      </trkpt>
      <trkpt lat="48.73359" lon="7.34781">
        <ele>281.3</ele>
        <time>2011-06-26T06:44:52Z</time>
      </trkpt>
      <trkpt lat="48.73343" lon="7.34772">
        <ele>282.5</ele>
        <time>2011-06-26T06:45:00Z</time>
      </trkpt>
      <trkpt lat="48.7334" lon="7.34768">
        <ele>282.8</ele>
        <time>2011-06-26T06:45:02Z</time>
      </trkpt>
      <trkpt lat="48.73338" lon="7.34764">
        <ele>283.4</ele>
        <time>2011-06-26T06:45:04Z</time>
      </trkpt>
      <trkpt lat="48.73336" lon="7.34762">
        <ele>283.7</ele>
        <time>2011-06-26T06:45:05Z</time>
      </trkpt>
      <trkpt lat="48.73328" lon="7.3475">
        <ele>284.6</ele>
        <time>2011-06-26T06:45:11Z</time>
      </trkpt>
      <trkpt lat="48.73323" lon="7.34743">
        <ele>285.2</ele>
        <time>2011-06-26T06:45:15Z</time>
      </trkpt>
      <trkpt lat="48.7332" lon="7.34741">
        <ele>285.7</ele>
        <time>2011-06-26T06:45:17Z</time>
      </trkpt>
      <trkpt lat="48.73317" lon="7.3474">
        <ele>286.3</ele>
        <time>2011-06-26T06:45:19Z</time>
      </trkpt>
      <trkpt lat="48.73306" lon="7.34735">
        <ele>288.4</ele>
        <time>2011-06-26T06:45:26Z</time>
      </trkpt>
      <trkpt lat="48.73299" lon="7.34728">
        <ele>289.6</ele>
        <time>2011-06-26T06:45:32Z</time>
      </trkpt>
      <trkpt lat="48.7329" lon="7.34717">
        <ele>291</ele>
        <time>2011-06-26T06:45:39Z</time>
      </trkpt>
      <trkpt lat="48.73281" lon="7.34706">
        <ele>292.1</ele>
        <time>2011-06-26T06:45:46Z</time>
      </trkpt>
      <trkpt lat="48.73277" lon="7.34701">
        <ele>292.6</ele>
        <time>2011-06-26T06:45:49Z</time>
      </trkpt>
      <trkpt lat="48.73263" lon="7.34687">
        <ele>294.6</ele>
        <time>2011-06-26T06:45:59Z</time>
      </trkpt>
      <trkpt lat="48.73255" lon="7.34673">
        <ele>296.1</ele>
        <time>2011-06-26T06:46:07Z</time>
      </trkpt>
      <trkpt lat="48.73246" lon="7.34668">
        <ele>297</ele>
        <time>2011-06-26T06:46:13Z</time>
      </trkpt>
      <trkpt lat="48.73233" lon="7.34659">
        <ele>298.4</ele>
        <time>2011-06-26T06:46:21Z</time>
      </trkpt>
      <trkpt lat="48.73225" lon="7.34655">
        <ele>299.6</ele>
        <time>2011-06-26T06:46:27Z</time>
      </trkpt>
      <trkpt lat="48.73215" lon="7.34644">
        <ele>301</ele>
        <time>2011-06-26T06:46:35Z</time>
      </trkpt>
      <trkpt lat="48.73207" lon="7.34636">
        <ele>302.4</ele>
        <time>2011-06-26T06:46:41Z</time>
      </trkpt>
      <trkpt lat="48.73198" lon="7.34629">
        <ele>303.8</ele>
        <time>2011-06-26T06:46:47Z</time>
      </trkpt>
      <trkpt lat="48.73188" lon="7.34619">
        <ele>305.2</ele>
        <time>2011-06-26T06:46:55Z</time>
      </trkpt>
      <trkpt lat="48.73178" lon="7.3461">
        <ele>306.4</ele>
        <time>2011-06-26T06:47:02Z</time>
      </trkpt>
      <trkpt lat="48.73174" lon="7.34603">
        <ele>306.9</ele>
        <time>2011-06-26T06:47:06Z</time>
      </trkpt>
      <trkpt lat="48.73165" lon="7.34592">
        <ele>308.1</ele>
        <time>2011-06-26T06:47:13Z</time>
      </trkpt>
      <trkpt lat="48.7316" lon="7.34581">
        <ele>309</ele>
        <time>2011-06-26T06:47:18Z</time>
      </trkpt>
      <trkpt lat="48.73155" lon="7.34573">
        <ele>310.1</ele>
        <time>2011-06-26T06:47:23Z</time>
      </trkpt>
      <trkpt lat="48.73149" lon="7.34566">
        <ele>311.1</ele>
        <time>2011-06-26T06:47:27Z</time>
      </trkpt>
      <trkpt lat="48.73144" lon="7.34556">
        <ele>312.2</ele>
        <time>2011-06-26T06:47:33Z</time>
      </trkpt>
      <trkpt lat="48.73138" lon="7.34544">
        <ele>313.4</ele>
        <time>2011-06-26T06:47:40Z</time>
      </trkpt>
      <trkpt lat="48.73132" lon="7.34536">
        <ele>314.5</ele>
        <time>2011-06-26T06:47:46Z</time>
      </trkpt>
      <trkpt lat="48.73125" lon="7.34529">
        <ele>316</ele>
        <time>2011-06-26T06:47:53Z</time>
      </trkpt>
      <trkpt lat="48.73119" lon="7.3452">
        <ele>316.8</ele>
        <time>2011-06-26T06:47:59Z</time>
      </trkpt>
      <trkpt lat="48.73116" lon="7.34516">
        <ele>317.4</ele>
        <time>2011-06-26T06:48:02Z</time>
      </trkpt>
      <trkpt lat="48.73106" lon="7.34512">
        <ele>318.8</ele>
        <time>2011-06-26T06:48:08Z</time>
      </trkpt>
      <trkpt lat="48.73099" lon="7.34504">
        <ele>319.9</ele>
        <time>2011-06-26T06:48:14Z</time>
      </trkpt>
      <trkpt lat="48.73092" lon="7.34496">
        <ele>321.1</ele>
        <time>2011-06-26T06:48:20Z</time>
      </trkpt>
      <trkpt lat="48.7309" lon="7.34493">
        <ele>321.4</ele>
        <time>2011-06-26T06:48:22Z</time>
      </trkpt>
      <trkpt lat="48.73077" lon="7.34485">
        <ele>323.3</ele>
        <time>2011-06-26T06:48:32Z</time>
      </trkpt>
      <trkpt lat="48.73076" lon="7.34484">
        <ele>323.5</ele>
        <time>2011-06-26T06:48:33Z</time>
      </trkpt>
      <trkpt lat="48.73066" lon="7.34477">
        <ele>324.8</ele>
        <time>2011-06-26T06:48:41Z</time>
      </trkpt>
      <trkpt lat="48.7306" lon="7.34473">
        <ele>325.7</ele>
        <time>2011-06-26T06:48:46Z</time>
      </trkpt>
      <trkpt lat="48.73054" lon="7.34465">
        <ele>326.7</ele>
        <time>2011-06-26T06:48:52Z</time>
      </trkpt>
      <trkpt lat="48.73052" lon="7.34461">
        <ele>327.2</ele>
        <time>2011-06-26T06:48:55Z</time>
      </trkpt>
      <trkpt lat="48.73049" lon="7.34457">
        <ele>327.8</ele>
        <time>2011-06-26T06:48:58Z</time>
      </trkpt>
      <trkpt lat="48.73047" lon="7.34454">
        <ele>328.1</ele>
        <time>2011-06-26T06:49:00Z</time>
      </trkpt>
      <trkpt lat="48.73046" lon="7.34453">
        <ele>328.3</ele>
        <time>2011-06-26T06:49:01Z</time>
      </trkpt>
      <trkpt lat="48.73042" lon="7.34448">
        <ele>328.9</ele>
        <time>2011-06-26T06:49:05Z</time>
      </trkpt>
      <trkpt lat="48.73036" lon="7.3444">
        <ele>329.7</ele>
        <time>2011-06-26T06:49:10Z</time>
      </trkpt>
      <trkpt lat="48.73029" lon="7.34431">
        <ele>330.5</ele>
        <time>2011-06-26T06:49:15Z</time>
      </trkpt>
      <trkpt lat="48.73022" lon="7.34423">
        <ele>331.4</ele>
        <time>2011-06-26T06:49:20Z</time>
      </trkpt>
      <trkpt lat="48.73014" lon="7.34416">
        <ele>332.3</ele>
        <time>2011-06-26T06:49:26Z</time>
      </trkpt>
      <trkpt lat="48.73008" lon="7.34408">
        <ele>333.1</ele>
        <time>2011-06-26T06:49:32Z</time>
      </trkpt>
      <trkpt lat="48.73001" lon="7.34404">
        <ele>333.5</ele>
        <time>2011-06-26T06:49:36Z</time>
      </trkpt>
      <trkpt lat="48.72988" lon="7.34397">
        <ele>335.2</ele>
        <time>2011-06-26T06:49:44Z</time>
      </trkpt>
      <trkpt lat="48.72983" lon="7.34395">
        <ele>335.6</ele>
        <time>2011-06-26T06:49:47Z</time>
      </trkpt>
      <trkpt lat="48.72976" lon="7.34392">
        <ele>336.7</ele>
        <time>2011-06-26T06:49:52Z</time>
      </trkpt>
      <trkpt lat="48.72966" lon="7.34383">
        <ele>338.1</ele>
        <time>2011-06-26T06:49:59Z</time>
      </trkpt>
      <trkpt lat="48.72956" lon="7.3438">
        <ele>339.6</ele>
        <time>2011-06-26T06:50:05Z</time>
      </trkpt>
      <trkpt lat="48.72952" lon="7.34376">
        <ele>340.3</ele>
        <time>2011-06-26T06:50:08Z</time>
      </trkpt>
      <trkpt lat="48.7295" lon="7.34375">
        <ele>340.5</ele>
        <time>2011-06-26T06:50:09Z</time>
      </trkpt>
      <trkpt lat="48.7294" lon="7.34366">
        <ele>342</ele>
        <time>2011-06-26T06:50:15Z</time>
      </trkpt>
      <trkpt lat="48.72931" lon="7.34359">
        <ele>344.1</ele>
        <time>2011-06-26T06:50:22Z</time>
      </trkpt>
      <trkpt lat="48.72922" lon="7.34352">
        <ele>345.7</ele>
        <time>2011-06-26T06:50:29Z</time>
      </trkpt>
      <trkpt lat="48.72914" lon="7.34344">
        <ele>346.8</ele>
        <time>2011-06-26T06:50:36Z</time>
      </trkpt>
      <trkpt lat="48.72905" lon="7.34338">
        <ele>348.2</ele>
        <time>2011-06-26T06:50:43Z</time>
      </trkpt>
      <trkpt lat="48.72897" lon="7.34339">
        <ele>349.6</ele>
        <time>2011-06-26T06:50:50Z</time>
      </trkpt>
      <trkpt lat="48.72894" lon="7.34339">
        <ele>350.2</ele>
        <time>2011-06-26T06:50:53Z</time>
      </trkpt>
      <trkpt lat="48.72884" lon="7.34342">
        <ele>352.5</ele>
        <time>2011-06-26T06:51:00Z</time>
      </trkpt>
      <trkpt lat="48.72876" lon="7.34348">
        <ele>354</ele>
        <time>2011-06-26T06:51:06Z</time>
      </trkpt>
      <trkpt lat="48.72868" lon="7.34356">
        <ele>355.4</ele>
        <time>2011-06-26T06:51:13Z</time>
      </trkpt>
      <trkpt lat="48.7286" lon="7.34366">
        <ele>356.4</ele>
        <time>2011-06-26T06:51:20Z</time>
      </trkpt>
      <trkpt lat="48.72854" lon="7.34372">
        <ele>357.1</ele>
        <time>2011-06-26T06:51:26Z</time>
      </trkpt>
      <trkpt lat="48.72849" lon="7.34374">
        <ele>357.8</ele>
        <time>2011-06-26T06:51:31Z</time>
      </trkpt>
      <trkpt lat="48.72841" lon="7.34375">
        <ele>358.8</ele>
        <time>2011-06-26T06:51:37Z</time>
      </trkpt>
      <trkpt lat="48.72839" lon="7.34375">
        <ele>359.1</ele>
        <time>2011-06-26T06:51:39Z</time>
      </trkpt>
      <trkpt lat="48.72831" lon="7.34369">
        <ele>360.4</ele>
        <time>2011-06-26T06:51:46Z</time>
      </trkpt>
      <trkpt lat="48.72829" lon="7.34368">
        <ele>360.5</ele>
        <time>2011-06-26T06:51:47Z</time>
      </trkpt>
      <trkpt lat="48.72824" lon="7.34365">
        <ele>361</ele>
        <time>2011-06-26T06:51:50Z</time>
      </trkpt>
      <trkpt lat="48.72812" lon="7.3436">
        <ele>362.2</ele>
        <time>2011-06-26T06:51:58Z</time>
      </trkpt>
      <trkpt lat="48.72806" lon="7.34357">
        <ele>363</ele>
        <time>2011-06-26T06:52:02Z</time>
      </trkpt>
      <trkpt lat="48.728" lon="7.34347">
        <ele>364.5</ele>
        <time>2011-06-26T06:52:09Z</time>
      </trkpt>
      <trkpt lat="48.728" lon="7.34345">
        <ele>364.8</ele>
        <time>2011-06-26T06:52:10Z</time>
      </trkpt>
      <trkpt lat="48.728" lon="7.34341">
        <ele>365.2</ele>
        <time>2011-06-26T06:52:12Z</time>
      </trkpt>
      <trkpt lat="48.72798" lon="7.34327">
        <ele>365.8</ele>
        <time>2011-06-26T06:52:17Z</time>
      </trkpt>
      <trkpt lat="48.72799" lon="7.34314">
        <ele>367.2</ele>
        <time>2011-06-26T06:52:24Z</time>
      </trkpt>
      <trkpt lat="48.72798" lon="7.34313">
        <ele>367.3</ele>
        <time>2011-06-26T06:52:25Z</time>
      </trkpt>
      <trkpt lat="48.72798" lon="7.34309">
        <ele>367.7</ele>
        <time>2011-06-26T06:52:27Z</time>
      </trkpt>
      <trkpt lat="48.72794" lon="7.34296">
        <ele>369.1</ele>
        <time>2011-06-26T06:52:35Z</time>
      </trkpt>
      <trkpt lat="48.72789" lon="7.34282">
        <ele>370.3</ele>
        <time>2011-06-26T06:52:42Z</time>
      </trkpt>
      <trkpt lat="48.72786" lon="7.3427">
        <ele>371.4</ele>
        <time>2011-06-26T06:52:48Z</time>
      </trkpt>
      <trkpt lat="48.72779" lon="7.34257">
        <ele>372.8</ele>
        <time>2011-06-26T06:52:55Z</time>
      </trkpt>
      <trkpt lat="48.72778" lon="7.34255">
        <ele>373</ele>
        <time>2011-06-26T06:52:56Z</time>
      </trkpt>
      <trkpt lat="48.72773" lon="7.3424">
        <ele>374.1</ele>
        <time>2011-06-26T06:53:03Z</time>
      </trkpt>
      <trkpt lat="48.7277" lon="7.34235">
        <ele>374.6</ele>
        <time>2011-06-26T06:53:06Z</time>
      </trkpt>
      <trkpt lat="48.72766" lon="7.3422">
        <ele>375.9</ele>
        <time>2011-06-26T06:53:13Z</time>
      </trkpt>
      <trkpt lat="48.72762" lon="7.34207">
        <ele>377.3</ele>
        <time>2011-06-26T06:53:20Z</time>
      </trkpt>
      <trkpt lat="48.72761" lon="7.34205">
        <ele>377.4</ele>
        <time>2011-06-26T06:53:21Z</time>
      </trkpt>
      <trkpt lat="48.72757" lon="7.34191">
        <ele>378.6</ele>
        <time>2011-06-26T06:53:28Z</time>
      </trkpt>
      <trkpt lat="48.72752" lon="7.34182">
        <ele>379.5</ele>
        <time>2011-06-26T06:53:33Z</time>
      </trkpt>
      <trkpt lat="48.72749" lon="7.34172">
        <ele>380.4</ele>
        <time>2011-06-26T06:53:38Z</time>
      </trkpt>
      <trkpt lat="48.72744" lon="7.34162">
        <ele>381.3</ele>
        <time>2011-06-26T06:53:43Z</time>
      </trkpt>
      <trkpt lat="48.72739" lon="7.34144">
        <ele>382.6</ele>
        <time>2011-06-26T06:53:51Z</time>
      </trkpt>
      <trkpt lat="48.72737" lon="7.34129">
        <ele>383.4</ele>
        <time>2011-06-26T06:53:57Z</time>
      </trkpt>
      <trkpt lat="48.72734" lon="7.34127">
        <ele>383.8</ele>
        <time>2011-06-26T06:53:59Z</time>
      </trkpt>
      <trkpt lat="48.72728" lon="7.34114">
        <ele>385.3</ele>
        <time>2011-06-26T06:54:06Z</time>
      </trkpt>
      <trkpt lat="48.72724" lon="7.34105">
        <ele>386.2</ele>
        <time>2011-06-26T06:54:11Z</time>
      </trkpt>
      <trkpt lat="48.72718" lon="7.34094">
        <ele>387.6</ele>
        <time>2011-06-26T06:54:18Z</time>
      </trkpt>
      <trkpt lat="48.72715" lon="7.34086">
        <ele>388.5</ele>
        <time>2011-06-26T06:54:22Z</time>
      </trkpt>
      <trkpt lat="48.72709" lon="7.34068">
        <ele>390.1</ele>
        <time>2011-06-26T06:54:31Z</time>
      </trkpt>
      <trkpt lat="48.72704" lon="7.34054">
        <ele>391.3</ele>
        <time>2011-06-26T06:54:38Z</time>
      </trkpt>
      <trkpt lat="48.72699" lon="7.3404">
        <ele>392.9</ele>
        <time>2011-06-26T06:54:45Z</time>
      </trkpt>
      <trkpt lat="48.72692" lon="7.34029">
        <ele>394.1</ele>
        <time>2011-06-26T06:54:52Z</time>
      </trkpt>
      <trkpt lat="48.72685" lon="7.34014">
        <ele>395.3</ele>
        <time>2011-06-26T06:55:00Z</time>
      </trkpt>
      <trkpt lat="48.7268" lon="7.34002">
        <ele>396.3</ele>
        <time>2011-06-26T06:55:06Z</time>
      </trkpt>
      <trkpt lat="48.72677" lon="7.33997">
        <ele>396.8</ele>
        <time>2011-06-26T06:55:09Z</time>
      </trkpt>
      <trkpt lat="48.72671" lon="7.33986">
        <ele>398.5</ele>
        <time>2011-06-26T06:55:15Z</time>
      </trkpt>
      <trkpt lat="48.7266" lon="7.33973">
        <ele>401.1</ele>
        <time>2011-06-26T06:55:22Z</time>
      </trkpt>
      <trkpt lat="48.72653" lon="7.33967">
        <ele>403.3</ele>
        <time>2011-06-26T06:55:28Z</time>
      </trkpt>
      <trkpt lat="48.72649" lon="7.33963">
        <ele>404.5</ele>
        <time>2011-06-26T06:55:32Z</time>
      </trkpt>
      <trkpt lat="48.72641" lon="7.33955">
        <ele>406.5</ele>
        <time>2011-06-26T06:55:38Z</time>
      </trkpt>
      <trkpt lat="48.72636" lon="7.33947">
        <ele>408</ele>
        <time>2011-06-26T06:55:43Z</time>
      </trkpt>
      <trkpt lat="48.72631" lon="7.3394">
        <ele>408.7</ele>
        <time>2011-06-26T06:55:48Z</time>
      </trkpt>
      <trkpt lat="48.7263" lon="7.33938">
        <ele>408.9</ele>
        <time>2011-06-26T06:55:50Z</time>
      </trkpt>
      <trkpt lat="48.72628" lon="7.33936">
        <ele>409</ele>
        <time>2011-06-26T06:55:51Z</time>
      </trkpt>
      <trkpt lat="48.72625" lon="7.33927">
        <ele>409.3</ele>
        <time>2011-06-26T06:55:55Z</time>
      </trkpt>
      <trkpt lat="48.72621" lon="7.3392">
        <ele>409.6</ele>
        <time>2011-06-26T06:55:59Z</time>
      </trkpt>
      <trkpt lat="48.72613" lon="7.33905">
        <ele>410.4</ele>
        <time>2011-06-26T06:56:06Z</time>
      </trkpt>
      <trkpt lat="48.72606" lon="7.3389">
        <ele>410.7</ele>
        <time>2011-06-26T06:56:12Z</time>
      </trkpt>
      <trkpt lat="48.72598" lon="7.33876">
        <ele>411.3</ele>
        <time>2011-06-26T06:56:18Z</time>
      </trkpt>
      <trkpt lat="48.72594" lon="7.33871">
        <ele>411.7</ele>
        <time>2011-06-26T06:56:21Z</time>
      </trkpt>
      <trkpt lat="48.72591" lon="7.33868">
        <ele>412.1</ele>
        <time>2011-06-26T06:56:23Z</time>
      </trkpt>
      <trkpt lat="48.72589" lon="7.33865">
        <ele>412.2</ele>
        <time>2011-06-26T06:56:24Z</time>
      </trkpt>
      <trkpt lat="48.72585" lon="7.33856">
        <ele>413</ele>
        <time>2011-06-26T06:56:29Z</time>
      </trkpt>
      <trkpt lat="48.72575" lon="7.33843">
        <ele>414.5</ele>
        <time>2011-06-26T06:56:36Z</time>
      </trkpt>
      <trkpt lat="48.72572" lon="7.33839">
        <ele>414.7</ele>
        <time>2011-06-26T06:56:38Z</time>
      </trkpt>
      <trkpt lat="48.72563" lon="7.33826">
        <ele>416.3</ele>
        <time>2011-06-26T06:56:46Z</time>
      </trkpt>
      <trkpt lat="48.72552" lon="7.33814">
        <ele>416.5</ele>
        <time>2011-06-26T06:56:52Z</time>
      </trkpt>
      <trkpt lat="48.72541" lon="7.33801">
        <ele>417.1</ele>
        <time>2011-06-26T06:56:58Z</time>
      </trkpt>
      <trkpt lat="48.72536" lon="7.33794">
        <ele>417.3</ele>
        <time>2011-06-26T06:57:01Z</time>
      </trkpt>
      <trkpt lat="48.72521" lon="7.3378">
        <ele>417.9</ele>
        <time>2011-06-26T06:57:09Z</time>
      </trkpt>
      <trkpt lat="48.72511" lon="7.33769">
        <ele>418.6</ele>
        <time>2011-06-26T06:57:15Z</time>
      </trkpt>
      <trkpt lat="48.72503" lon="7.33757">
        <ele>420</ele>
        <time>2011-06-26T06:57:22Z</time>
      </trkpt>
      <trkpt lat="48.72491" lon="7.33743">
        <ele>419.8</ele>
        <time>2011-06-26T06:57:27Z</time>
      </trkpt>
      <trkpt lat="48.72475" lon="7.33733">
        <ele>419.7</ele>
        <time>2011-06-26T06:57:33Z</time>
      </trkpt>
      <trkpt lat="48.7247" lon="7.33728">
        <ele>419.9</ele>
        <time>2011-06-26T06:57:35Z</time>
      </trkpt>
      <trkpt lat="48.72456" lon="7.33715">
        <ele>420.1</ele>
        <time>2011-06-26T06:57:41Z</time>
      </trkpt>
      <trkpt lat="48.72439" lon="7.33704">
        <ele>420.3</ele>
        <time>2011-06-26T06:57:47Z</time>
      </trkpt>
      <trkpt lat="48.72424" lon="7.33694">
        <ele>420.6</ele>
        <time>2011-06-26T06:57:52Z</time>
      </trkpt>
      <trkpt lat="48.7241" lon="7.33687">
        <ele>421.7</ele>
        <time>2011-06-26T06:57:59Z</time>
      </trkpt>
      <trkpt lat="48.72402" lon="7.33681">
        <ele>422.6</ele>
        <time>2011-06-26T06:58:04Z</time>
      </trkpt>
      <trkpt lat="48.72392" lon="7.33677">
        <ele>423.7</ele>
        <time>2011-06-26T06:58:09Z</time>
      </trkpt>
      <trkpt lat="48.72383" lon="7.33677">
        <ele>425.8</ele>
        <time>2011-06-26T06:58:15Z</time>
      </trkpt>
      <trkpt lat="48.72377" lon="7.33682">
        <ele>427.5</ele>
        <time>2011-06-26T06:58:20Z</time>
      </trkpt>
      <trkpt lat="48.72372" lon="7.33688">
        <ele>429</ele>
        <time>2011-06-26T06:58:25Z</time>
      </trkpt>
      <trkpt lat="48.72366" lon="7.33697">
        <ele>431.1</ele>
        <time>2011-06-26T06:58:33Z</time>
      </trkpt>
      <trkpt lat="48.72355" lon="7.33708">
        <ele>432.6</ele>
        <time>2011-06-26T06:58:41Z</time>
      </trkpt>
      <trkpt lat="48.72352" lon="7.33709">
        <ele>433</ele>
        <time>2011-06-26T06:58:43Z</time>
      </trkpt>
      <trkpt lat="48.72344" lon="7.33699">
        <ele>433.6</ele>
        <time>2011-06-26T06:58:49Z</time>
      </trkpt>
      <trkpt lat="48.72332" lon="7.33685">
        <ele>433.6</ele>
        <time>2011-06-26T06:58:55Z</time>
      </trkpt>
      <trkpt lat="48.72321" lon="7.33676">
        <ele>433.8</ele>
        <time>2011-06-26T06:59:00Z</time>
      </trkpt>
      <trkpt lat="48.72307" lon="7.33666">
        <ele>435</ele>
        <time>2011-06-26T06:59:06Z</time>
      </trkpt>
      <trkpt lat="48.72295" lon="7.33659">
        <ele>435.8</ele>
        <time>2011-06-26T06:59:11Z</time>
      </trkpt>
      <trkpt lat="48.72283" lon="7.33654">
        <ele>435.5</ele>
        <time>2011-06-26T06:59:15Z</time>
      </trkpt>
      <trkpt lat="48.72268" lon="7.33646">
        <ele>435.9</ele>
        <time>2011-06-26T06:59:21Z</time>
      </trkpt>
      <trkpt lat="48.72266" lon="7.33644">
        <ele>435.8</ele>
        <time>2011-06-26T06:59:22Z</time>
      </trkpt>
      <trkpt lat="48.72252" lon="7.33628">
        <ele>433.8</ele>
        <time>2011-06-26T06:59:27Z</time>
      </trkpt>
      <trkpt lat="48.72248" lon="7.33626">
        <ele>432.9</ele>
        <time>2011-06-26T06:59:28Z</time>
      </trkpt>
      <trkpt lat="48.72229" lon="7.3362">
        <ele>429.6</ele>
        <time>2011-06-26T06:59:32Z</time>
      </trkpt>
      <trkpt lat="48.72212" lon="7.33613">
        <ele>428.2</ele>
        <time>2011-06-26T06:59:35Z</time>
      </trkpt>
      <trkpt lat="48.72207" lon="7.3361">
        <ele>427.9</ele>
        <time>2011-06-26T06:59:36Z</time>
      </trkpt>
      <trkpt lat="48.72191" lon="7.33601">
        <ele>427.3</ele>
        <time>2011-06-26T06:59:39Z</time>
      </trkpt>
      <trkpt lat="48.7217" lon="7.33593">
        <ele>426.9</ele>
        <time>2011-06-26T06:59:43Z</time>
      </trkpt>
      <trkpt lat="48.72138" lon="7.3357">
        <ele>426.1</ele>
        <time>2011-06-26T06:59:50Z</time>
      </trkpt>
      <trkpt lat="48.72128" lon="7.33554">
        <ele>426.4</ele>
        <time>2011-06-26T06:59:55Z</time>
      </trkpt>
      <trkpt lat="48.72118" lon="7.33538">
        <ele>426.9</ele>
        <time>2011-06-26T07:00:00Z</time>
      </trkpt>
      <trkpt lat="48.72107" lon="7.33523">
        <ele>427.4</ele>
        <time>2011-06-26T07:00:05Z</time>
      </trkpt>
      <trkpt lat="48.721" lon="7.3352">
        <ele>427.9</ele>
        <time>2011-06-26T07:00:08Z</time>
      </trkpt>
      <trkpt lat="48.72097" lon="7.33519">
        <ele>428.2</ele>
        <time>2011-06-26T07:00:09Z</time>
      </trkpt>
      <trkpt lat="48.72087" lon="7.33511">
        <ele>429.5</ele>
        <time>2011-06-26T07:00:14Z</time>
      </trkpt>
      <trkpt lat="48.72069" lon="7.33508">
        <ele>430.9</ele>
        <time>2011-06-26T07:00:22Z</time>
      </trkpt>
      <trkpt lat="48.72056" lon="7.33504">
        <ele>431.7</ele>
        <time>2011-06-26T07:00:28Z</time>
      </trkpt>
      <trkpt lat="48.72047" lon="7.33495">
        <ele>432.9</ele>
        <time>2011-06-26T07:00:33Z</time>
      </trkpt>
      <trkpt lat="48.72039" lon="7.33482">
        <ele>433.4</ele>
        <time>2011-06-26T07:00:38Z</time>
      </trkpt>
      <trkpt lat="48.72028" lon="7.33462">
        <ele>434.1</ele>
        <time>2011-06-26T07:00:45Z</time>
      </trkpt>
      <trkpt lat="48.72017" lon="7.33441">
        <ele>434.6</ele>
        <time>2011-06-26T07:00:52Z</time>
      </trkpt>
      <trkpt lat="48.72014" lon="7.33422">
        <ele>435.1</ele>
        <time>2011-06-26T07:00:57Z</time>
      </trkpt>
      <trkpt lat="48.72011" lon="7.33399">
        <ele>435.3</ele>
        <time>2011-06-26T07:01:03Z</time>
      </trkpt>
      <trkpt lat="48.72005" lon="7.33371">
        <ele>435.5</ele>
        <time>2011-06-26T07:01:10Z</time>
      </trkpt>
      <trkpt lat="48.71996" lon="7.33344">
        <ele>435.4</ele>
        <time>2011-06-26T07:01:17Z</time>
      </trkpt>
      <trkpt lat="48.7199" lon="7.33329">
        <ele>436.5</ele>
        <time>2011-06-26T07:01:22Z</time>
      </trkpt>
      <trkpt lat="48.71983" lon="7.3331">
        <ele>436.7</ele>
        <time>2011-06-26T07:01:28Z</time>
      </trkpt>
      <trkpt lat="48.71981" lon="7.33301">
        <ele>437</ele>
        <time>2011-06-26T07:01:31Z</time>
      </trkpt>
      <trkpt lat="48.71976" lon="7.33286">
        <ele>438.1</ele>
        <time>2011-06-26T07:01:37Z</time>
      </trkpt>
      <trkpt lat="48.71973" lon="7.33278">
        <ele>439.1</ele>
        <time>2011-06-26T07:01:41Z</time>
      </trkpt>
      <trkpt lat="48.71968" lon="7.33257">
        <ele>440.3</ele>
        <time>2011-06-26T07:01:48Z</time>
      </trkpt>
      <trkpt lat="48.71967" lon="7.33243">
        <ele>440.9</ele>
        <time>2011-06-26T07:01:52Z</time>
      </trkpt>
      <trkpt lat="48.71962" lon="7.33218">
        <ele>441.2</ele>
        <time>2011-06-26T07:01:58Z</time>
      </trkpt>
      <trkpt lat="48.71959" lon="7.33194">
        <ele>441.3</ele>
        <time>2011-06-26T07:02:04Z</time>
      </trkpt>
      <trkpt lat="48.71954" lon="7.3317">
        <ele>441.5</ele>
        <time>2011-06-26T07:02:11Z</time>
      </trkpt>
      <trkpt lat="48.71952" lon="7.33156">
        <ele>441.7</ele>
        <time>2011-06-26T07:02:15Z</time>
      </trkpt>
      <trkpt lat="48.71944" lon="7.33132">
        <ele>441.8</ele>
        <time>2011-06-26T07:02:21Z</time>
      </trkpt>
      <trkpt lat="48.71941" lon="7.33125">
        <ele>441.8</ele>
        <time>2011-06-26T07:02:23Z</time>
      </trkpt>
      <trkpt lat="48.7193" lon="7.33105">
        <ele>442.2</ele>
        <time>2011-06-26T07:02:30Z</time>
      </trkpt>
      <trkpt lat="48.71918" lon="7.33099">
        <ele>442.6</ele>
        <time>2011-06-26T07:02:35Z</time>
      </trkpt>
      <trkpt lat="48.71909" lon="7.33094">
        <ele>443</ele>
        <time>2011-06-26T07:02:39Z</time>
      </trkpt>
      <trkpt lat="48.71895" lon="7.33093">
        <ele>443.9</ele>
        <time>2011-06-26T07:02:45Z</time>
      </trkpt>
      <trkpt lat="48.71882" lon="7.33099">
        <ele>445</ele>
        <time>2011-06-26T07:02:51Z</time>
      </trkpt>
      <trkpt lat="48.7187" lon="7.33105">
        <ele>446.2</ele>
        <time>2011-06-26T07:02:57Z</time>
      </trkpt>
      <trkpt lat="48.71862" lon="7.3311">
        <ele>446.9</ele>
        <time>2011-06-26T07:03:01Z</time>
      </trkpt>
      <trkpt lat="48.71849" lon="7.33116">
        <ele>447.9</ele>
        <time>2011-06-26T07:03:07Z</time>
      </trkpt>
      <trkpt lat="48.7184" lon="7.33122">
        <ele>448.9</ele>
        <time>2011-06-26T07:03:12Z</time>
      </trkpt>
      <trkpt lat="48.71839" lon="7.33123">
        <ele>449</ele>
        <time>2011-06-26T07:03:13Z</time>
      </trkpt>
      <trkpt lat="48.71833" lon="7.33133">
        <ele>449.9</ele>
        <time>2011-06-26T07:03:18Z</time>
      </trkpt>
      <trkpt lat="48.71821" lon="7.33147">
        <ele>451.3</ele>
        <time>2011-06-26T07:03:26Z</time>
      </trkpt>
      <trkpt lat="48.71809" lon="7.33153">
        <ele>452.9</ele>
        <time>2011-06-26T07:03:32Z</time>
      </trkpt>
      <trkpt lat="48.71804" lon="7.33163">
        <ele>453.4</ele>
        <time>2011-06-26T07:03:37Z</time>
      </trkpt>
      <trkpt lat="48.71798" lon="7.3318">
        <ele>453.1</ele>
        <time>2011-06-26T07:03:42Z</time>
      </trkpt>
      <trkpt lat="48.71786" lon="7.33197">
        <ele>451</ele>
        <time>2011-06-26T07:03:47Z</time>
      </trkpt>
      <trkpt lat="48.7177" lon="7.3322">
        <ele>446.8</ele>
        <time>2011-06-26T07:03:53Z</time>
      </trkpt>
      <trkpt lat="48.71756" lon="7.33236">
        <ele>442.9</ele>
        <time>2011-06-26T07:03:57Z</time>
      </trkpt>
      <trkpt lat="48.71751" lon="7.33245">
        <ele>440.6</ele>
        <time>2011-06-26T07:03:59Z</time>
      </trkpt>
      <trkpt lat="48.71748" lon="7.33249">
        <ele>439.7</ele>
        <time>2011-06-26T07:04:00Z</time>
      </trkpt>
      <trkpt lat="48.7173" lon="7.33251">
        <ele>437.8</ele>
        <time>2011-06-26T07:04:04Z</time>
      </trkpt>
      <trkpt lat="48.71714" lon="7.33244">
        <ele>437</ele>
        <time>2011-06-26T07:04:07Z</time>
      </trkpt>
      <trkpt lat="48.71708" lon="7.33241">
        <ele>436.5</ele>
        <time>2011-06-26T07:04:08Z</time>
      </trkpt>
      <trkpt lat="48.7168" lon="7.33233">
        <ele>435</ele>
        <time>2011-06-26T07:04:12Z</time>
      </trkpt>
      <trkpt lat="48.71658" lon="7.33218">
        <ele>434</ele>
        <time>2011-06-26T07:04:16Z</time>
      </trkpt>
      <trkpt lat="48.71628" lon="7.33186">
        <ele>432.6</ele>
        <time>2011-06-26T07:04:22Z</time>
      </trkpt>
      <trkpt lat="48.71623" lon="7.33182">
        <ele>432.5</ele>
        <time>2011-06-26T07:04:23Z</time>
      </trkpt>
      <trkpt lat="48.71599" lon="7.33167">
        <ele>433.3</ele>
        <time>2011-06-26T07:04:29Z</time>
      </trkpt>
      <trkpt lat="48.71579" lon="7.33153">
        <ele>434.3</ele>
        <time>2011-06-26T07:04:35Z</time>
      </trkpt>
      <trkpt lat="48.71563" lon="7.33146">
        <ele>434.9</ele>
        <time>2011-06-26T07:04:40Z</time>
      </trkpt>
      <trkpt lat="48.71543" lon="7.33138">
        <ele>435.2</ele>
        <time>2011-06-26T07:04:45Z</time>
      </trkpt>
      <trkpt lat="48.71521" lon="7.33128">
        <ele>435.7</ele>
        <time>2011-06-26T07:04:51Z</time>
      </trkpt>
      <trkpt lat="48.71502" lon="7.33122">
        <ele>435.7</ele>
        <time>2011-06-26T07:04:56Z</time>
      </trkpt>
      <trkpt lat="48.71477" lon="7.33119">
        <ele>436.1</ele>
        <time>2011-06-26T07:05:02Z</time>
      </trkpt>
      <trkpt lat="48.71457" lon="7.33121">
        <ele>436.2</ele>
        <time>2011-06-26T07:05:07Z</time>
      </trkpt>
      <trkpt lat="48.71438" lon="7.33121">
        <ele>436.1</ele>
        <time>2011-06-26T07:05:11Z</time>
      </trkpt>
      <trkpt lat="48.71427" lon="7.33121">
        <ele>435.8</ele>
        <time>2011-06-26T07:05:13Z</time>
      </trkpt>
      <trkpt lat="48.71397" lon="7.33122">
        <ele>434.4</ele>
        <time>2011-06-26T07:05:18Z</time>
      </trkpt>
      <trkpt lat="48.71377" lon="7.33126">
        <ele>433.1</ele>
        <time>2011-06-26T07:05:21Z</time>
      </trkpt>
      <trkpt lat="48.71364" lon="7.33129">
        <ele>432.2</ele>
        <time>2011-06-26T07:05:23Z</time>
      </trkpt>
      <trkpt lat="48.71336" lon="7.33142">
        <ele>431.5</ele>
        <time>2011-06-26T07:05:28Z</time>
      </trkpt>
      <trkpt lat="48.71326" lon="7.33146">
        <ele>431.5</ele>
        <time>2011-06-26T07:05:30Z</time>
      </trkpt>
      <trkpt lat="48.71305" lon="7.33147">
        <ele>431.2</ele>
        <time>2011-06-26T07:05:34Z</time>
      </trkpt>
      <trkpt lat="48.71272" lon="7.33133">
        <ele>430</ele>
        <time>2011-06-26T07:05:40Z</time>
      </trkpt>
      <trkpt lat="48.7125" lon="7.33131">
        <ele>429.1</ele>
        <time>2011-06-26T07:05:44Z</time>
      </trkpt>
      <trkpt lat="48.71232" lon="7.33146">
        <ele>428</ele>
        <time>2011-06-26T07:05:49Z</time>
      </trkpt>
      <trkpt lat="48.71223" lon="7.3315">
        <ele>427.5</ele>
        <time>2011-06-26T07:05:51Z</time>
      </trkpt>
      <trkpt lat="48.71202" lon="7.33161">
        <ele>426.5</ele>
        <time>2011-06-26T07:05:55Z</time>
      </trkpt>
      <trkpt lat="48.71181" lon="7.33168">
        <ele>425.4</ele>
        <time>2011-06-26T07:05:59Z</time>
      </trkpt>
      <trkpt lat="48.71176" lon="7.33166">
        <ele>425.2</ele>
        <time>2011-06-26T07:06:00Z</time>
      </trkpt>
      <trkpt lat="48.71169" lon="7.33164">
        <ele>425.1</ele>
        <time>2011-06-26T07:06:02Z</time>
      </trkpt>
      <trkpt lat="48.71157" lon="7.33149">
        <ele>425.5</ele>
        <time>2011-06-26T07:06:09Z</time>
      </trkpt>
      <trkpt lat="48.71151" lon="7.33149">
        <ele>425.8</ele>
        <time>2011-06-26T07:06:13Z</time>
      </trkpt>
      <trkpt lat="48.71142" lon="7.33152">
        <ele>426.4</ele>
        <time>2011-06-26T07:06:19Z</time>
      </trkpt>
      <trkpt lat="48.71138" lon="7.33151">
        <ele>426.8</ele>
        <time>2011-06-26T07:06:22Z</time>
      </trkpt>
      <trkpt lat="48.71123" lon="7.3315">
        <ele>428.6</ele>
        <time>2011-06-26T07:06:30Z</time>
      </trkpt>
      <trkpt lat="48.7112" lon="7.33149">
        <ele>429.5</ele>
        <time>2011-06-26T07:06:33Z</time>
      </trkpt>
      <trkpt lat="48.71114" lon="7.33153">
        <ele>430.9</ele>
        <time>2011-06-26T07:06:38Z</time>
      </trkpt>
      <trkpt lat="48.71109" lon="7.33156">
        <ele>431.3</ele>
        <time>2011-06-26T07:06:41Z</time>
      </trkpt>
      <trkpt lat="48.71099" lon="7.33167">
        <ele>432.1</ele>
        <time>2011-06-26T07:06:48Z</time>
      </trkpt>
      <trkpt lat="48.71089" lon="7.3318">
        <ele>433</ele>
        <time>2011-06-26T07:06:55Z</time>
      </trkpt>
      <trkpt lat="48.71076" lon="7.33181">
        <ele>434.3</ele>
        <time>2011-06-26T07:07:02Z</time>
      </trkpt>
      <trkpt lat="48.71066" lon="7.33176">
        <ele>435.8</ele>
        <time>2011-06-26T07:07:08Z</time>
      </trkpt>
      <trkpt lat="48.7106" lon="7.33169">
        <ele>437.3</ele>
        <time>2011-06-26T07:07:13Z</time>
      </trkpt>
      <trkpt lat="48.71059" lon="7.33156">
        <ele>439.8</ele>
        <time>2011-06-26T07:07:20Z</time>
      </trkpt>
      <trkpt lat="48.71059" lon="7.33148">
        <ele>441</ele>
        <time>2011-06-26T07:07:24Z</time>
      </trkpt>
      <trkpt lat="48.71058" lon="7.33141">
        <ele>442.6</ele>
        <time>2011-06-26T07:07:28Z</time>
      </trkpt>
      <trkpt lat="48.71056" lon="7.33121">
        <ele>444.7</ele>
        <time>2011-06-26T07:07:34Z</time>
      </trkpt>
      <trkpt lat="48.71054" lon="7.33111">
        <ele>446.3</ele>
        <time>2011-06-26T07:07:38Z</time>
      </trkpt>
      <trkpt lat="48.71052" lon="7.33096">
        <ele>449.4</ele>
        <time>2011-06-26T07:07:47Z</time>
      </trkpt>
      <trkpt lat="48.7105" lon="7.33086">
        <ele>451</ele>
        <time>2011-06-26T07:07:52Z</time>
      </trkpt>
      <trkpt lat="48.71046" lon="7.33078">
        <ele>452.4</ele>
        <time>2011-06-26T07:07:56Z</time>
      </trkpt>
      <trkpt lat="48.71037" lon="7.33064">
        <ele>454.6</ele>
        <time>2011-06-26T07:08:04Z</time>
      </trkpt>
      <trkpt lat="48.71034" lon="7.3306">
        <ele>455.3</ele>
        <time>2011-06-26T07:08:07Z</time>
      </trkpt>
      <trkpt lat="48.71025" lon="7.3305">
        <ele>457.4</ele>
        <time>2011-06-26T07:08:14Z</time>
      </trkpt>
      <trkpt lat="48.71018" lon="7.33041">
        <ele>459</ele>
        <time>2011-06-26T07:08:21Z</time>
      </trkpt>
      <trkpt lat="48.71011" lon="7.33034">
        <ele>460.6</ele>
        <time>2011-06-26T07:08:27Z</time>
      </trkpt>
      <trkpt lat="48.71003" lon="7.33026">
        <ele>462.9</ele>
        <time>2011-06-26T07:08:34Z</time>
      </trkpt>
      <trkpt lat="48.71001" lon="7.33025">
        <ele>463.3</ele>
        <time>2011-06-26T07:08:35Z</time>
      </trkpt>
      <trkpt lat="48.70995" lon="7.33018">
        <ele>464.5</ele>
        <time>2011-06-26T07:08:41Z</time>
      </trkpt>
      <trkpt lat="48.70991" lon="7.33016">
        <ele>465.1</ele>
        <time>2011-06-26T07:08:43Z</time>
      </trkpt>
      <trkpt lat="48.7098" lon="7.33008">
        <ele>467.9</ele>
        <time>2011-06-26T07:08:51Z</time>
      </trkpt>
      <trkpt lat="48.70971" lon="7.33002">
        <ele>470.1</ele>
        <time>2011-06-26T07:08:58Z</time>
      </trkpt>
      <trkpt lat="48.70964" lon="7.32994">
        <ele>471.3</ele>
        <time>2011-06-26T07:09:06Z</time>
      </trkpt>
      <trkpt lat="48.70953" lon="7.32988">
        <ele>472.4</ele>
        <time>2011-06-26T07:09:15Z</time>
      </trkpt>
      <trkpt lat="48.70945" lon="7.32982">
        <ele>472.9</ele>
        <time>2011-06-26T07:09:21Z</time>
      </trkpt>
      <trkpt lat="48.70935" lon="7.32974">
        <ele>473.7</ele>
        <time>2011-06-26T07:09:29Z</time>
      </trkpt>
      <trkpt lat="48.7093" lon="7.32971">
        <ele>474.1</ele>
        <time>2011-06-26T07:09:33Z</time>
      </trkpt>
      <trkpt lat="48.70921" lon="7.32964">
        <ele>474.6</ele>
        <time>2011-06-26T07:09:40Z</time>
      </trkpt>
      <trkpt lat="48.7091" lon="7.32953">
        <ele>475</ele>
        <time>2011-06-26T07:09:48Z</time>
      </trkpt>
      <trkpt lat="48.709" lon="7.32946">
        <ele>475.2</ele>
        <time>2011-06-26T07:09:54Z</time>
      </trkpt>
      <trkpt lat="48.70892" lon="7.3294">
        <ele>475.5</ele>
        <time>2011-06-26T07:09:59Z</time>
      </trkpt>
      <trkpt lat="48.70881" lon="7.32933">
        <ele>475.7</ele>
        <time>2011-06-26T07:10:05Z</time>
      </trkpt>
      <trkpt lat="48.70866" lon="7.32922">
        <ele>476.1</ele>
        <time>2011-06-26T07:10:13Z</time>
      </trkpt>
      <trkpt lat="48.7085" lon="7.3291">
        <ele>477</ele>
        <time>2011-06-26T07:10:21Z</time>
      </trkpt>
      <trkpt lat="48.7084" lon="7.32899">
        <ele>477.4</ele>
        <time>2011-06-26T07:10:27Z</time>
      </trkpt>
      <trkpt lat="48.70833" lon="7.32893">
        <ele>477.8</ele>
        <time>2011-06-26T07:10:31Z</time>
      </trkpt>
      <trkpt lat="48.70824" lon="7.32883">
        <ele>478.5</ele>
        <time>2011-06-26T07:10:37Z</time>
      </trkpt>
      <trkpt lat="48.70818" lon="7.32873">
        <ele>479.3</ele>
        <time>2011-06-26T07:10:42Z</time>
      </trkpt>
      <trkpt lat="48.7081" lon="7.32862">
        <ele>480.1</ele>
        <time>2011-06-26T07:10:48Z</time>
      </trkpt>
      <trkpt lat="48.70802" lon="7.32846">
        <ele>480.6</ele>
        <time>2011-06-26T07:10:54Z</time>
      </trkpt>
      <trkpt lat="48.70792" lon="7.32834">
        <ele>481.8</ele>
        <time>2011-06-26T07:11:01Z</time>
      </trkpt>
      <trkpt lat="48.7079" lon="7.32834">
        <ele>482.1</ele>
        <time>2011-06-26T07:11:02Z</time>
      </trkpt>
      <trkpt lat="48.70781" lon="7.32827">
        <ele>484</ele>
        <time>2011-06-26T07:11:09Z</time>
      </trkpt>
      <trkpt lat="48.70777" lon="7.32824">
        <ele>484.5</ele>
        <time>2011-06-26T07:11:12Z</time>
      </trkpt>
      <trkpt lat="48.7077" lon="7.3282">
        <ele>485.5</ele>
        <time>2011-06-26T07:11:18Z</time>
      </trkpt>
      <trkpt lat="48.70765" lon="7.32818">
        <ele>486.1</ele>
        <time>2011-06-26T07:11:21Z</time>
      </trkpt>
      <trkpt lat="48.70763" lon="7.32812">
        <ele>486.8</ele>
        <time>2011-06-26T07:11:24Z</time>
      </trkpt>
      <trkpt lat="48.70755" lon="7.32804">
        <ele>488</ele>
        <time>2011-06-26T07:11:30Z</time>
      </trkpt>
      <trkpt lat="48.70743" lon="7.32799">
        <ele>490</ele>
        <time>2011-06-26T07:11:37Z</time>
      </trkpt>
      <trkpt lat="48.70741" lon="7.32797">
        <ele>490.8</ele>
        <time>2011-06-26T07:11:39Z</time>
      </trkpt>
      <trkpt lat="48.7074" lon="7.32797">
        <ele>491.3</ele>
        <time>2011-06-26T07:11:40Z</time>
      </trkpt>
      <trkpt lat="48.70738" lon="7.32793">
        <ele>492.1</ele>
        <time>2011-06-26T07:11:43Z</time>
      </trkpt>
      <trkpt lat="48.70738" lon="7.3279">
        <ele>492.7</ele>
        <time>2011-06-26T07:11:49Z</time>
      </trkpt>
      <trkpt lat="48.70742" lon="7.32786">
        <ele>493.5</ele>
        <time>2011-06-26T07:11:56Z</time>
      </trkpt>
      <trkpt lat="48.7074" lon="7.32781">
        <ele>493.5</ele>
        <time>2011-06-26T07:12:10Z</time>
      </trkpt>
      <trkpt lat="48.70739" lon="7.32781">
        <ele>493.5</ele>
        <time>2011-06-26T07:12:14Z</time>
      </trkpt>
      <trkpt lat="48.70746" lon="7.32771">
        <ele>494.5</ele>
        <time>2011-06-26T07:12:21Z</time>
      </trkpt>
      <trkpt lat="48.70752" lon="7.32765">
        <ele>495.4</ele>
        <time>2011-06-26T07:12:25Z</time>
      </trkpt>
      <trkpt lat="48.70752" lon="7.32762">
        <ele>496.4</ele>
        <time>2011-06-26T07:12:29Z</time>
      </trkpt>
      <trkpt lat="48.70744" lon="7.32761">
        <ele>497.8</ele>
        <time>2011-06-26T07:12:35Z</time>
      </trkpt>
      <trkpt lat="48.70743" lon="7.32761">
        <ele>498.8</ele>
        <time>2011-06-26T07:12:39Z</time>
      </trkpt>
      <trkpt lat="48.70741" lon="7.32763">
        <ele>499.2</ele>
        <time>2011-06-26T07:12:45Z</time>
      </trkpt>
      <trkpt lat="48.70738" lon="7.32763">
        <ele>500.1</ele>
        <time>2011-06-26T07:12:50Z</time>
      </trkpt>
      <trkpt lat="48.70733" lon="7.32761">
        <ele>501.3</ele>
        <time>2011-06-26T07:12:59Z</time>
      </trkpt>
      <trkpt lat="48.7073" lon="7.32759">
        <ele>502</ele>
        <time>2011-06-26T07:13:08Z</time>
      </trkpt>
      <trkpt lat="48.70729" lon="7.32757">
        <ele>502.7</ele>
        <time>2011-06-26T07:13:11Z</time>
      </trkpt>
      <trkpt lat="48.70732" lon="7.32752">
        <ele>503.6</ele>
        <time>2011-06-26T07:13:18Z</time>
      </trkpt>
      <trkpt lat="48.70735" lon="7.3275">
        <ele>504.4</ele>
        <time>2011-06-26T07:13:25Z</time>
      </trkpt>
      <trkpt lat="48.70736" lon="7.3275">
        <ele>504.5</ele>
        <time>2011-06-26T07:13:28Z</time>
      </trkpt>
      <trkpt lat="48.70741" lon="7.32745">
        <ele>504.7</ele>
        <time>2011-06-26T07:13:33Z</time>
      </trkpt>
      <trkpt lat="48.70739" lon="7.32738">
        <ele>505.2</ele>
        <time>2011-06-26T07:13:39Z</time>
      </trkpt>
      <trkpt lat="48.70733" lon="7.3273">
        <ele>505.9</ele>
        <time>2011-06-26T07:13:45Z</time>
      </trkpt>
      <trkpt lat="48.70731" lon="7.32719">
        <ele>507.1</ele>
        <time>2011-06-26T07:13:50Z</time>
      </trkpt>
      <trkpt lat="48.70727" lon="7.3271">
        <ele>508.1</ele>
        <time>2011-06-26T07:13:55Z</time>
      </trkpt>
      <trkpt lat="48.70727" lon="7.32708">
        <ele>508.3</ele>
        <time>2011-06-26T07:13:56Z</time>
      </trkpt>
      <trkpt lat="48.70725" lon="7.32697">
        <ele>509.7</ele>
        <time>2011-06-26T07:14:04Z</time>
      </trkpt>
      <trkpt lat="48.70725" lon="7.32685">
        <ele>510.9</ele>
        <time>2011-06-26T07:14:10Z</time>
      </trkpt>
      <trkpt lat="48.70724" lon="7.32672">
        <ele>512.4</ele>
        <time>2011-06-26T07:14:17Z</time>
      </trkpt>
      <trkpt lat="48.70724" lon="7.32671">
        <ele>512.6</ele>
        <time>2011-06-26T07:14:18Z</time>
      </trkpt>
      <trkpt lat="48.70724" lon="7.32657">
        <ele>514.9</ele>
        <time>2011-06-26T07:14:25Z</time>
      </trkpt>
      <trkpt lat="48.70724" lon="7.32655">
        <ele>515.2</ele>
        <time>2011-06-26T07:14:26Z</time>
      </trkpt>
      <trkpt lat="48.70725" lon="7.32647">
        <ele>516.3</ele>
        <time>2011-06-26T07:14:30Z</time>
      </trkpt>
      <trkpt lat="48.70727" lon="7.32637">
        <ele>517.9</ele>
        <time>2011-06-26T07:14:36Z</time>
      </trkpt>
      <trkpt lat="48.70731" lon="7.32622">
        <ele>519.3</ele>
        <time>2011-06-26T07:14:43Z</time>
      </trkpt>
      <trkpt lat="48.70735" lon="7.32606">
        <ele>521.1</ele>
        <time>2011-06-26T07:14:51Z</time>
      </trkpt>
      <trkpt lat="48.70726" lon="7.32605">
        <ele>523.3</ele>
        <time>2011-06-26T07:15:00Z</time>
      </trkpt>
      <trkpt lat="48.70721" lon="7.32602">
        <ele>524.9</ele>
        <time>2011-06-26T07:15:07Z</time>
      </trkpt>
      <trkpt lat="48.70715" lon="7.32603">
        <ele>526.2</ele>
        <time>2011-06-26T07:15:21Z</time>
      </trkpt>
      <trkpt lat="48.7071" lon="7.32605">
        <ele>527.2</ele>
        <time>2011-06-26T07:15:26Z</time>
      </trkpt>
      <trkpt lat="48.70706" lon="7.32605">
        <ele>528.7</ele>
        <time>2011-06-26T07:15:32Z</time>
      </trkpt>
      <trkpt lat="48.70705" lon="7.32602">
        <ele>529.6</ele>
        <time>2011-06-26T07:15:42Z</time>
      </trkpt>
      <trkpt lat="48.70706" lon="7.32594">
        <ele>530.9</ele>
        <time>2011-06-26T07:15:50Z</time>
      </trkpt>
      <trkpt lat="48.70708" lon="7.32585">
        <ele>532.1</ele>
        <time>2011-06-26T07:15:57Z</time>
      </trkpt>
      <trkpt lat="48.70709" lon="7.32578">
        <ele>533.3</ele>
        <time>2011-06-26T07:16:03Z</time>
      </trkpt>
      <trkpt lat="48.70709" lon="7.32571">
        <ele>534.1</ele>
        <time>2011-06-26T07:16:09Z</time>
      </trkpt>
      <trkpt lat="48.70708" lon="7.32564">
        <ele>534.7</ele>
        <time>2011-06-26T07:16:17Z</time>
      </trkpt>
      <trkpt lat="48.70709" lon="7.32559">
        <ele>534.9</ele>
        <time>2011-06-26T07:16:20Z</time>
      </trkpt>
      <trkpt lat="48.70708" lon="7.32552">
        <ele>535.6</ele>
        <time>2011-06-26T07:16:24Z</time>
      </trkpt>
      <trkpt lat="48.70704" lon="7.32539">
        <ele>537.1</ele>
        <time>2011-06-26T07:16:30Z</time>
      </trkpt>
      <trkpt lat="48.707" lon="7.32533">
        <ele>537.7</ele>
        <time>2011-06-26T07:16:33Z</time>
      </trkpt>
      <trkpt lat="48.70695" lon="7.3253">
        <ele>538.3</ele>
        <time>2011-06-26T07:16:37Z</time>
      </trkpt>
      <trkpt lat="48.70682" lon="7.32539">
        <ele>538.7</ele>
        <time>2011-06-26T07:16:47Z</time>
      </trkpt>
      <trkpt lat="48.70673" lon="7.32545">
        <ele>538.9</ele>
        <time>2011-06-26T07:16:53Z</time>
      </trkpt>
      <trkpt lat="48.70663" lon="7.32551">
        <ele>539.1</ele>
        <time>2011-06-26T07:17:00Z</time>
      </trkpt>
      <trkpt lat="48.70653" lon="7.32556">
        <ele>539.4</ele>
        <time>2011-06-26T07:17:07Z</time>
      </trkpt>
      <trkpt lat="48.70641" lon="7.32559">
        <ele>539.7</ele>
        <time>2011-06-26T07:17:13Z</time>
      </trkpt>
      <trkpt lat="48.70637" lon="7.3256">
        <ele>539.7</ele>
        <time>2011-06-26T07:17:15Z</time>
      </trkpt>
      <trkpt lat="48.70633" lon="7.32561">
        <ele>539.7</ele>
        <time>2011-06-26T07:17:17Z</time>
      </trkpt>
      <trkpt lat="48.70619" lon="7.32563">
        <ele>539.3</ele>
        <time>2011-06-26T07:17:23Z</time>
      </trkpt>
      <trkpt lat="48.70596" lon="7.3256">
        <ele>538.9</ele>
        <time>2011-06-26T07:17:30Z</time>
      </trkpt>
      <trkpt lat="48.70577" lon="7.32559">
        <ele>538.2</ele>
        <time>2011-06-26T07:17:35Z</time>
      </trkpt>
      <trkpt lat="48.70557" lon="7.32578">
        <ele>535.5</ele>
        <time>2011-06-26T07:17:40Z</time>
      </trkpt>
      <trkpt lat="48.70548" lon="7.32588">
        <ele>534.1</ele>
        <time>2011-06-26T07:17:42Z</time>
      </trkpt>
      <trkpt lat="48.7053" lon="7.3261">
        <ele>529.1</ele>
        <time>2011-06-26T07:17:46Z</time>
      </trkpt>
      <trkpt lat="48.70514" lon="7.32639">
        <ele>524.5</ele>
        <time>2011-06-26T07:17:51Z</time>
      </trkpt>
      <trkpt lat="48.70498" lon="7.32649">
        <ele>522.9</ele>
        <time>2011-06-26T07:17:54Z</time>
      </trkpt>
      <trkpt lat="48.7048" lon="7.32661">
        <ele>521.7</ele>
        <time>2011-06-26T07:17:58Z</time>
      </trkpt>
      <trkpt lat="48.70465" lon="7.32674">
        <ele>519.8</ele>
        <time>2011-06-26T07:18:03Z</time>
      </trkpt>
      <trkpt lat="48.70462" lon="7.32677">
        <ele>519.5</ele>
        <time>2011-06-26T07:18:04Z</time>
      </trkpt>
      <trkpt lat="48.70452" lon="7.32688">
        <ele>518.5</ele>
        <time>2011-06-26T07:18:08Z</time>
      </trkpt>
      <trkpt lat="48.7045" lon="7.3269">
        <ele>518.4</ele>
        <time>2011-06-26T07:18:09Z</time>
      </trkpt>
      <trkpt lat="48.70434" lon="7.32685">
        <ele>518.1</ele>
        <time>2011-06-26T07:18:15Z</time>
      </trkpt>
      <trkpt lat="48.70419" lon="7.32679">
        <ele>518.4</ele>
        <time>2011-06-26T07:18:20Z</time>
      </trkpt>
      <trkpt lat="48.70398" lon="7.32668">
        <ele>518.3</ele>
        <time>2011-06-26T07:18:27Z</time>
      </trkpt>
      <trkpt lat="48.70381" lon="7.32655">
        <ele>517.9</ele>
        <time>2011-06-26T07:18:32Z</time>
      </trkpt>
      <trkpt lat="48.70371" lon="7.32647">
        <ele>518.7</ele>
        <time>2011-06-26T07:18:36Z</time>
      </trkpt>
      <trkpt lat="48.70353" lon="7.32637">
        <ele>519.3</ele>
        <time>2011-06-26T07:18:42Z</time>
      </trkpt>
      <trkpt lat="48.70331" lon="7.32629">
        <ele>519.5</ele>
        <time>2011-06-26T07:18:49Z</time>
      </trkpt>
      <trkpt lat="48.70317" lon="7.32626">
        <ele>519.9</ele>
        <time>2011-06-26T07:18:54Z</time>
      </trkpt>
      <trkpt lat="48.703" lon="7.32622">
        <ele>519.9</ele>
        <time>2011-06-26T07:19:00Z</time>
      </trkpt>
      <trkpt lat="48.70293" lon="7.32618">
        <ele>519.9</ele>
        <time>2011-06-26T07:19:03Z</time>
      </trkpt>
      <trkpt lat="48.70283" lon="7.32607">
        <ele>519.5</ele>
        <time>2011-06-26T07:19:08Z</time>
      </trkpt>
      <trkpt lat="48.70279" lon="7.32604">
        <ele>518.5</ele>
        <time>2011-06-26T07:19:11Z</time>
      </trkpt>
      <trkpt lat="48.70279" lon="7.32603">
        <ele>518.2</ele>
        <time>2011-06-26T07:19:15Z</time>
      </trkpt>
      <trkpt lat="48.70278" lon="7.326">
        <ele>518.9</ele>
        <time>2011-06-26T07:19:20Z</time>
      </trkpt>
      <trkpt lat="48.70275" lon="7.32597">
        <ele>520</ele>
        <time>2011-06-26T07:19:27Z</time>
      </trkpt>
      <trkpt lat="48.70273" lon="7.32596">
        <ele>520.1</ele>
        <time>2011-06-26T07:19:32Z</time>
      </trkpt>
      <trkpt lat="48.70273" lon="7.3259">
        <ele>520.1</ele>
        <time>2011-06-26T07:19:38Z</time>
      </trkpt>
      <trkpt lat="48.70273" lon="7.32586">
        <ele>519.7</ele>
        <time>2011-06-26T07:19:45Z</time>
      </trkpt>
      <trkpt lat="48.70274" lon="7.32586">
        <ele>519.7</ele>
        <time>2011-06-26T07:19:46Z</time>
      </trkpt>
      <trkpt lat="48.70276" lon="7.32587">
        <ele>519.7</ele>
        <time>2011-06-26T07:19:52Z</time>
      </trkpt>
      <trkpt lat="48.70272" lon="7.32589">
        <ele>519.4</ele>
        <time>2011-06-26T07:20:06Z</time>
      </trkpt>
      <trkpt lat="48.70271" lon="7.32592">
        <ele>519.6</ele>
        <time>2011-06-26T07:20:37Z</time>
      </trkpt>
      <trkpt lat="48.70272" lon="7.32591">
        <ele>519.5</ele>
        <time>2011-06-26T07:20:39Z</time>
      </trkpt>
      <trkpt lat="48.70273" lon="7.32591">
        <ele>519.8</ele>
        <time>2011-06-26T07:20:40Z</time>
      </trkpt>
      <trkpt lat="48.70273" lon="7.32592">
        <ele>519.8</ele>
        <time>2011-06-26T07:20:55Z</time>
      </trkpt>
      <trkpt lat="48.70272" lon="7.32588">
        <ele>519.6</ele>
        <time>2011-06-26T07:21:22Z</time>
      </trkpt>
      <trkpt lat="48.70272" lon="7.32588">
        <ele>520.3</ele>
        <time>2011-06-26T07:21:33Z</time>
      </trkpt>
      <trkpt lat="48.7027" lon="7.32592">
        <ele>521.2</ele>
        <time>2011-06-26T07:22:00Z</time>
      </trkpt>
      <trkpt lat="48.7027" lon="7.3259">
        <ele>518.8</ele>
        <time>2011-06-26T07:25:04Z</time>
      </trkpt>
      <trkpt lat="48.70268" lon="7.32592">
        <ele>519.4</ele>
        <time>2011-06-26T07:25:52Z</time>
      </trkpt>
      <trkpt lat="48.70268" lon="7.32595">
        <ele>519.4</ele>
        <time>2011-06-26T07:26:20Z</time>
      </trkpt>
      <trkpt lat="48.70268" lon="7.32597">
        <ele>519.4</ele>
        <time>2011-06-26T07:27:27Z</time>
      </trkpt>
      <trkpt lat="48.70269" lon="7.32596">
        <ele>519.5</ele>
        <time>2011-06-26T07:27:31Z</time>
      </trkpt>
      <trkpt lat="48.70269" lon="7.32596">
        <ele>519.5</ele>
        <time>2011-06-26T07:27:32Z</time>
      </trkpt>
      <trkpt lat="48.70269" lon="7.32594">
        <ele>519.4</ele>
        <time>2011-06-26T07:27:51Z</time>
      </trkpt>
      <trkpt lat="48.70272" lon="7.32595">
        <ele>520.3</ele>
        <time>2011-06-26T07:28:05Z</time>
      </trkpt>
      <trkpt lat="48.70272" lon="7.32598">
        <ele>520</ele>
        <time>2011-06-26T07:28:10Z</time>
      </trkpt>
      <trkpt lat="48.70272" lon="7.32599">
        <ele>519.9</ele>
        <time>2011-06-26T07:28:17Z</time>
      </trkpt>
      <trkpt lat="48.70278" lon="7.32601">
        <ele>518.1</ele>
        <time>2011-06-26T07:29:09Z</time>
      </trkpt>
      <trkpt lat="48.70279" lon="7.326">
        <ele>517.9</ele>
        <time>2011-06-26T07:29:15Z</time>
      </trkpt>
      <trkpt lat="48.70284" lon="7.32595">
        <ele>517.3</ele>
        <time>2011-06-26T07:29:19Z</time>
      </trkpt>
      <trkpt lat="48.70293" lon="7.32592">
        <ele>515.7</ele>
        <time>2011-06-26T07:29:23Z</time>
      </trkpt>
      <trkpt lat="48.70303" lon="7.32582">
        <ele>514.3</ele>
        <time>2011-06-26T07:29:27Z</time>
      </trkpt>
      <trkpt lat="48.70311" lon="7.32573">
        <ele>514.2</ele>
        <time>2011-06-26T07:29:32Z</time>
      </trkpt>
      <trkpt lat="48.70321" lon="7.32567">
        <ele>513.3</ele>
        <time>2011-06-26T07:29:35Z</time>
      </trkpt>
      <trkpt lat="48.7033" lon="7.32562">
        <ele>512.9</ele>
        <time>2011-06-26T07:29:38Z</time>
      </trkpt>
      <trkpt lat="48.70345" lon="7.32554">
        <ele>512.1</ele>
        <time>2011-06-26T07:29:43Z</time>
      </trkpt>
      <trkpt lat="48.7035" lon="7.32551">
        <ele>511.9</ele>
        <time>2011-06-26T07:29:45Z</time>
      </trkpt>
      <trkpt lat="48.70356" lon="7.32543">
        <ele>510.5</ele>
        <time>2011-06-26T07:29:50Z</time>
      </trkpt>
      <trkpt lat="48.70351" lon="7.32543">
        <ele>508.9</ele>
        <time>2011-06-26T07:29:54Z</time>
      </trkpt>
      <trkpt lat="48.70339" lon="7.32545">
        <ele>508.2</ele>
        <time>2011-06-26T07:29:58Z</time>
      </trkpt>
      <trkpt lat="48.70327" lon="7.32548">
        <ele>507.4</ele>
        <time>2011-06-26T07:30:03Z</time>
      </trkpt>
      <trkpt lat="48.70324" lon="7.32549">
        <ele>506.9</ele>
        <time>2011-06-26T07:30:05Z</time>
      </trkpt>
      <trkpt lat="48.70324" lon="7.32549">
        <ele>506.7</ele>
        <time>2011-06-26T07:30:06Z</time>
      </trkpt>
      <trkpt lat="48.70324" lon="7.3255">
        <ele>506.4</ele>
        <time>2011-06-26T07:30:07Z</time>
      </trkpt>
      <trkpt lat="48.70323" lon="7.3255">
        <ele>506.3</ele>
        <time>2011-06-26T07:30:08Z</time>
      </trkpt>
      <trkpt lat="48.70323" lon="7.3255">
        <ele>506.2</ele>
        <time>2011-06-26T07:30:09Z</time>
      </trkpt>
      <trkpt lat="48.70322" lon="7.32549">
        <ele>506.1</ele>
        <time>2011-06-26T07:30:12Z</time>
      </trkpt>
      <trkpt lat="48.70321" lon="7.3255">
        <ele>506</ele>
        <time>2011-06-26T07:30:14Z</time>
      </trkpt>
      <trkpt lat="48.7032" lon="7.32551">
        <ele>505.8</ele>
        <time>2011-06-26T07:30:16Z</time>
      </trkpt>
      <trkpt lat="48.70318" lon="7.32552">
        <ele>505.7</ele>
        <time>2011-06-26T07:30:18Z</time>
      </trkpt>
      <trkpt lat="48.70317" lon="7.32556">
        <ele>506.3</ele>
        <time>2011-06-26T07:30:23Z</time>
      </trkpt>
      <trkpt lat="48.70316" lon="7.32554">
        <ele>506.3</ele>
        <time>2011-06-26T07:30:28Z</time>
      </trkpt>
      <trkpt lat="48.7032" lon="7.3255">
        <ele>505.5</ele>
        <time>2011-06-26T07:30:35Z</time>
      </trkpt>
      <trkpt lat="48.70314" lon="7.3255">
        <ele>503.7</ele>
        <time>2011-06-26T07:30:44Z</time>
      </trkpt>
      <trkpt lat="48.70313" lon="7.3255">
        <ele>503.6</ele>
        <time>2011-06-26T07:30:45Z</time>
      </trkpt>
      <trkpt lat="48.70305" lon="7.32552">
        <ele>502.1</ele>
        <time>2011-06-26T07:30:51Z</time>
      </trkpt>
      <trkpt lat="48.70298" lon="7.32556">
        <ele>500.9</ele>
        <time>2011-06-26T07:30:56Z</time>
      </trkpt>
      <trkpt lat="48.7029" lon="7.32557">
        <ele>499.7</ele>
        <time>2011-06-26T07:31:01Z</time>
      </trkpt>
      <trkpt lat="48.70288" lon="7.32557">
        <ele>498.9</ele>
        <time>2011-06-26T07:31:03Z</time>
      </trkpt>
      <trkpt lat="48.70278" lon="7.32559">
        <ele>495.3</ele>
        <time>2011-06-26T07:31:09Z</time>
      </trkpt>
      <trkpt lat="48.70271" lon="7.32562">
        <ele>493.9</ele>
        <time>2011-06-26T07:31:11Z</time>
      </trkpt>
      <trkpt lat="48.70259" lon="7.32572">
        <ele>492.5</ele>
        <time>2011-06-26T07:31:15Z</time>
      </trkpt>
      <trkpt lat="48.70257" lon="7.32573">
        <ele>492.6</ele>
        <time>2011-06-26T07:31:16Z</time>
      </trkpt>
      <trkpt lat="48.70251" lon="7.32586">
        <ele>493.9</ele>
        <time>2011-06-26T07:31:21Z</time>
      </trkpt>
      <trkpt lat="48.70249" lon="7.32589">
        <ele>494.3</ele>
        <time>2011-06-26T07:31:22Z</time>
      </trkpt>
      <trkpt lat="48.70244" lon="7.32595">
        <ele>494.8</ele>
        <time>2011-06-26T07:31:25Z</time>
      </trkpt>
      <trkpt lat="48.70234" lon="7.32606">
        <ele>493.1</ele>
        <time>2011-06-26T07:31:30Z</time>
      </trkpt>
      <trkpt lat="48.70233" lon="7.32611">
        <ele>492.3</ele>
        <time>2011-06-26T07:31:32Z</time>
      </trkpt>
      <trkpt lat="48.70232" lon="7.32613">
        <ele>491.8</ele>
        <time>2011-06-26T07:31:33Z</time>
      </trkpt>
      <trkpt lat="48.70229" lon="7.32613">
        <ele>490.9</ele>
        <time>2011-06-26T07:31:35Z</time>
      </trkpt>
      <trkpt lat="48.7022" lon="7.32614">
        <ele>488.8</ele>
        <time>2011-06-26T07:31:40Z</time>
      </trkpt>
      <trkpt lat="48.70217" lon="7.32616">
        <ele>488.4</ele>
        <time>2011-06-26T07:31:41Z</time>
      </trkpt>
      <trkpt lat="48.70204" lon="7.3263">
        <ele>484.9</ele>
        <time>2011-06-26T07:31:45Z</time>
      </trkpt>
      <trkpt lat="48.70197" lon="7.32637">
        <ele>482.7</ele>
        <time>2011-06-26T07:31:49Z</time>
      </trkpt>
      <trkpt lat="48.70188" lon="7.32638">
        <ele>480.6</ele>
        <time>2011-06-26T07:31:54Z</time>
      </trkpt>
      <trkpt lat="48.70177" lon="7.32646">
        <ele>478.3</ele>
        <time>2011-06-26T07:31:58Z</time>
      </trkpt>
      <trkpt lat="48.70171" lon="7.32654">
        <ele>477.5</ele>
        <time>2011-06-26T07:32:00Z</time>
      </trkpt>
      <trkpt lat="48.70161" lon="7.3267">
        <ele>476.3</ele>
        <time>2011-06-26T07:32:03Z</time>
      </trkpt>
      <trkpt lat="48.70146" lon="7.3269">
        <ele>473.6</ele>
        <time>2011-06-26T07:32:08Z</time>
      </trkpt>
      <trkpt lat="48.70144" lon="7.32695">
        <ele>472.5</ele>
        <time>2011-06-26T07:32:10Z</time>
      </trkpt>
      <trkpt lat="48.70136" lon="7.32705">
        <ele>470.3</ele>
        <time>2011-06-26T07:32:14Z</time>
      </trkpt>
      <trkpt lat="48.70132" lon="7.32713">
        <ele>468.9</ele>
        <time>2011-06-26T07:32:17Z</time>
      </trkpt>
      <trkpt lat="48.70132" lon="7.32715">
        <ele>468.4</ele>
        <time>2011-06-26T07:32:18Z</time>
      </trkpt>
      <trkpt lat="48.70127" lon="7.3273">
        <ele>465.3</ele>
        <time>2011-06-26T07:32:23Z</time>
      </trkpt>
      <trkpt lat="48.70124" lon="7.3274">
        <ele>463.9</ele>
        <time>2011-06-26T07:32:26Z</time>
      </trkpt>
      <trkpt lat="48.70123" lon="7.32766">
        <ele>460.8</ele>
        <time>2011-06-26T07:32:31Z</time>
      </trkpt>
      <trkpt lat="48.70125" lon="7.32777">
        <ele>458.9</ele>
        <time>2011-06-26T07:32:34Z</time>
      </trkpt>
      <trkpt lat="48.70124" lon="7.32786">
        <ele>457</ele>
        <time>2011-06-26T07:32:39Z</time>
      </trkpt>
      <trkpt lat="48.70117" lon="7.32785">
        <ele>455.3</ele>
        <time>2011-06-26T07:32:43Z</time>
      </trkpt>
      <trkpt lat="48.70113" lon="7.32785">
        <ele>454.8</ele>
        <time>2011-06-26T07:32:44Z</time>
      </trkpt>
      <trkpt lat="48.70104" lon="7.32787">
        <ele>452.7</ele>
        <time>2011-06-26T07:32:47Z</time>
      </trkpt>
      <trkpt lat="48.70082" lon="7.32782">
        <ele>449.2</ele>
        <time>2011-06-26T07:32:52Z</time>
      </trkpt>
      <trkpt lat="48.70053" lon="7.32768">
        <ele>445</ele>
        <time>2011-06-26T07:32:58Z</time>
      </trkpt>
      <trkpt lat="48.7005" lon="7.32766">
        <ele>444.1</ele>
        <time>2011-06-26T07:32:59Z</time>
      </trkpt>
      <trkpt lat="48.70033" lon="7.32766">
        <ele>441.6</ele>
        <time>2011-06-26T07:33:03Z</time>
      </trkpt>
      <trkpt lat="48.69996" lon="7.32779">
        <ele>438</ele>
        <time>2011-06-26T07:33:09Z</time>
      </trkpt>
      <trkpt lat="48.69978" lon="7.32785">
        <ele>436.4</ele>
        <time>2011-06-26T07:33:12Z</time>
      </trkpt>
      <trkpt lat="48.69967" lon="7.32786">
        <ele>435.8</ele>
        <time>2011-06-26T07:33:14Z</time>
      </trkpt>
      <trkpt lat="48.69951" lon="7.32782">
        <ele>434.3</ele>
        <time>2011-06-26T07:33:17Z</time>
      </trkpt>
      <trkpt lat="48.69941" lon="7.32782">
        <ele>433.3</ele>
        <time>2011-06-26T07:33:19Z</time>
      </trkpt>
      <trkpt lat="48.69923" lon="7.32776">
        <ele>429.8</ele>
        <time>2011-06-26T07:33:24Z</time>
      </trkpt>
      <trkpt lat="48.69916" lon="7.32774">
        <ele>428.1</ele>
        <time>2011-06-26T07:33:26Z</time>
      </trkpt>
      <trkpt lat="48.69898" lon="7.32766">
        <ele>424.5</ele>
        <time>2011-06-26T07:33:30Z</time>
      </trkpt>
      <trkpt lat="48.69889" lon="7.3276">
        <ele>422.9</ele>
        <time>2011-06-26T07:33:32Z</time>
      </trkpt>
      <trkpt lat="48.69877" lon="7.32757">
        <ele>420.3</ele>
        <time>2011-06-26T07:33:35Z</time>
      </trkpt>
      <trkpt lat="48.69859" lon="7.32762">
        <ele>417.5</ele>
        <time>2011-06-26T07:33:40Z</time>
      </trkpt>
      <trkpt lat="48.69851" lon="7.32758">
        <ele>416.4</ele>
        <time>2011-06-26T07:33:42Z</time>
      </trkpt>
      <trkpt lat="48.69839" lon="7.32745">
        <ele>413.1</ele>
        <time>2011-06-26T07:33:47Z</time>
      </trkpt>
      <trkpt lat="48.69835" lon="7.3274">
        <ele>411.8</ele>
        <time>2011-06-26T07:33:50Z</time>
      </trkpt>
      <trkpt lat="48.6983" lon="7.32736">
        <ele>410.4</ele>
        <time>2011-06-26T07:33:53Z</time>
      </trkpt>
      <trkpt lat="48.69821" lon="7.32732">
        <ele>409.3</ele>
        <time>2011-06-26T07:33:56Z</time>
      </trkpt>
      <trkpt lat="48.69809" lon="7.32732">
        <ele>408</ele>
        <time>2011-06-26T07:33:59Z</time>
      </trkpt>
      <trkpt lat="48.69789" lon="7.32737">
        <ele>405.9</ele>
        <time>2011-06-26T07:34:04Z</time>
      </trkpt>
      <trkpt lat="48.69778" lon="7.32739">
        <ele>403.8</ele>
        <time>2011-06-26T07:34:08Z</time>
      </trkpt>
      <trkpt lat="48.69773" lon="7.3274">
        <ele>402.6</ele>
        <time>2011-06-26T07:34:10Z</time>
      </trkpt>
      <trkpt lat="48.69771" lon="7.3274">
        <ele>402.1</ele>
        <time>2011-06-26T07:34:11Z</time>
      </trkpt>
      <trkpt lat="48.6977" lon="7.32741">
        <ele>401.9</ele>
        <time>2011-06-26T07:34:12Z</time>
      </trkpt>
      <trkpt lat="48.69767" lon="7.32743">
        <ele>401</ele>
        <time>2011-06-26T07:34:14Z</time>
      </trkpt>
      <trkpt lat="48.69756" lon="7.32745">
        <ele>399.1</ele>
        <time>2011-06-26T07:34:19Z</time>
      </trkpt>
      <trkpt lat="48.69747" lon="7.32748">
        <ele>398.4</ele>
        <time>2011-06-26T07:34:21Z</time>
      </trkpt>
      <trkpt lat="48.6973" lon="7.32745">
        <ele>396.2</ele>
        <time>2011-06-26T07:34:25Z</time>
      </trkpt>
      <trkpt lat="48.69717" lon="7.32735">
        <ele>394.7</ele>
        <time>2011-06-26T07:34:28Z</time>
      </trkpt>
      <trkpt lat="48.69709" lon="7.32727">
        <ele>394.3</ele>
        <time>2011-06-26T07:34:30Z</time>
      </trkpt>
      <trkpt lat="48.69695" lon="7.32706">
        <ele>393.3</ele>
        <time>2011-06-26T07:34:35Z</time>
      </trkpt>
      <trkpt lat="48.69692" lon="7.32695">
        <ele>392.5</ele>
        <time>2011-06-26T07:34:37Z</time>
      </trkpt>
      <trkpt lat="48.69679" lon="7.3266">
        <ele>389.9</ele>
        <time>2011-06-26T07:34:42Z</time>
      </trkpt>
      <trkpt lat="48.69668" lon="7.32651">
        <ele>388.9</ele>
        <time>2011-06-26T07:34:44Z</time>
      </trkpt>
      <trkpt lat="48.69632" lon="7.32641">
        <ele>387.4</ele>
        <time>2011-06-26T07:34:50Z</time>
      </trkpt>
      <trkpt lat="48.696" lon="7.32648">
        <ele>387.4</ele>
        <time>2011-06-26T07:34:56Z</time>
      </trkpt>
      <trkpt lat="48.69578" lon="7.32652">
        <ele>387.8</ele>
        <time>2011-06-26T07:35:02Z</time>
      </trkpt>
      <trkpt lat="48.69549" lon="7.32658">
        <ele>388.2</ele>
        <time>2011-06-26T07:35:10Z</time>
      </trkpt>
      <trkpt lat="48.69545" lon="7.32658">
        <ele>388.3</ele>
        <time>2011-06-26T07:35:11Z</time>
      </trkpt>
      <trkpt lat="48.69529" lon="7.32645">
        <ele>388.9</ele>
        <time>2011-06-26T07:35:17Z</time>
      </trkpt>
      <trkpt lat="48.69518" lon="7.32643">
        <ele>389.5</ele>
        <time>2011-06-26T07:35:22Z</time>
      </trkpt>
      <trkpt lat="48.69511" lon="7.32636">
        <ele>390.2</ele>
        <time>2011-06-26T07:35:26Z</time>
      </trkpt>
      <trkpt lat="48.69496" lon="7.32629">
        <ele>391.3</ele>
        <time>2011-06-26T07:35:34Z</time>
      </trkpt>
      <trkpt lat="48.6949" lon="7.32628">
        <ele>391.6</ele>
        <time>2011-06-26T07:35:37Z</time>
      </trkpt>
      <trkpt lat="48.69478" lon="7.32619">
        <ele>392.2</ele>
        <time>2011-06-26T07:35:43Z</time>
      </trkpt>
      <trkpt lat="48.69471" lon="7.32615">
        <ele>392.7</ele>
        <time>2011-06-26T07:35:47Z</time>
      </trkpt>
      <trkpt lat="48.6947" lon="7.32613">
        <ele>392.9</ele>
        <time>2011-06-26T07:35:48Z</time>
      </trkpt>
      <trkpt lat="48.69467" lon="7.32612">
        <ele>393.2</ele>
        <time>2011-06-26T07:35:50Z</time>
      </trkpt>
      <trkpt lat="48.69465" lon="7.32611">
        <ele>393.3</ele>
        <time>2011-06-26T07:35:51Z</time>
      </trkpt>
      <trkpt lat="48.69461" lon="7.326">
        <ele>394.4</ele>
        <time>2011-06-26T07:35:56Z</time>
      </trkpt>
      <trkpt lat="48.69457" lon="7.32592">
        <ele>395.7</ele>
        <time>2011-06-26T07:36:00Z</time>
      </trkpt>
      <trkpt lat="48.69448" lon="7.32585">
        <ele>397.6</ele>
        <time>2011-06-26T07:36:08Z</time>
      </trkpt>
      <trkpt lat="48.6944" lon="7.32577">
        <ele>399</ele>
        <time>2011-06-26T07:36:15Z</time>
      </trkpt>
      <trkpt lat="48.69437" lon="7.32576">
        <ele>399.2</ele>
        <time>2011-06-26T07:36:17Z</time>
      </trkpt>
      <trkpt lat="48.69429" lon="7.32567">
        <ele>400.7</ele>
        <time>2011-06-26T07:36:24Z</time>
      </trkpt>
      <trkpt lat="48.6942" lon="7.32559">
        <ele>401.8</ele>
        <time>2011-06-26T07:36:31Z</time>
      </trkpt>
      <trkpt lat="48.69413" lon="7.32554">
        <ele>402.7</ele>
        <time>2011-06-26T07:36:36Z</time>
      </trkpt>
      <trkpt lat="48.69407" lon="7.32548">
        <ele>403.8</ele>
        <time>2011-06-26T07:36:43Z</time>
      </trkpt>
      <trkpt lat="48.69401" lon="7.32541">
        <ele>405.5</ele>
        <time>2011-06-26T07:36:49Z</time>
      </trkpt>
      <trkpt lat="48.69398" lon="7.32538">
        <ele>406.7</ele>
        <time>2011-06-26T07:36:54Z</time>
      </trkpt>
      <trkpt lat="48.69396" lon="7.32537">
        <ele>407.2</ele>
        <time>2011-06-26T07:37:01Z</time>
      </trkpt>
      <trkpt lat="48.6939" lon="7.32536">
        <ele>408.1</ele>
        <time>2011-06-26T07:37:08Z</time>
      </trkpt>
      <trkpt lat="48.69386" lon="7.32532">
        <ele>409.3</ele>
        <time>2011-06-26T07:37:16Z</time>
      </trkpt>
      <trkpt lat="48.69385" lon="7.32528">
        <ele>409.5</ele>
        <time>2011-06-26T07:37:29Z</time>
      </trkpt>
      <trkpt lat="48.69383" lon="7.32527">
        <ele>409.4</ele>
        <time>2011-06-26T07:37:37Z</time>
      </trkpt>
      <trkpt lat="48.69379" lon="7.32526">
        <ele>409.7</ele>
        <time>2011-06-26T07:37:43Z</time>
      </trkpt>
      <trkpt lat="48.69374" lon="7.32524">
        <ele>410.5</ele>
        <time>2011-06-26T07:37:47Z</time>
      </trkpt>
      <trkpt lat="48.69371" lon="7.3252">
        <ele>411.3</ele>
        <time>2011-06-26T07:37:51Z</time>
      </trkpt>
      <trkpt lat="48.69361" lon="7.32517">
        <ele>413.2</ele>
        <time>2011-06-26T07:38:00Z</time>
      </trkpt>
      <trkpt lat="48.69355" lon="7.32511">
        <ele>414.9</ele>
        <time>2011-06-26T07:38:07Z</time>
      </trkpt>
      <trkpt lat="48.69349" lon="7.32503">
        <ele>416.9</ele>
        <time>2011-06-26T07:38:13Z</time>
      </trkpt>
      <trkpt lat="48.69345" lon="7.32494">
        <ele>418.5</ele>
        <time>2011-06-26T07:38:19Z</time>
      </trkpt>
      <trkpt lat="48.69344" lon="7.32492">
        <ele>418.8</ele>
        <time>2011-06-26T07:38:20Z</time>
      </trkpt>
      <trkpt lat="48.69342" lon="7.32487">
        <ele>419.8</ele>
        <time>2011-06-26T07:38:23Z</time>
      </trkpt>
      <trkpt lat="48.69336" lon="7.32479">
        <ele>421.4</ele>
        <time>2011-06-26T07:38:28Z</time>
      </trkpt>
      <trkpt lat="48.69331" lon="7.32471">
        <ele>423.1</ele>
        <time>2011-06-26T07:38:33Z</time>
      </trkpt>
      <trkpt lat="48.69328" lon="7.32466">
        <ele>423.9</ele>
        <time>2011-06-26T07:38:37Z</time>
      </trkpt>
      <trkpt lat="48.69322" lon="7.32455">
        <ele>425.9</ele>
        <time>2011-06-26T07:38:45Z</time>
      </trkpt>
      <trkpt lat="48.69318" lon="7.32448">
        <ele>427.1</ele>
        <time>2011-06-26T07:38:51Z</time>
      </trkpt>
      <trkpt lat="48.69318" lon="7.32444">
        <ele>427.4</ele>
        <time>2011-06-26T07:38:53Z</time>
      </trkpt>
      <trkpt lat="48.69314" lon="7.32433">
        <ele>428.3</ele>
        <time>2011-06-26T07:39:01Z</time>
      </trkpt>
      <trkpt lat="48.69312" lon="7.32429">
        <ele>428.7</ele>
        <time>2011-06-26T07:39:04Z</time>
      </trkpt>
      <trkpt lat="48.69304" lon="7.32422">
        <ele>429.5</ele>
        <time>2011-06-26T07:39:12Z</time>
      </trkpt>
      <trkpt lat="48.69299" lon="7.32414">
        <ele>430.1</ele>
        <time>2011-06-26T07:39:18Z</time>
      </trkpt>
      <trkpt lat="48.69291" lon="7.32402">
        <ele>431.5</ele>
        <time>2011-06-26T07:39:27Z</time>
      </trkpt>
      <trkpt lat="48.69287" lon="7.32396">
        <ele>432.4</ele>
        <time>2011-06-26T07:39:33Z</time>
      </trkpt>
      <trkpt lat="48.69283" lon="7.32386">
        <ele>433</ele>
        <time>2011-06-26T07:39:38Z</time>
      </trkpt>
      <trkpt lat="48.69278" lon="7.32373">
        <ele>434.4</ele>
        <time>2011-06-26T07:39:45Z</time>
      </trkpt>
      <trkpt lat="48.69274" lon="7.32366">
        <ele>435</ele>
        <time>2011-06-26T07:39:50Z</time>
      </trkpt>
      <trkpt lat="48.69271" lon="7.3236">
        <ele>435.8</ele>
        <time>2011-06-26T07:39:55Z</time>
      </trkpt>
      <trkpt lat="48.69268" lon="7.32353">
        <ele>436.6</ele>
        <time>2011-06-26T07:39:59Z</time>
      </trkpt>
      <trkpt lat="48.69266" lon="7.32346">
        <ele>436.9</ele>
        <time>2011-06-26T07:40:03Z</time>
      </trkpt>
      <trkpt lat="48.69258" lon="7.32334">
        <ele>437.4</ele>
        <time>2011-06-26T07:40:11Z</time>
      </trkpt>
      <trkpt lat="48.6925" lon="7.32326">
        <ele>438.2</ele>
        <time>2011-06-26T07:40:18Z</time>
      </trkpt>
      <trkpt lat="48.69237" lon="7.32318">
        <ele>438.8</ele>
        <time>2011-06-26T07:40:27Z</time>
      </trkpt>
      <trkpt lat="48.69229" lon="7.32311">
        <ele>439</ele>
        <time>2011-06-26T07:40:34Z</time>
      </trkpt>
      <trkpt lat="48.6922" lon="7.32301">
        <ele>439.7</ele>
        <time>2011-06-26T07:40:41Z</time>
      </trkpt>
      <trkpt lat="48.69213" lon="7.32286">
        <ele>440.4</ele>
        <time>2011-06-26T07:40:48Z</time>
      </trkpt>
      <trkpt lat="48.69207" lon="7.32272">
        <ele>441.4</ele>
        <time>2011-06-26T07:40:55Z</time>
      </trkpt>
      <trkpt lat="48.69202" lon="7.3226">
        <ele>442</ele>
        <time>2011-06-26T07:41:02Z</time>
      </trkpt>
      <trkpt lat="48.69196" lon="7.32251">
        <ele>442.5</ele>
        <time>2011-06-26T07:41:08Z</time>
      </trkpt>
      <trkpt lat="48.69193" lon="7.32246">
        <ele>442.8</ele>
        <time>2011-06-26T07:41:11Z</time>
      </trkpt>
      <trkpt lat="48.69184" lon="7.32231">
        <ele>443.7</ele>
        <time>2011-06-26T07:41:20Z</time>
      </trkpt>
      <trkpt lat="48.69181" lon="7.32226">
        <ele>444.2</ele>
        <time>2011-06-26T07:41:23Z</time>
      </trkpt>
      <trkpt lat="48.69177" lon="7.32211">
        <ele>445.1</ele>
        <time>2011-06-26T07:41:29Z</time>
      </trkpt>
      <trkpt lat="48.69173" lon="7.32198">
        <ele>446.4</ele>
        <time>2011-06-26T07:41:36Z</time>
      </trkpt>
      <trkpt lat="48.6917" lon="7.3219">
        <ele>447.2</ele>
        <time>2011-06-26T07:41:40Z</time>
      </trkpt>
      <trkpt lat="48.69167" lon="7.32175">
        <ele>449.3</ele>
        <time>2011-06-26T07:41:47Z</time>
      </trkpt>
      <trkpt lat="48.69166" lon="7.32171">
        <ele>449.6</ele>
        <time>2011-06-26T07:41:49Z</time>
      </trkpt>
      <trkpt lat="48.69167" lon="7.32165">
        <ele>450.4</ele>
        <time>2011-06-26T07:41:52Z</time>
      </trkpt>
      <trkpt lat="48.69166" lon="7.32162">
        <ele>450.5</ele>
        <time>2011-06-26T07:41:53Z</time>
      </trkpt>
      <trkpt lat="48.69165" lon="7.32153">
        <ele>451.7</ele>
        <time>2011-06-26T07:41:57Z</time>
      </trkpt>
      <trkpt lat="48.69164" lon="7.32141">
        <ele>453.3</ele>
        <time>2011-06-26T07:42:02Z</time>
      </trkpt>
      <trkpt lat="48.69164" lon="7.32135">
        <ele>454.5</ele>
        <time>2011-06-26T07:42:05Z</time>
      </trkpt>
      <trkpt lat="48.69163" lon="7.32122">
        <ele>456.8</ele>
        <time>2011-06-26T07:42:12Z</time>
      </trkpt>
      <trkpt lat="48.69162" lon="7.32119">
        <ele>457.6</ele>
        <time>2011-06-26T07:42:14Z</time>
      </trkpt>
      <trkpt lat="48.69161" lon="7.32114">
        <ele>458.4</ele>
        <time>2011-06-26T07:42:17Z</time>
      </trkpt>
      <trkpt lat="48.69161" lon="7.32111">
        <ele>459</ele>
        <time>2011-06-26T07:42:19Z</time>
      </trkpt>
      <trkpt lat="48.69159" lon="7.32102">
        <ele>460.2</ele>
        <time>2011-06-26T07:42:26Z</time>
      </trkpt>
      <trkpt lat="48.69157" lon="7.32094">
        <ele>460.9</ele>
        <time>2011-06-26T07:42:32Z</time>
      </trkpt>
      <trkpt lat="48.69156" lon="7.32085">
        <ele>461.6</ele>
        <time>2011-06-26T07:42:37Z</time>
      </trkpt>
      <trkpt lat="48.69153" lon="7.32069">
        <ele>462.7</ele>
        <time>2011-06-26T07:42:44Z</time>
      </trkpt>
      <trkpt lat="48.69145" lon="7.32051">
        <ele>464</ele>
        <time>2011-06-26T07:42:52Z</time>
      </trkpt>
      <trkpt lat="48.69138" lon="7.32034">
        <ele>465.1</ele>
        <time>2011-06-26T07:43:01Z</time>
      </trkpt>
      <trkpt lat="48.69133" lon="7.32025">
        <ele>466.4</ele>
        <time>2011-06-26T07:43:07Z</time>
      </trkpt>
      <trkpt lat="48.69132" lon="7.32024">
        <ele>466.6</ele>
        <time>2011-06-26T07:43:08Z</time>
      </trkpt>
      <trkpt lat="48.69124" lon="7.32007">
        <ele>468.1</ele>
        <time>2011-06-26T07:43:17Z</time>
      </trkpt>
      <trkpt lat="48.69118" lon="7.32002">
        <ele>469.7</ele>
        <time>2011-06-26T07:43:21Z</time>
      </trkpt>
      <trkpt lat="48.69112" lon="7.32">
        <ele>471.6</ele>
        <time>2011-06-26T07:43:26Z</time>
      </trkpt>
      <trkpt lat="48.69107" lon="7.32">
        <ele>472.9</ele>
        <time>2011-06-26T07:43:31Z</time>
      </trkpt>
      <trkpt lat="48.69099" lon="7.31999">
        <ele>474.3</ele>
        <time>2011-06-26T07:43:37Z</time>
      </trkpt>
      <trkpt lat="48.69095" lon="7.31999">
        <ele>475.1</ele>
        <time>2011-06-26T07:43:41Z</time>
      </trkpt>
      <trkpt lat="48.69087" lon="7.32">
        <ele>476.4</ele>
        <time>2011-06-26T07:43:48Z</time>
      </trkpt>
      <trkpt lat="48.69083" lon="7.32">
        <ele>477.4</ele>
        <time>2011-06-26T07:43:54Z</time>
      </trkpt>
      <trkpt lat="48.69078" lon="7.31997">
        <ele>478.3</ele>
        <time>2011-06-26T07:44:03Z</time>
      </trkpt>
      <trkpt lat="48.69078" lon="7.32">
        <ele>478.4</ele>
        <time>2011-06-26T07:44:11Z</time>
      </trkpt>
      <trkpt lat="48.69077" lon="7.32">
        <ele>478.6</ele>
        <time>2011-06-26T07:44:15Z</time>
      </trkpt>
      <trkpt lat="48.69074" lon="7.31999">
        <ele>478.8</ele>
        <time>2011-06-26T07:44:17Z</time>
      </trkpt>
      <trkpt lat="48.69067" lon="7.31997">
        <ele>480.1</ele>
        <time>2011-06-26T07:44:24Z</time>
      </trkpt>
      <trkpt lat="48.69061" lon="7.31997">
        <ele>481</ele>
        <time>2011-06-26T07:44:29Z</time>
      </trkpt>
      <trkpt lat="48.69053" lon="7.31997">
        <ele>482.1</ele>
        <time>2011-06-26T07:44:35Z</time>
      </trkpt>
      <trkpt lat="48.69045" lon="7.31996">
        <ele>483.1</ele>
        <time>2011-06-26T07:44:41Z</time>
      </trkpt>
      <trkpt lat="48.69041" lon="7.31993">
        <ele>483.6</ele>
        <time>2011-06-26T07:44:44Z</time>
      </trkpt>
      <trkpt lat="48.69035" lon="7.31987">
        <ele>484.8</ele>
        <time>2011-06-26T07:44:51Z</time>
      </trkpt>
      <trkpt lat="48.69023" lon="7.31982">
        <ele>485.3</ele>
        <time>2011-06-26T07:44:58Z</time>
      </trkpt>
      <trkpt lat="48.69019" lon="7.31981">
        <ele>485.3</ele>
        <time>2011-06-26T07:45:00Z</time>
      </trkpt>
      <trkpt lat="48.69001" lon="7.31978">
        <ele>485.4</ele>
        <time>2011-06-26T07:45:08Z</time>
      </trkpt>
      <trkpt lat="48.68989" lon="7.31972">
        <ele>485.5</ele>
        <time>2011-06-26T07:45:13Z</time>
      </trkpt>
      <trkpt lat="48.68972" lon="7.31964">
        <ele>485.6</ele>
        <time>2011-06-26T07:45:19Z</time>
      </trkpt>
      <trkpt lat="48.68959" lon="7.31956">
        <ele>485.5</ele>
        <time>2011-06-26T07:45:24Z</time>
      </trkpt>
      <trkpt lat="48.68939" lon="7.31945">
        <ele>485.2</ele>
        <time>2011-06-26T07:45:31Z</time>
      </trkpt>
      <trkpt lat="48.68919" lon="7.3193">
        <ele>484.6</ele>
        <time>2011-06-26T07:45:38Z</time>
      </trkpt>
      <trkpt lat="48.68901" lon="7.31919">
        <ele>483.6</ele>
        <time>2011-06-26T07:45:44Z</time>
      </trkpt>
      <trkpt lat="48.68887" lon="7.31912">
        <ele>482.7</ele>
        <time>2011-06-26T07:45:48Z</time>
      </trkpt>
      <trkpt lat="48.68864" lon="7.31897">
        <ele>481.3</ele>
        <time>2011-06-26T07:45:54Z</time>
      </trkpt>
      <trkpt lat="48.68847" lon="7.31885">
        <ele>480.5</ele>
        <time>2011-06-26T07:45:58Z</time>
      </trkpt>
      <trkpt lat="48.68818" lon="7.31853">
        <ele>478.1</ele>
        <time>2011-06-26T07:46:04Z</time>
      </trkpt>
      <trkpt lat="48.68792" lon="7.31816">
        <ele>476</ele>
        <time>2011-06-26T07:46:09Z</time>
      </trkpt>
      <trkpt lat="48.68782" lon="7.318">
        <ele>475.2</ele>
        <time>2011-06-26T07:46:11Z</time>
      </trkpt>
      <trkpt lat="48.6875" lon="7.31747">
        <ele>473</ele>
        <time>2011-06-26T07:46:18Z</time>
      </trkpt>
      <trkpt lat="48.68714" lon="7.31684">
        <ele>470.4</ele>
        <time>2011-06-26T07:46:26Z</time>
      </trkpt>
      <trkpt lat="48.6869" lon="7.31641">
        <ele>468.4</ele>
        <time>2011-06-26T07:46:31Z</time>
      </trkpt>
      <trkpt lat="48.68679" lon="7.31627">
        <ele>467.7</ele>
        <time>2011-06-26T07:46:33Z</time>
      </trkpt>
      <trkpt lat="48.68668" lon="7.31614">
        <ele>466.9</ele>
        <time>2011-06-26T07:46:35Z</time>
      </trkpt>
      <trkpt lat="48.68658" lon="7.31603">
        <ele>466.4</ele>
        <time>2011-06-26T07:46:37Z</time>
      </trkpt>
      <trkpt lat="48.68636" lon="7.31583">
        <ele>464.9</ele>
        <time>2011-06-26T07:46:41Z</time>
      </trkpt>
      <trkpt lat="48.68626" lon="7.31575">
        <ele>464.2</ele>
        <time>2011-06-26T07:46:43Z</time>
      </trkpt>
      <trkpt lat="48.68607" lon="7.31568">
        <ele>463</ele>
        <time>2011-06-26T07:46:48Z</time>
      </trkpt>
      <trkpt lat="48.68602" lon="7.31566">
        <ele>462.9</ele>
        <time>2011-06-26T07:46:50Z</time>
      </trkpt>
      <trkpt lat="48.68581" lon="7.31557">
        <ele>463.6</ele>
        <time>2011-06-26T07:46:57Z</time>
      </trkpt>
      <trkpt lat="48.68562" lon="7.31546">
        <ele>463.9</ele>
        <time>2011-06-26T07:47:03Z</time>
      </trkpt>
      <trkpt lat="48.68551" lon="7.31543">
        <ele>464.7</ele>
        <time>2011-06-26T07:47:07Z</time>
      </trkpt>
      <trkpt lat="48.68534" lon="7.31536">
        <ele>465.5</ele>
        <time>2011-06-26T07:47:13Z</time>
      </trkpt>
      <trkpt lat="48.68513" lon="7.31528">
        <ele>466.8</ele>
        <time>2011-06-26T07:47:20Z</time>
      </trkpt>
      <trkpt lat="48.68496" lon="7.31521">
        <ele>467.4</ele>
        <time>2011-06-26T07:47:26Z</time>
      </trkpt>
      <trkpt lat="48.68475" lon="7.31522">
        <ele>468</ele>
        <time>2011-06-26T07:47:33Z</time>
      </trkpt>
      <trkpt lat="48.68461" lon="7.31514">
        <ele>468.4</ele>
        <time>2011-06-26T07:47:38Z</time>
      </trkpt>
      <trkpt lat="48.68452" lon="7.31506">
        <ele>468.9</ele>
        <time>2011-06-26T07:47:42Z</time>
      </trkpt>
      <trkpt lat="48.68438" lon="7.31496">
        <ele>469.8</ele>
        <time>2011-06-26T07:47:48Z</time>
      </trkpt>
      <trkpt lat="48.68427" lon="7.31492">
        <ele>470.3</ele>
        <time>2011-06-26T07:47:52Z</time>
      </trkpt>
      <trkpt lat="48.68414" lon="7.31481">
        <ele>470.7</ele>
        <time>2011-06-26T07:47:58Z</time>
      </trkpt>
      <trkpt lat="48.68406" lon="7.31473">
        <ele>471.4</ele>
        <time>2011-06-26T07:48:02Z</time>
      </trkpt>
      <trkpt lat="48.68395" lon="7.31464">
        <ele>472.3</ele>
        <time>2011-06-26T07:48:08Z</time>
      </trkpt>
      <trkpt lat="48.68385" lon="7.31456">
        <ele>473.2</ele>
        <time>2011-06-26T07:48:13Z</time>
      </trkpt>
      <trkpt lat="48.68378" lon="7.31447">
        <ele>473.5</ele>
        <time>2011-06-26T07:48:16Z</time>
      </trkpt>
      <trkpt lat="48.68368" lon="7.3144">
        <ele>474.2</ele>
        <time>2011-06-26T07:48:21Z</time>
      </trkpt>
      <trkpt lat="48.68357" lon="7.31427">
        <ele>474.9</ele>
        <time>2011-06-26T07:48:27Z</time>
      </trkpt>
      <trkpt lat="48.68345" lon="7.31414">
        <ele>475.5</ele>
        <time>2011-06-26T07:48:33Z</time>
      </trkpt>
      <trkpt lat="48.68332" lon="7.31403">
        <ele>475.9</ele>
        <time>2011-06-26T07:48:39Z</time>
      </trkpt>
      <trkpt lat="48.6832" lon="7.31393">
        <ele>475.9</ele>
        <time>2011-06-26T07:48:43Z</time>
      </trkpt>
      <trkpt lat="48.68307" lon="7.3138">
        <ele>476.1</ele>
        <time>2011-06-26T07:48:48Z</time>
      </trkpt>
      <trkpt lat="48.68293" lon="7.31369">
        <ele>476.1</ele>
        <time>2011-06-26T07:48:53Z</time>
      </trkpt>
      <trkpt lat="48.68278" lon="7.31354">
        <ele>475.7</ele>
        <time>2011-06-26T07:48:58Z</time>
      </trkpt>
      <trkpt lat="48.68274" lon="7.31351">
        <ele>475.5</ele>
        <time>2011-06-26T07:49:01Z</time>
      </trkpt>
      <trkpt lat="48.68274" lon="7.31351">
        <ele>475.5</ele>
        <time>2011-06-26T07:49:04Z</time>
      </trkpt>
      <trkpt lat="48.68278" lon="7.31354">
        <ele>475.4</ele>
        <time>2011-06-26T07:49:10Z</time>
      </trkpt>
      <trkpt lat="48.68286" lon="7.31363">
        <ele>475.7</ele>
        <time>2011-06-26T07:49:15Z</time>
      </trkpt>
      <trkpt lat="48.68298" lon="7.31373">
        <ele>476.2</ele>
        <time>2011-06-26T07:49:20Z</time>
      </trkpt>
      <trkpt lat="48.6831" lon="7.31385">
        <ele>476.1</ele>
        <time>2011-06-26T07:49:25Z</time>
      </trkpt>
      <trkpt lat="48.68319" lon="7.31393">
        <ele>475.9</ele>
        <time>2011-06-26T07:49:30Z</time>
      </trkpt>
      <trkpt lat="48.68328" lon="7.314">
        <ele>475.8</ele>
        <time>2011-06-26T07:49:37Z</time>
      </trkpt>
      <trkpt lat="48.6834" lon="7.31412">
        <ele>475.9</ele>
        <time>2011-06-26T07:49:42Z</time>
      </trkpt>
      <trkpt lat="48.68354" lon="7.31426">
        <ele>475.3</ele>
        <time>2011-06-26T07:49:47Z</time>
      </trkpt>
      <trkpt lat="48.68358" lon="7.31433">
        <ele>475</ele>
        <time>2011-06-26T07:49:49Z</time>
      </trkpt>
      <trkpt lat="48.68366" lon="7.3144">
        <ele>474.5</ele>
        <time>2011-06-26T07:49:53Z</time>
      </trkpt>
      <trkpt lat="48.68371" lon="7.31442">
        <ele>474.1</ele>
        <time>2011-06-26T07:49:55Z</time>
      </trkpt>
      <trkpt lat="48.68394" lon="7.31463">
        <ele>472.9</ele>
        <time>2011-06-26T07:50:02Z</time>
      </trkpt>
      <trkpt lat="48.68407" lon="7.31477">
        <ele>471.6</ele>
        <time>2011-06-26T07:50:07Z</time>
      </trkpt>
      <trkpt lat="48.68404" lon="7.31497">
        <ele>469.9</ele>
        <time>2011-06-26T07:50:12Z</time>
      </trkpt>
      <trkpt lat="48.68398" lon="7.31501">
        <ele>468.6</ele>
        <time>2011-06-26T07:50:15Z</time>
      </trkpt>
      <trkpt lat="48.68395" lon="7.31499">
        <ele>468.4</ele>
        <time>2011-06-26T07:50:16Z</time>
      </trkpt>
      <trkpt lat="48.68379" lon="7.31488">
        <ele>468.8</ele>
        <time>2011-06-26T07:50:22Z</time>
      </trkpt>
      <trkpt lat="48.68358" lon="7.31471">
        <ele>469.4</ele>
        <time>2011-06-26T07:50:29Z</time>
      </trkpt>
      <trkpt lat="48.68332" lon="7.31451">
        <ele>469.9</ele>
        <time>2011-06-26T07:50:36Z</time>
      </trkpt>
      <trkpt lat="48.68307" lon="7.31431">
        <ele>470.4</ele>
        <time>2011-06-26T07:50:42Z</time>
      </trkpt>
      <trkpt lat="48.68271" lon="7.314">
        <ele>470.7</ele>
        <time>2011-06-26T07:50:51Z</time>
      </trkpt>
      <trkpt lat="48.68237" lon="7.31367">
        <ele>470.5</ele>
        <time>2011-06-26T07:50:59Z</time>
      </trkpt>
      <trkpt lat="48.68216" lon="7.31334">
        <ele>470.7</ele>
        <time>2011-06-26T07:51:05Z</time>
      </trkpt>
      <trkpt lat="48.68187" lon="7.31271">
        <ele>471</ele>
        <time>2011-06-26T07:51:15Z</time>
      </trkpt>
      <trkpt lat="48.6816" lon="7.31215">
        <ele>471.8</ele>
        <time>2011-06-26T07:51:25Z</time>
      </trkpt>
      <trkpt lat="48.68142" lon="7.31176">
        <ele>472.4</ele>
        <time>2011-06-26T07:51:32Z</time>
      </trkpt>
      <trkpt lat="48.68119" lon="7.31165">
        <ele>473</ele>
        <time>2011-06-26T07:51:37Z</time>
      </trkpt>
      <trkpt lat="48.68106" lon="7.31164">
        <ele>473.7</ele>
        <time>2011-06-26T07:51:40Z</time>
      </trkpt>
      <trkpt lat="48.68084" lon="7.3117">
        <ele>475.2</ele>
        <time>2011-06-26T07:51:46Z</time>
      </trkpt>
      <trkpt lat="48.68077" lon="7.31172">
        <ele>475.6</ele>
        <time>2011-06-26T07:51:48Z</time>
      </trkpt>
      <trkpt lat="48.68064" lon="7.31166">
        <ele>476.6</ele>
        <time>2011-06-26T07:51:53Z</time>
      </trkpt>
      <trkpt lat="48.68051" lon="7.31155">
        <ele>477.9</ele>
        <time>2011-06-26T07:51:59Z</time>
      </trkpt>
      <trkpt lat="48.68041" lon="7.31138">
        <ele>478.9</ele>
        <time>2011-06-26T07:52:05Z</time>
      </trkpt>
      <trkpt lat="48.68035" lon="7.31126">
        <ele>479.8</ele>
        <time>2011-06-26T07:52:09Z</time>
      </trkpt>
      <trkpt lat="48.68032" lon="7.31122">
        <ele>480.2</ele>
        <time>2011-06-26T07:52:11Z</time>
      </trkpt>
      <trkpt lat="48.68021" lon="7.31113">
        <ele>481.5</ele>
        <time>2011-06-26T07:52:17Z</time>
      </trkpt>
      <trkpt lat="48.68013" lon="7.31105">
        <ele>482.4</ele>
        <time>2011-06-26T07:52:22Z</time>
      </trkpt>
      <trkpt lat="48.68002" lon="7.31098">
        <ele>483.6</ele>
        <time>2011-06-26T07:52:28Z</time>
      </trkpt>
      <trkpt lat="48.67991" lon="7.31088">
        <ele>484.5</ele>
        <time>2011-06-26T07:52:34Z</time>
      </trkpt>
      <trkpt lat="48.67978" lon="7.31068">
        <ele>486.1</ele>
        <time>2011-06-26T07:52:42Z</time>
      </trkpt>
      <trkpt lat="48.67973" lon="7.3105">
        <ele>487.3</ele>
        <time>2011-06-26T07:52:48Z</time>
      </trkpt>
      <trkpt lat="48.67969" lon="7.3103">
        <ele>488.3</ele>
        <time>2011-06-26T07:52:54Z</time>
      </trkpt>
      <trkpt lat="48.67966" lon="7.31006">
        <ele>489.6</ele>
        <time>2011-06-26T07:53:01Z</time>
      </trkpt>
      <trkpt lat="48.67968" lon="7.30979">
        <ele>491.1</ele>
        <time>2011-06-26T07:53:09Z</time>
      </trkpt>
      <trkpt lat="48.67972" lon="7.30957">
        <ele>492.5</ele>
        <time>2011-06-26T07:53:16Z</time>
      </trkpt>
      <trkpt lat="48.67978" lon="7.30926">
        <ele>494.4</ele>
        <time>2011-06-26T07:53:25Z</time>
      </trkpt>
      <trkpt lat="48.67982" lon="7.30899">
        <ele>495.9</ele>
        <time>2011-06-26T07:53:33Z</time>
      </trkpt>
      <trkpt lat="48.67983" lon="7.30873">
        <ele>497</ele>
        <time>2011-06-26T07:53:41Z</time>
      </trkpt>
      <trkpt lat="48.67982" lon="7.30852">
        <ele>498.2</ele>
        <time>2011-06-26T07:53:48Z</time>
      </trkpt>
      <trkpt lat="48.67979" lon="7.30831">
        <ele>499.4</ele>
        <time>2011-06-26T07:53:55Z</time>
      </trkpt>
      <trkpt lat="48.67975" lon="7.30817">
        <ele>500.4</ele>
        <time>2011-06-26T07:54:01Z</time>
      </trkpt>
      <trkpt lat="48.67969" lon="7.30796">
        <ele>501.6</ele>
        <time>2011-06-26T07:54:07Z</time>
      </trkpt>
      <trkpt lat="48.67966" lon="7.30777">
        <ele>502.8</ele>
        <time>2011-06-26T07:54:13Z</time>
      </trkpt>
      <trkpt lat="48.67961" lon="7.30762">
        <ele>503.9</ele>
        <time>2011-06-26T07:54:19Z</time>
      </trkpt>
      <trkpt lat="48.67954" lon="7.3074">
        <ele>505.3</ele>
        <time>2011-06-26T07:54:26Z</time>
      </trkpt>
      <trkpt lat="48.6795" lon="7.3072">
        <ele>506.4</ele>
        <time>2011-06-26T07:54:33Z</time>
      </trkpt>
      <trkpt lat="48.67945" lon="7.30702">
        <ele>507.9</ele>
        <time>2011-06-26T07:54:40Z</time>
      </trkpt>
      <trkpt lat="48.6794" lon="7.30676">
        <ele>509.4</ele>
        <time>2011-06-26T07:54:48Z</time>
      </trkpt>
      <trkpt lat="48.67939" lon="7.30673">
        <ele>509.5</ele>
        <time>2011-06-26T07:54:49Z</time>
      </trkpt>
      <trkpt lat="48.67936" lon="7.3066">
        <ele>510.3</ele>
        <time>2011-06-26T07:54:53Z</time>
      </trkpt>
      <trkpt lat="48.67928" lon="7.30629">
        <ele>512.1</ele>
        <time>2011-06-26T07:55:03Z</time>
      </trkpt>
      <trkpt lat="48.67922" lon="7.30609">
        <ele>513.5</ele>
        <time>2011-06-26T07:55:10Z</time>
      </trkpt>
      <trkpt lat="48.67914" lon="7.30587">
        <ele>514.7</ele>
        <time>2011-06-26T07:55:18Z</time>
      </trkpt>
      <trkpt lat="48.67907" lon="7.30566">
        <ele>515.7</ele>
        <time>2011-06-26T07:55:25Z</time>
      </trkpt>
      <trkpt lat="48.67897" lon="7.30536">
        <ele>517.4</ele>
        <time>2011-06-26T07:55:35Z</time>
      </trkpt>
      <trkpt lat="48.67891" lon="7.30519">
        <ele>518.9</ele>
        <time>2011-06-26T07:55:42Z</time>
      </trkpt>
      <trkpt lat="48.67882" lon="7.30491">
        <ele>520.4</ele>
        <time>2011-06-26T07:55:52Z</time>
      </trkpt>
      <trkpt lat="48.67874" lon="7.3047">
        <ele>521.4</ele>
        <time>2011-06-26T07:56:00Z</time>
      </trkpt>
      <trkpt lat="48.67863" lon="7.30446">
        <ele>522.8</ele>
        <time>2011-06-26T07:56:09Z</time>
      </trkpt>
      <trkpt lat="48.67853" lon="7.30428">
        <ele>524.2</ele>
        <time>2011-06-26T07:56:17Z</time>
      </trkpt>
      <trkpt lat="48.67839" lon="7.30405">
        <ele>525.5</ele>
        <time>2011-06-26T07:56:27Z</time>
      </trkpt>
      <trkpt lat="48.6783" lon="7.30392">
        <ele>526.9</ele>
        <time>2011-06-26T07:56:34Z</time>
      </trkpt>
      <trkpt lat="48.67817" lon="7.30375">
        <ele>528.5</ele>
        <time>2011-06-26T07:56:43Z</time>
      </trkpt>
      <trkpt lat="48.67803" lon="7.3036">
        <ele>529.8</ele>
        <time>2011-06-26T07:56:52Z</time>
      </trkpt>
      <trkpt lat="48.67791" lon="7.30348">
        <ele>530.9</ele>
        <time>2011-06-26T07:56:59Z</time>
      </trkpt>
      <trkpt lat="48.67781" lon="7.30337">
        <ele>532</ele>
        <time>2011-06-26T07:57:06Z</time>
      </trkpt>
      <trkpt lat="48.67769" lon="7.30327">
        <ele>532.9</ele>
        <time>2011-06-26T07:57:13Z</time>
      </trkpt>
      <trkpt lat="48.67758" lon="7.30316">
        <ele>534</ele>
        <time>2011-06-26T07:57:20Z</time>
      </trkpt>
      <trkpt lat="48.67742" lon="7.30303">
        <ele>535.5</ele>
        <time>2011-06-26T07:57:29Z</time>
      </trkpt>
      <trkpt lat="48.67727" lon="7.30291">
        <ele>536.5</ele>
        <time>2011-06-26T07:57:37Z</time>
      </trkpt>
      <trkpt lat="48.67711" lon="7.30278">
        <ele>537.9</ele>
        <time>2011-06-26T07:57:46Z</time>
      </trkpt>
      <trkpt lat="48.67699" lon="7.30262">
        <ele>539.4</ele>
        <time>2011-06-26T07:57:54Z</time>
      </trkpt>
      <trkpt lat="48.67692" lon="7.30251">
        <ele>540.4</ele>
        <time>2011-06-26T07:57:59Z</time>
      </trkpt>
      <trkpt lat="48.67682" lon="7.30231">
        <ele>541.7</ele>
        <time>2011-06-26T07:58:07Z</time>
      </trkpt>
      <trkpt lat="48.67672" lon="7.30215">
        <ele>542.4</ele>
        <time>2011-06-26T07:58:14Z</time>
      </trkpt>
      <trkpt lat="48.6767" lon="7.30212">
        <ele>542.5</ele>
        <time>2011-06-26T07:58:15Z</time>
      </trkpt>
      <trkpt lat="48.67654" lon="7.30188">
        <ele>543.4</ele>
        <time>2011-06-26T07:58:24Z</time>
      </trkpt>
      <trkpt lat="48.67639" lon="7.30163">
        <ele>544.3</ele>
        <time>2011-06-26T07:58:33Z</time>
      </trkpt>
      <trkpt lat="48.67629" lon="7.30139">
        <ele>545</ele>
        <time>2011-06-26T07:58:40Z</time>
      </trkpt>
      <trkpt lat="48.6762" lon="7.30111">
        <ele>546.2</ele>
        <time>2011-06-26T07:58:48Z</time>
      </trkpt>
      <trkpt lat="48.67607" lon="7.30076">
        <ele>547.6</ele>
        <time>2011-06-26T07:58:58Z</time>
      </trkpt>
      <trkpt lat="48.67594" lon="7.30042">
        <ele>549</ele>
        <time>2011-06-26T07:59:08Z</time>
      </trkpt>
      <trkpt lat="48.67582" lon="7.30018">
        <ele>549.9</ele>
        <time>2011-06-26T07:59:15Z</time>
      </trkpt>
      <trkpt lat="48.67567" lon="7.29991">
        <ele>551.2</ele>
        <time>2011-06-26T07:59:24Z</time>
      </trkpt>
      <trkpt lat="48.67555" lon="7.29971">
        <ele>552.4</ele>
        <time>2011-06-26T07:59:31Z</time>
      </trkpt>
      <trkpt lat="48.67544" lon="7.29956">
        <ele>553.6</ele>
        <time>2011-06-26T07:59:37Z</time>
      </trkpt>
      <trkpt lat="48.6753" lon="7.29936">
        <ele>554.5</ele>
        <time>2011-06-26T07:59:44Z</time>
      </trkpt>
      <trkpt lat="48.67518" lon="7.29917">
        <ele>555.4</ele>
        <time>2011-06-26T07:59:50Z</time>
      </trkpt>
      <trkpt lat="48.67502" lon="7.29892">
        <ele>556.2</ele>
        <time>2011-06-26T07:59:58Z</time>
      </trkpt>
      <trkpt lat="48.67489" lon="7.29867">
        <ele>557.5</ele>
        <time>2011-06-26T08:00:06Z</time>
      </trkpt>
      <trkpt lat="48.67479" lon="7.29842">
        <ele>558.7</ele>
        <time>2011-06-26T08:00:13Z</time>
      </trkpt>
      <trkpt lat="48.67469" lon="7.29815">
        <ele>560.4</ele>
        <time>2011-06-26T08:00:21Z</time>
      </trkpt>
      <trkpt lat="48.67462" lon="7.29795">
        <ele>561.3</ele>
        <time>2011-06-26T08:00:27Z</time>
      </trkpt>
      <trkpt lat="48.67455" lon="7.29768">
        <ele>562.5</ele>
        <time>2011-06-26T08:00:35Z</time>
      </trkpt>
      <trkpt lat="48.67446" lon="7.29743">
        <ele>563.5</ele>
        <time>2011-06-26T08:00:43Z</time>
      </trkpt>
      <trkpt lat="48.67437" lon="7.29725">
        <ele>565</ele>
        <time>2011-06-26T08:00:50Z</time>
      </trkpt>
      <trkpt lat="48.67434" lon="7.29714">
        <ele>565.4</ele>
        <time>2011-06-26T08:00:54Z</time>
      </trkpt>
      <trkpt lat="48.67432" lon="7.29701">
        <ele>565.8</ele>
        <time>2011-06-26T08:00:59Z</time>
      </trkpt>
      <trkpt lat="48.6743" lon="7.29682">
        <ele>567.1</ele>
        <time>2011-06-26T08:01:05Z</time>
      </trkpt>
      <trkpt lat="48.67429" lon="7.2967">
        <ele>568.2</ele>
        <time>2011-06-26T08:01:11Z</time>
      </trkpt>
      <trkpt lat="48.67429" lon="7.29668">
        <ele>568.5</ele>
        <time>2011-06-26T08:01:12Z</time>
      </trkpt>
      <trkpt lat="48.67429" lon="7.29665">
        <ele>569</ele>
        <time>2011-06-26T08:01:14Z</time>
      </trkpt>
      <trkpt lat="48.67432" lon="7.29652">
        <ele>570.3</ele>
        <time>2011-06-26T08:01:21Z</time>
      </trkpt>
      <trkpt lat="48.67433" lon="7.29642">
        <ele>570.9</ele>
        <time>2011-06-26T08:01:25Z</time>
      </trkpt>
      <trkpt lat="48.67436" lon="7.29633">
        <ele>571.7</ele>
        <time>2011-06-26T08:01:30Z</time>
      </trkpt>
      <trkpt lat="48.67438" lon="7.29625">
        <ele>572.3</ele>
        <time>2011-06-26T08:01:34Z</time>
      </trkpt>
      <trkpt lat="48.67443" lon="7.29608">
        <ele>573.5</ele>
        <time>2011-06-26T08:01:43Z</time>
      </trkpt>
      <trkpt lat="48.67445" lon="7.29601">
        <ele>573.7</ele>
        <time>2011-06-26T08:01:46Z</time>
      </trkpt>
      <trkpt lat="48.67447" lon="7.29588">
        <ele>574.2</ele>
        <time>2011-06-26T08:01:51Z</time>
      </trkpt>
      <trkpt lat="48.6745" lon="7.29584">
        <ele>574.5</ele>
        <time>2011-06-26T08:01:53Z</time>
      </trkpt>
      <trkpt lat="48.67453" lon="7.29565">
        <ele>575.5</ele>
        <time>2011-06-26T08:02:01Z</time>
      </trkpt>
      <trkpt lat="48.67456" lon="7.29554">
        <ele>576.3</ele>
        <time>2011-06-26T08:02:08Z</time>
      </trkpt>
      <trkpt lat="48.67458" lon="7.29551">
        <ele>576.4</ele>
        <time>2011-06-26T08:02:13Z</time>
      </trkpt>
      <trkpt lat="48.67459" lon="7.29547">
        <ele>576.3</ele>
        <time>2011-06-26T08:02:18Z</time>
      </trkpt>
      <trkpt lat="48.67458" lon="7.29539">
        <ele>577.1</ele>
        <time>2011-06-26T08:02:25Z</time>
      </trkpt>
      <trkpt lat="48.67459" lon="7.29539">
        <ele>577.3</ele>
        <time>2011-06-26T08:02:33Z</time>
      </trkpt>
      <trkpt lat="48.67461" lon="7.29532">
        <ele>577.7</ele>
        <time>2011-06-26T08:02:37Z</time>
      </trkpt>
      <trkpt lat="48.67466" lon="7.29519">
        <ele>578.6</ele>
        <time>2011-06-26T08:02:44Z</time>
      </trkpt>
      <trkpt lat="48.67471" lon="7.29501">
        <ele>580.5</ele>
        <time>2011-06-26T08:02:52Z</time>
      </trkpt>
      <trkpt lat="48.67471" lon="7.29499">
        <ele>580.7</ele>
        <time>2011-06-26T08:02:53Z</time>
      </trkpt>
      <trkpt lat="48.67471" lon="7.29486">
        <ele>582.6</ele>
        <time>2011-06-26T08:02:58Z</time>
      </trkpt>
      <trkpt lat="48.67471" lon="7.29482">
        <ele>583.6</ele>
        <time>2011-06-26T08:03:00Z</time>
      </trkpt>
      <trkpt lat="48.67472" lon="7.29477">
        <ele>584.4</ele>
        <time>2011-06-26T08:03:02Z</time>
      </trkpt>
      <trkpt lat="48.67472" lon="7.29472">
        <ele>585.2</ele>
        <time>2011-06-26T08:03:04Z</time>
      </trkpt>
      <trkpt lat="48.6747" lon="7.29463">
        <ele>587</ele>
        <time>2011-06-26T08:03:09Z</time>
      </trkpt>
      <trkpt lat="48.67468" lon="7.29465">
        <ele>587.6</ele>
        <time>2011-06-26T08:03:12Z</time>
      </trkpt>
      <trkpt lat="48.67467" lon="7.29466">
        <ele>587.9</ele>
        <time>2011-06-26T08:03:14Z</time>
      </trkpt>
      <trkpt lat="48.67463" lon="7.29467">
        <ele>588.8</ele>
        <time>2011-06-26T08:03:21Z</time>
      </trkpt>
      <trkpt lat="48.6746" lon="7.29468">
        <ele>589.5</ele>
        <time>2011-06-26T08:03:25Z</time>
      </trkpt>
      <trkpt lat="48.67456" lon="7.2947">
        <ele>591.2</ele>
        <time>2011-06-26T08:03:32Z</time>
      </trkpt>
      <trkpt lat="48.67451" lon="7.29472">
        <ele>592.8</ele>
        <time>2011-06-26T08:03:40Z</time>
      </trkpt>
      <trkpt lat="48.67447" lon="7.29473">
        <ele>594</ele>
        <time>2011-06-26T08:03:45Z</time>
      </trkpt>
      <trkpt lat="48.67444" lon="7.29479">
        <ele>595.2</ele>
        <time>2011-06-26T08:03:53Z</time>
      </trkpt>
      <trkpt lat="48.6744" lon="7.29482">
        <ele>596.4</ele>
        <time>2011-06-26T08:04:02Z</time>
      </trkpt>
      <trkpt lat="48.6744" lon="7.29478">
        <ele>597.8</ele>
        <time>2011-06-26T08:04:09Z</time>
      </trkpt>
      <trkpt lat="48.67442" lon="7.29472">
        <ele>599.3</ele>
        <time>2011-06-26T08:04:16Z</time>
      </trkpt>
      <trkpt lat="48.67442" lon="7.29466">
        <ele>600.2</ele>
        <time>2011-06-26T08:04:22Z</time>
      </trkpt>
      <trkpt lat="48.67443" lon="7.29457">
        <ele>600.9</ele>
        <time>2011-06-26T08:04:29Z</time>
      </trkpt>
      <trkpt lat="48.67439" lon="7.29453">
        <ele>602.7</ele>
        <time>2011-06-26T08:04:36Z</time>
      </trkpt>
      <trkpt lat="48.67433" lon="7.2945">
        <ele>604.6</ele>
        <time>2011-06-26T08:04:44Z</time>
      </trkpt>
      <trkpt lat="48.67426" lon="7.29447">
        <ele>606.1</ele>
        <time>2011-06-26T08:04:53Z</time>
      </trkpt>
      <trkpt lat="48.6742" lon="7.29449">
        <ele>606.4</ele>
        <time>2011-06-26T08:05:00Z</time>
      </trkpt>
      <trkpt lat="48.67408" lon="7.29443">
        <ele>607.2</ele>
        <time>2011-06-26T08:05:08Z</time>
      </trkpt>
      <trkpt lat="48.674" lon="7.29436">
        <ele>608.1</ele>
        <time>2011-06-26T08:05:15Z</time>
      </trkpt>
      <trkpt lat="48.67393" lon="7.29422">
        <ele>608.7</ele>
        <time>2011-06-26T08:05:21Z</time>
      </trkpt>
      <trkpt lat="48.67387" lon="7.29409">
        <ele>608.2</ele>
        <time>2011-06-26T08:05:25Z</time>
      </trkpt>
      <trkpt lat="48.67377" lon="7.29398">
        <ele>608.2</ele>
        <time>2011-06-26T08:05:30Z</time>
      </trkpt>
      <trkpt lat="48.67365" lon="7.29397">
        <ele>608.7</ele>
        <time>2011-06-26T08:05:35Z</time>
      </trkpt>
      <trkpt lat="48.67351" lon="7.29396">
        <ele>609.2</ele>
        <time>2011-06-26T08:05:40Z</time>
      </trkpt>
      <trkpt lat="48.67348" lon="7.29395">
        <ele>609.4</ele>
        <time>2011-06-26T08:05:41Z</time>
      </trkpt>
      <trkpt lat="48.67335" lon="7.2937">
        <ele>609</ele>
        <time>2011-06-26T08:05:48Z</time>
      </trkpt>
      <trkpt lat="48.67333" lon="7.29365">
        <ele>608.7</ele>
        <time>2011-06-26T08:05:49Z</time>
      </trkpt>
      <trkpt lat="48.67321" lon="7.29353">
        <ele>608.1</ele>
        <time>2011-06-26T08:05:53Z</time>
      </trkpt>
      <trkpt lat="48.67303" lon="7.29339">
        <ele>609.9</ele>
        <time>2011-06-26T08:06:00Z</time>
      </trkpt>
      <trkpt lat="48.67288" lon="7.29324">
        <ele>610.1</ele>
        <time>2011-06-26T08:06:06Z</time>
      </trkpt>
      <trkpt lat="48.67274" lon="7.29313">
        <ele>610.2</ele>
        <time>2011-06-26T08:06:11Z</time>
      </trkpt>
      <trkpt lat="48.6726" lon="7.29298">
        <ele>610.7</ele>
        <time>2011-06-26T08:06:17Z</time>
      </trkpt>
      <trkpt lat="48.67249" lon="7.2929">
        <ele>611.1</ele>
        <time>2011-06-26T08:06:21Z</time>
      </trkpt>
      <trkpt lat="48.67236" lon="7.29271">
        <ele>611.3</ele>
        <time>2011-06-26T08:06:27Z</time>
      </trkpt>
      <trkpt lat="48.67219" lon="7.29256">
        <ele>611.7</ele>
        <time>2011-06-26T08:06:34Z</time>
      </trkpt>
      <trkpt lat="48.67206" lon="7.29239">
        <ele>612.1</ele>
        <time>2011-06-26T08:06:40Z</time>
      </trkpt>
      <trkpt lat="48.67193" lon="7.29216">
        <ele>612.6</ele>
        <time>2011-06-26T08:06:47Z</time>
      </trkpt>
      <trkpt lat="48.6718" lon="7.29189">
        <ele>613.1</ele>
        <time>2011-06-26T08:06:55Z</time>
      </trkpt>
      <trkpt lat="48.67173" lon="7.29175">
        <ele>613.7</ele>
        <time>2011-06-26T08:07:00Z</time>
      </trkpt>
      <trkpt lat="48.67166" lon="7.29169">
        <ele>614.7</ele>
        <time>2011-06-26T08:07:06Z</time>
      </trkpt>
      <trkpt lat="48.67166" lon="7.29168">
        <ele>615.2</ele>
        <time>2011-06-26T08:07:14Z</time>
      </trkpt>
      <trkpt lat="48.67167" lon="7.29168">
        <ele>613.9</ele>
        <time>2011-06-26T08:07:19Z</time>
      </trkpt>
      <trkpt lat="48.67164" lon="7.29167">
        <ele>614.7</ele>
        <time>2011-06-26T08:07:31Z</time>
      </trkpt>
      <trkpt lat="48.67164" lon="7.29167">
        <ele>614.7</ele>
        <time>2011-06-26T08:07:39Z</time>
      </trkpt>
      <trkpt lat="48.67165" lon="7.29169">
        <ele>614.9</ele>
        <time>2011-06-26T08:07:48Z</time>
      </trkpt>
      <trkpt lat="48.67163" lon="7.29168">
        <ele>614.8</ele>
        <time>2011-06-26T08:08:08Z</time>
      </trkpt>
      <trkpt lat="48.67166" lon="7.29171">
        <ele>614.8</ele>
        <time>2011-06-26T08:08:23Z</time>
      </trkpt>
      <trkpt lat="48.67169" lon="7.29175">
        <ele>614.9</ele>
        <time>2011-06-26T08:08:31Z</time>
      </trkpt>
      <trkpt lat="48.67167" lon="7.29176">
        <ele>614.5</ele>
        <time>2011-06-26T08:08:55Z</time>
      </trkpt>
      <trkpt lat="48.67166" lon="7.29169">
        <ele>614.3</ele>
        <time>2011-06-26T08:09:15Z</time>
      </trkpt>
      <trkpt lat="48.67167" lon="7.29166">
        <ele>614.1</ele>
        <time>2011-06-26T08:10:00Z</time>
      </trkpt>
      <trkpt lat="48.67163" lon="7.29168">
        <ele>614.1</ele>
        <time>2011-06-26T08:11:18Z</time>
      </trkpt>
      <trkpt lat="48.67165" lon="7.29171">
        <ele>613.8</ele>
        <time>2011-06-26T08:11:32Z</time>
      </trkpt>
      <trkpt lat="48.67163" lon="7.29168">
        <ele>613.9</ele>
        <time>2011-06-26T08:11:45Z</time>
      </trkpt>
      <trkpt lat="48.67167" lon="7.29169">
        <ele>613.7</ele>
        <time>2011-06-26T08:11:56Z</time>
      </trkpt>
      <trkpt lat="48.67168" lon="7.29169">
        <ele>613.8</ele>
        <time>2011-06-26T08:12:02Z</time>
      </trkpt>
      <trkpt lat="48.67169" lon="7.2917">
        <ele>613.7</ele>
        <time>2011-06-26T08:12:20Z</time>
      </trkpt>
      <trkpt lat="48.67165" lon="7.29168">
        <ele>613.7</ele>
        <time>2011-06-26T08:12:33Z</time>
      </trkpt>
      <trkpt lat="48.67167" lon="7.2917">
        <ele>614</ele>
        <time>2011-06-26T08:14:55Z</time>
      </trkpt>
      <trkpt lat="48.67167" lon="7.29169">
        <ele>614</ele>
        <time>2011-06-26T08:15:37Z</time>
      </trkpt>
      <trkpt lat="48.67165" lon="7.29172">
        <ele>613.8</ele>
        <time>2011-06-26T08:17:45Z</time>
      </trkpt>
      <trkpt lat="48.67165" lon="7.29172">
        <ele>613.9</ele>
        <time>2011-06-26T08:17:49Z</time>
      </trkpt>
      <trkpt lat="48.67165" lon="7.29172">
        <ele>613.9</ele>
        <time>2011-06-26T08:18:04Z</time>
      </trkpt>
      <trkpt lat="48.67165" lon="7.29172">
        <ele>613.9</ele>
        <time>2011-06-26T08:18:12Z</time>
      </trkpt>
      <trkpt lat="48.67166" lon="7.29172">
        <ele>614</ele>
        <time>2011-06-26T08:18:16Z</time>
      </trkpt>
      <trkpt lat="48.67167" lon="7.29173">
        <ele>613.9</ele>
        <time>2011-06-26T08:18:18Z</time>
      </trkpt>
      <trkpt lat="48.67172" lon="7.29176">
        <ele>613.4</ele>
        <time>2011-06-26T08:18:22Z</time>
      </trkpt>
      <trkpt lat="48.67177" lon="7.29185">
        <ele>613</ele>
        <time>2011-06-26T08:18:25Z</time>
      </trkpt>
      <trkpt lat="48.67181" lon="7.29192">
        <ele>612.6</ele>
        <time>2011-06-26T08:18:27Z</time>
      </trkpt>
      <trkpt lat="48.67184" lon="7.29196">
        <ele>612.4</ele>
        <time>2011-06-26T08:18:28Z</time>
      </trkpt>
      <trkpt lat="48.67193" lon="7.29212">
        <ele>612.1</ele>
        <time>2011-06-26T08:18:33Z</time>
      </trkpt>
      <trkpt lat="48.67202" lon="7.29228">
        <ele>611.6</ele>
        <time>2011-06-26T08:18:39Z</time>
      </trkpt>
      <trkpt lat="48.67199" lon="7.2924">
        <ele>611.4</ele>
        <time>2011-06-26T08:18:43Z</time>
      </trkpt>
      <trkpt lat="48.6719" lon="7.29251">
        <ele>608.5</ele>
        <time>2011-06-26T08:18:49Z</time>
      </trkpt>
      <trkpt lat="48.67186" lon="7.29251">
        <ele>606.7</ele>
        <time>2011-06-26T08:18:52Z</time>
      </trkpt>
      <trkpt lat="48.67184" lon="7.29249">
        <ele>606.2</ele>
        <time>2011-06-26T08:18:53Z</time>
      </trkpt>
      <trkpt lat="48.67177" lon="7.29229">
        <ele>603.7</ele>
        <time>2011-06-26T08:18:59Z</time>
      </trkpt>
      <trkpt lat="48.67173" lon="7.29224">
        <ele>603.1</ele>
        <time>2011-06-26T08:19:01Z</time>
      </trkpt>
      <trkpt lat="48.67168" lon="7.29229">
        <ele>601.3</ele>
        <time>2011-06-26T08:19:05Z</time>
      </trkpt>
      <trkpt lat="48.6717" lon="7.29246">
        <ele>599.5</ele>
        <time>2011-06-26T08:19:08Z</time>
      </trkpt>
      <trkpt lat="48.6717" lon="7.29252">
        <ele>599.2</ele>
        <time>2011-06-26T08:19:09Z</time>
      </trkpt>
      <trkpt lat="48.6717" lon="7.29265">
        <ele>597.3</ele>
        <time>2011-06-26T08:19:13Z</time>
      </trkpt>
      <trkpt lat="48.67171" lon="7.29267">
        <ele>597.1</ele>
        <time>2011-06-26T08:19:14Z</time>
      </trkpt>
      <trkpt lat="48.67168" lon="7.29268">
        <ele>595.9</ele>
        <time>2011-06-26T08:19:18Z</time>
      </trkpt>
      <trkpt lat="48.67164" lon="7.29261">
        <ele>595.3</ele>
        <time>2011-06-26T08:19:21Z</time>
      </trkpt>
      <trkpt lat="48.67155" lon="7.29245">
        <ele>593.7</ele>
        <time>2011-06-26T08:19:26Z</time>
      </trkpt>
      <trkpt lat="48.67146" lon="7.29228">
        <ele>592.1</ele>
        <time>2011-06-26T08:19:31Z</time>
      </trkpt>
      <trkpt lat="48.67141" lon="7.29221">
        <ele>590.9</ele>
        <time>2011-06-26T08:19:33Z</time>
      </trkpt>
      <trkpt lat="48.67125" lon="7.29196">
        <ele>586.3</ele>
        <time>2011-06-26T08:19:39Z</time>
      </trkpt>
      <trkpt lat="48.6712" lon="7.2919">
        <ele>585.3</ele>
        <time>2011-06-26T08:19:41Z</time>
      </trkpt>
      <trkpt lat="48.67117" lon="7.29182">
        <ele>583.9</ele>
        <time>2011-06-26T08:19:43Z</time>
      </trkpt>
      <trkpt lat="48.67109" lon="7.29155">
        <ele>580</ele>
        <time>2011-06-26T08:19:48Z</time>
      </trkpt>
      <trkpt lat="48.67113" lon="7.2912">
        <ele>577.2</ele>
        <time>2011-06-26T08:19:53Z</time>
      </trkpt>
      <trkpt lat="48.67114" lon="7.29117">
        <ele>577.1</ele>
        <time>2011-06-26T08:19:54Z</time>
      </trkpt>
      <trkpt lat="48.6711" lon="7.29102">
        <ele>575.1</ele>
        <time>2011-06-26T08:19:58Z</time>
      </trkpt>
      <trkpt lat="48.671" lon="7.29104">
        <ele>572.1</ele>
        <time>2011-06-26T08:20:02Z</time>
      </trkpt>
      <trkpt lat="48.6709" lon="7.29117">
        <ele>570.6</ele>
        <time>2011-06-26T08:20:06Z</time>
      </trkpt>
      <trkpt lat="48.67086" lon="7.29123">
        <ele>569.9</ele>
        <time>2011-06-26T08:20:08Z</time>
      </trkpt>
      <trkpt lat="48.67083" lon="7.29128">
        <ele>568.7</ele>
        <time>2011-06-26T08:20:10Z</time>
      </trkpt>
      <trkpt lat="48.67081" lon="7.29132">
        <ele>567.7</ele>
        <time>2011-06-26T08:20:12Z</time>
      </trkpt>
      <trkpt lat="48.67069" lon="7.29127">
        <ele>563.8</ele>
        <time>2011-06-26T08:20:17Z</time>
      </trkpt>
      <trkpt lat="48.67059" lon="7.29108">
        <ele>560.5</ele>
        <time>2011-06-26T08:20:21Z</time>
      </trkpt>
      <trkpt lat="48.67054" lon="7.29084">
        <ele>558.2</ele>
        <time>2011-06-26T08:20:25Z</time>
      </trkpt>
      <trkpt lat="48.67052" lon="7.29068">
        <ele>556.3</ele>
        <time>2011-06-26T08:20:29Z</time>
      </trkpt>
      <trkpt lat="48.67054" lon="7.29054">
        <ele>554.6</ele>
        <time>2011-06-26T08:20:33Z</time>
      </trkpt>
      <trkpt lat="48.67057" lon="7.29034">
        <ele>552.8</ele>
        <time>2011-06-26T08:20:37Z</time>
      </trkpt>
      <trkpt lat="48.67061" lon="7.29013">
        <ele>550.8</ele>
        <time>2011-06-26T08:20:41Z</time>
      </trkpt>
      <trkpt lat="48.67063" lon="7.29008">
        <ele>550.6</ele>
        <time>2011-06-26T08:20:42Z</time>
      </trkpt>
      <trkpt lat="48.67067" lon="7.28994">
        <ele>549.3</ele>
        <time>2011-06-26T08:20:45Z</time>
      </trkpt>
      <trkpt lat="48.67066" lon="7.28989">
        <ele>548.5</ele>
        <time>2011-06-26T08:20:47Z</time>
      </trkpt>
      <trkpt lat="48.67059" lon="7.28989">
        <ele>546.6</ele>
        <time>2011-06-26T08:20:50Z</time>
      </trkpt>
      <trkpt lat="48.67042" lon="7.28997">
        <ele>542.4</ele>
        <time>2011-06-26T08:20:56Z</time>
      </trkpt>
      <trkpt lat="48.67035" lon="7.28999">
        <ele>541</ele>
        <time>2011-06-26T08:20:58Z</time>
      </trkpt>
      <trkpt lat="48.67025" lon="7.28995">
        <ele>538.2</ele>
        <time>2011-06-26T08:21:02Z</time>
      </trkpt>
      <trkpt lat="48.67015" lon="7.28981">
        <ele>535</ele>
        <time>2011-06-26T08:21:07Z</time>
      </trkpt>
      <trkpt lat="48.67007" lon="7.28978">
        <ele>533.1</ele>
        <time>2011-06-26T08:21:10Z</time>
      </trkpt>
      <trkpt lat="48.67001" lon="7.28978">
        <ele>531.5</ele>
        <time>2011-06-26T08:21:12Z</time>
      </trkpt>
      <trkpt lat="48.66998" lon="7.28977">
        <ele>531.1</ele>
        <time>2011-06-26T08:21:13Z</time>
      </trkpt>
      <trkpt lat="48.66993" lon="7.28973">
        <ele>529.4</ele>
        <time>2011-06-26T08:21:15Z</time>
      </trkpt>
      <trkpt lat="48.66991" lon="7.2897">
        <ele>528.5</ele>
        <time>2011-06-26T08:21:16Z</time>
      </trkpt>
      <trkpt lat="48.66985" lon="7.28962">
        <ele>526.3</ele>
        <time>2011-06-26T08:21:19Z</time>
      </trkpt>
      <trkpt lat="48.6698" lon="7.28958">
        <ele>523.4</ele>
        <time>2011-06-26T08:21:23Z</time>
      </trkpt>
      <trkpt lat="48.66972" lon="7.28954">
        <ele>521.2</ele>
        <time>2011-06-26T08:21:27Z</time>
      </trkpt>
      <trkpt lat="48.66962" lon="7.28942">
        <ele>518.5</ele>
        <time>2011-06-26T08:21:32Z</time>
      </trkpt>
      <trkpt lat="48.66955" lon="7.28932">
        <ele>516.4</ele>
        <time>2011-06-26T08:21:35Z</time>
      </trkpt>
      <trkpt lat="48.66936" lon="7.28915">
        <ele>514.3</ele>
        <time>2011-06-26T08:21:40Z</time>
      </trkpt>
      <trkpt lat="48.66917" lon="7.28894">
        <ele>512.1</ele>
        <time>2011-06-26T08:21:44Z</time>
      </trkpt>
      <trkpt lat="48.66903" lon="7.28877">
        <ele>511.1</ele>
        <time>2011-06-26T08:21:47Z</time>
      </trkpt>
      <trkpt lat="48.66886" lon="7.28841">
        <ele>510.5</ele>
        <time>2011-06-26T08:21:53Z</time>
      </trkpt>
      <trkpt lat="48.6688" lon="7.2882">
        <ele>510.8</ele>
        <time>2011-06-26T08:21:58Z</time>
      </trkpt>
      <trkpt lat="48.66869" lon="7.28798">
        <ele>511.6</ele>
        <time>2011-06-26T08:22:04Z</time>
      </trkpt>
      <trkpt lat="48.66866" lon="7.28793">
        <ele>511.9</ele>
        <time>2011-06-26T08:22:06Z</time>
      </trkpt>
      <trkpt lat="48.66854" lon="7.28782">
        <ele>513.4</ele>
        <time>2011-06-26T08:22:12Z</time>
      </trkpt>
      <trkpt lat="48.66852" lon="7.28777">
        <ele>513.9</ele>
        <time>2011-06-26T08:22:14Z</time>
      </trkpt>
      <trkpt lat="48.66844" lon="7.28757">
        <ele>515.3</ele>
        <time>2011-06-26T08:22:21Z</time>
      </trkpt>
      <trkpt lat="48.66838" lon="7.28738">
        <ele>517.6</ele>
        <time>2011-06-26T08:22:28Z</time>
      </trkpt>
      <trkpt lat="48.66832" lon="7.28719">
        <ele>519.8</ele>
        <time>2011-06-26T08:22:36Z</time>
      </trkpt>
      <trkpt lat="48.66829" lon="7.28699">
        <ele>520.9</ele>
        <time>2011-06-26T08:22:43Z</time>
      </trkpt>
      <trkpt lat="48.66824" lon="7.28684">
        <ele>521.4</ele>
        <time>2011-06-26T08:22:48Z</time>
      </trkpt>
      <trkpt lat="48.66824" lon="7.28682">
        <ele>521.6</ele>
        <time>2011-06-26T08:22:49Z</time>
      </trkpt>
      <trkpt lat="48.66823" lon="7.28665">
        <ele>521.3</ele>
        <time>2011-06-26T08:22:55Z</time>
      </trkpt>
      <trkpt lat="48.66819" lon="7.28653">
        <ele>521.3</ele>
        <time>2011-06-26T08:22:59Z</time>
      </trkpt>
      <trkpt lat="48.66814" lon="7.28638">
        <ele>522.1</ele>
        <time>2011-06-26T08:23:05Z</time>
      </trkpt>
      <trkpt lat="48.66808" lon="7.28619">
        <ele>522.8</ele>
        <time>2011-06-26T08:23:11Z</time>
      </trkpt>
      <trkpt lat="48.66804" lon="7.28602">
        <ele>523.4</ele>
        <time>2011-06-26T08:23:17Z</time>
      </trkpt>
      <trkpt lat="48.66803" lon="7.28583">
        <ele>523.7</ele>
        <time>2011-06-26T08:23:22Z</time>
      </trkpt>
      <trkpt lat="48.668" lon="7.28567">
        <ele>524.3</ele>
        <time>2011-06-26T08:23:27Z</time>
      </trkpt>
      <trkpt lat="48.66798" lon="7.2856">
        <ele>524.8</ele>
        <time>2011-06-26T08:23:29Z</time>
      </trkpt>
      <trkpt lat="48.66793" lon="7.28548">
        <ele>526</ele>
        <time>2011-06-26T08:23:34Z</time>
      </trkpt>
      <trkpt lat="48.66788" lon="7.28532">
        <ele>526.9</ele>
        <time>2011-06-26T08:23:40Z</time>
      </trkpt>
      <trkpt lat="48.66783" lon="7.28513">
        <ele>527.7</ele>
        <time>2011-06-26T08:23:48Z</time>
      </trkpt>
      <trkpt lat="48.66774" lon="7.28495">
        <ele>528.5</ele>
        <time>2011-06-26T08:23:55Z</time>
      </trkpt>
      <trkpt lat="48.66765" lon="7.28476">
        <ele>529.2</ele>
        <time>2011-06-26T08:24:02Z</time>
      </trkpt>
      <trkpt lat="48.66755" lon="7.2846">
        <ele>529.6</ele>
        <time>2011-06-26T08:24:08Z</time>
      </trkpt>
      <trkpt lat="48.66745" lon="7.28446">
        <ele>530</ele>
        <time>2011-06-26T08:24:14Z</time>
      </trkpt>
      <trkpt lat="48.66736" lon="7.28439">
        <ele>530.4</ele>
        <time>2011-06-26T08:24:19Z</time>
      </trkpt>
      <trkpt lat="48.66734" lon="7.28439">
        <ele>530.7</ele>
        <time>2011-06-26T08:24:24Z</time>
      </trkpt>
      <trkpt lat="48.66731" lon="7.28437">
        <ele>530.8</ele>
        <time>2011-06-26T08:24:28Z</time>
      </trkpt>
      <trkpt lat="48.66723" lon="7.28437">
        <ele>531.2</ele>
        <time>2011-06-26T08:24:33Z</time>
      </trkpt>
      <trkpt lat="48.66719" lon="7.28435">
        <ele>531.6</ele>
        <time>2011-06-26T08:24:35Z</time>
      </trkpt>
      <trkpt lat="48.66706" lon="7.28428">
        <ele>532.3</ele>
        <time>2011-06-26T08:24:42Z</time>
      </trkpt>
      <trkpt lat="48.66695" lon="7.28423">
        <ele>532.8</ele>
        <time>2011-06-26T08:24:47Z</time>
      </trkpt>
      <trkpt lat="48.66684" lon="7.28416">
        <ele>533.2</ele>
        <time>2011-06-26T08:24:52Z</time>
      </trkpt>
      <trkpt lat="48.66672" lon="7.2841">
        <ele>533.9</ele>
        <time>2011-06-26T08:24:58Z</time>
      </trkpt>
      <trkpt lat="48.66657" lon="7.28405">
        <ele>534.4</ele>
        <time>2011-06-26T08:25:04Z</time>
      </trkpt>
      <trkpt lat="48.66648" lon="7.28402">
        <ele>534.6</ele>
        <time>2011-06-26T08:25:08Z</time>
      </trkpt>
      <trkpt lat="48.66643" lon="7.284">
        <ele>534.8</ele>
        <time>2011-06-26T08:25:10Z</time>
      </trkpt>
      <trkpt lat="48.66628" lon="7.28395">
        <ele>535.7</ele>
        <time>2011-06-26T08:25:17Z</time>
      </trkpt>
      <trkpt lat="48.66623" lon="7.28391">
        <ele>535.8</ele>
        <time>2011-06-26T08:25:19Z</time>
      </trkpt>
      <trkpt lat="48.66607" lon="7.28384">
        <ele>536.4</ele>
        <time>2011-06-26T08:25:26Z</time>
      </trkpt>
      <trkpt lat="48.66592" lon="7.28378">
        <ele>536.9</ele>
        <time>2011-06-26T08:25:32Z</time>
      </trkpt>
      <trkpt lat="48.66579" lon="7.28372">
        <ele>537.3</ele>
        <time>2011-06-26T08:25:37Z</time>
      </trkpt>
      <trkpt lat="48.66567" lon="7.28367">
        <ele>537.6</ele>
        <time>2011-06-26T08:25:42Z</time>
      </trkpt>
      <trkpt lat="48.66563" lon="7.28364">
        <ele>537.7</ele>
        <time>2011-06-26T08:25:46Z</time>
      </trkpt>
      <trkpt lat="48.66559" lon="7.28363">
        <ele>537.9</ele>
        <time>2011-06-26T08:25:51Z</time>
      </trkpt>
      <trkpt lat="48.66557" lon="7.28362">
        <ele>537.8</ele>
        <time>2011-06-26T08:26:06Z</time>
      </trkpt>
      <trkpt lat="48.66549" lon="7.28358">
        <ele>538.2</ele>
        <time>2011-06-26T08:26:11Z</time>
      </trkpt>
      <trkpt lat="48.66533" lon="7.2835">
        <ele>539</ele>
        <time>2011-06-26T08:26:18Z</time>
      </trkpt>
      <trkpt lat="48.6652" lon="7.28342">
        <ele>539.5</ele>
        <time>2011-06-26T08:26:23Z</time>
      </trkpt>
      <trkpt lat="48.66504" lon="7.28335">
        <ele>539.9</ele>
        <time>2011-06-26T08:26:29Z</time>
      </trkpt>
      <trkpt lat="48.6649" lon="7.28328">
        <ele>540.4</ele>
        <time>2011-06-26T08:26:34Z</time>
      </trkpt>
      <trkpt lat="48.66474" lon="7.28321">
        <ele>541.4</ele>
        <time>2011-06-26T08:26:40Z</time>
      </trkpt>
      <trkpt lat="48.66458" lon="7.28308">
        <ele>542.6</ele>
        <time>2011-06-26T08:26:47Z</time>
      </trkpt>
      <trkpt lat="48.66445" lon="7.28297">
        <ele>543.6</ele>
        <time>2011-06-26T08:26:53Z</time>
      </trkpt>
      <trkpt lat="48.66433" lon="7.28282">
        <ele>544.2</ele>
        <time>2011-06-26T08:26:59Z</time>
      </trkpt>
      <trkpt lat="48.66422" lon="7.28263">
        <ele>545.4</ele>
        <time>2011-06-26T08:27:06Z</time>
      </trkpt>
      <trkpt lat="48.66418" lon="7.28255">
        <ele>546.1</ele>
        <time>2011-06-26T08:27:09Z</time>
      </trkpt>
      <trkpt lat="48.66413" lon="7.28247">
        <ele>547.3</ele>
        <time>2011-06-26T08:27:15Z</time>
      </trkpt>
      <trkpt lat="48.6641" lon="7.28241">
        <ele>547.8</ele>
        <time>2011-06-26T08:27:20Z</time>
      </trkpt>
      <trkpt lat="48.66409" lon="7.28235">
        <ele>548.4</ele>
        <time>2011-06-26T08:27:27Z</time>
      </trkpt>
      <trkpt lat="48.66406" lon="7.28227">
        <ele>549</ele>
        <time>2011-06-26T08:27:32Z</time>
      </trkpt>
      <trkpt lat="48.664" lon="7.28209">
        <ele>550.3</ele>
        <time>2011-06-26T08:27:39Z</time>
      </trkpt>
      <trkpt lat="48.66393" lon="7.28192">
        <ele>551.1</ele>
        <time>2011-06-26T08:27:45Z</time>
      </trkpt>
      <trkpt lat="48.66388" lon="7.28181">
        <ele>551.5</ele>
        <time>2011-06-26T08:27:49Z</time>
      </trkpt>
      <trkpt lat="48.66383" lon="7.28175">
        <ele>552</ele>
        <time>2011-06-26T08:27:52Z</time>
      </trkpt>
      <trkpt lat="48.66374" lon="7.2816">
        <ele>553.1</ele>
        <time>2011-06-26T08:27:59Z</time>
      </trkpt>
      <trkpt lat="48.66369" lon="7.28151">
        <ele>553.4</ele>
        <time>2011-06-26T08:28:03Z</time>
      </trkpt>
      <trkpt lat="48.66359" lon="7.28135">
        <ele>554.1</ele>
        <time>2011-06-26T08:28:10Z</time>
      </trkpt>
      <trkpt lat="48.66356" lon="7.28132">
        <ele>554.3</ele>
        <time>2011-06-26T08:28:15Z</time>
      </trkpt>
      <trkpt lat="48.6635" lon="7.28128">
        <ele>554.6</ele>
        <time>2011-06-26T08:28:21Z</time>
      </trkpt>
      <trkpt lat="48.66345" lon="7.2812">
        <ele>555.1</ele>
        <time>2011-06-26T08:28:28Z</time>
      </trkpt>
      <trkpt lat="48.66339" lon="7.28116">
        <ele>555.6</ele>
        <time>2011-06-26T08:28:34Z</time>
      </trkpt>
      <trkpt lat="48.66331" lon="7.2811">
        <ele>555.6</ele>
        <time>2011-06-26T08:28:43Z</time>
      </trkpt>
      <trkpt lat="48.66326" lon="7.28106">
        <ele>556.2</ele>
        <time>2011-06-26T08:28:49Z</time>
      </trkpt>
      <trkpt lat="48.66325" lon="7.28106">
        <ele>556.2</ele>
        <time>2011-06-26T08:28:50Z</time>
      </trkpt>
      <trkpt lat="48.66318" lon="7.28102">
        <ele>556.3</ele>
        <time>2011-06-26T08:28:58Z</time>
      </trkpt>
      <trkpt lat="48.66306" lon="7.28099">
        <ele>556.5</ele>
        <time>2011-06-26T08:29:04Z</time>
      </trkpt>
      <trkpt lat="48.66293" lon="7.28095">
        <ele>556.8</ele>
        <time>2011-06-26T08:29:10Z</time>
      </trkpt>
      <trkpt lat="48.66277" lon="7.28093">
        <ele>557</ele>
        <time>2011-06-26T08:29:16Z</time>
      </trkpt>
      <trkpt lat="48.66265" lon="7.28095">
        <ele>557.2</ele>
        <time>2011-06-26T08:29:20Z</time>
      </trkpt>
      <trkpt lat="48.66245" lon="7.28099">
        <ele>557.7</ele>
        <time>2011-06-26T08:29:26Z</time>
      </trkpt>
      <trkpt lat="48.66236" lon="7.28103">
        <ele>557.9</ele>
        <time>2011-06-26T08:29:29Z</time>
      </trkpt>
      <trkpt lat="48.66217" lon="7.28109">
        <ele>558</ele>
        <time>2011-06-26T08:29:35Z</time>
      </trkpt>
      <trkpt lat="48.66204" lon="7.28112">
        <ele>558.4</ele>
        <time>2011-06-26T08:29:40Z</time>
      </trkpt>
      <trkpt lat="48.66187" lon="7.28113">
        <ele>558.8</ele>
        <time>2011-06-26T08:29:46Z</time>
      </trkpt>
      <trkpt lat="48.66169" lon="7.28117">
        <ele>559.1</ele>
        <time>2011-06-26T08:29:51Z</time>
      </trkpt>
      <trkpt lat="48.66149" lon="7.28122">
        <ele>559.7</ele>
        <time>2011-06-26T08:29:57Z</time>
      </trkpt>
      <trkpt lat="48.66137" lon="7.28125">
        <ele>559.9</ele>
        <time>2011-06-26T08:30:01Z</time>
      </trkpt>
      <trkpt lat="48.66124" lon="7.2813">
        <ele>560.2</ele>
        <time>2011-06-26T08:30:05Z</time>
      </trkpt>
      <trkpt lat="48.66107" lon="7.28135">
        <ele>560.6</ele>
        <time>2011-06-26T08:30:11Z</time>
      </trkpt>
      <trkpt lat="48.66095" lon="7.28139">
        <ele>560.8</ele>
        <time>2011-06-26T08:30:16Z</time>
      </trkpt>
      <trkpt lat="48.66085" lon="7.28139">
        <ele>561</ele>
        <time>2011-06-26T08:30:21Z</time>
      </trkpt>
      <trkpt lat="48.66075" lon="7.28145">
        <ele>562</ele>
        <time>2011-06-26T08:30:27Z</time>
      </trkpt>
      <trkpt lat="48.66074" lon="7.28146">
        <ele>562.1</ele>
        <time>2011-06-26T08:30:28Z</time>
      </trkpt>
      <trkpt lat="48.66066" lon="7.28148">
        <ele>563.2</ele>
        <time>2011-06-26T08:30:33Z</time>
      </trkpt>
      <trkpt lat="48.66061" lon="7.2815">
        <ele>563.7</ele>
        <time>2011-06-26T08:30:36Z</time>
      </trkpt>
      <trkpt lat="48.66052" lon="7.28152">
        <ele>564.6</ele>
        <time>2011-06-26T08:30:41Z</time>
      </trkpt>
      <trkpt lat="48.66051" lon="7.28152">
        <ele>564.8</ele>
        <time>2011-06-26T08:30:42Z</time>
      </trkpt>
      <trkpt lat="48.66037" lon="7.28153">
        <ele>566.1</ele>
        <time>2011-06-26T08:30:50Z</time>
      </trkpt>
      <trkpt lat="48.66027" lon="7.28152">
        <ele>567.5</ele>
        <time>2011-06-26T08:30:57Z</time>
      </trkpt>
      <trkpt lat="48.66019" lon="7.28151">
        <ele>568.7</ele>
        <time>2011-06-26T08:31:04Z</time>
      </trkpt>
      <trkpt lat="48.66013" lon="7.28152">
        <ele>569.3</ele>
        <time>2011-06-26T08:31:09Z</time>
      </trkpt>
      <trkpt lat="48.66011" lon="7.28155">
        <ele>569.7</ele>
        <time>2011-06-26T08:31:13Z</time>
      </trkpt>
      <trkpt lat="48.66008" lon="7.28159">
        <ele>570.4</ele>
        <time>2011-06-26T08:31:16Z</time>
      </trkpt>
      <trkpt lat="48.65999" lon="7.28157">
        <ele>571.6</ele>
        <time>2011-06-26T08:31:23Z</time>
      </trkpt>
      <trkpt lat="48.65989" lon="7.28153">
        <ele>572.2</ele>
        <time>2011-06-26T08:31:30Z</time>
      </trkpt>
      <trkpt lat="48.65982" lon="7.28149">
        <ele>572.7</ele>
        <time>2011-06-26T08:31:34Z</time>
      </trkpt>
      <trkpt lat="48.65974" lon="7.28151">
        <ele>573.2</ele>
        <time>2011-06-26T08:31:40Z</time>
      </trkpt>
      <trkpt lat="48.65971" lon="7.28156">
        <ele>574.6</ele>
        <time>2011-06-26T08:31:45Z</time>
      </trkpt>
      <trkpt lat="48.6597" lon="7.28156">
        <ele>574.8</ele>
        <time>2011-06-26T08:31:46Z</time>
      </trkpt>
      <trkpt lat="48.65962" lon="7.28154">
        <ele>575.7</ele>
        <time>2011-06-26T08:31:53Z</time>
      </trkpt>
      <trkpt lat="48.65953" lon="7.28156">
        <ele>577.2</ele>
        <time>2011-06-26T08:32:01Z</time>
      </trkpt>
      <trkpt lat="48.65942" lon="7.28159">
        <ele>578.6</ele>
        <time>2011-06-26T08:32:09Z</time>
      </trkpt>
      <trkpt lat="48.65941" lon="7.28159">
        <ele>578.8</ele>
        <time>2011-06-26T08:32:10Z</time>
      </trkpt>
      <trkpt lat="48.65931" lon="7.28159">
        <ele>579.8</ele>
        <time>2011-06-26T08:32:18Z</time>
      </trkpt>
      <trkpt lat="48.65922" lon="7.28156">
        <ele>580.2</ele>
        <time>2011-06-26T08:32:22Z</time>
      </trkpt>
      <trkpt lat="48.65914" lon="7.2816">
        <ele>580.6</ele>
        <time>2011-06-26T08:32:27Z</time>
      </trkpt>
      <trkpt lat="48.65906" lon="7.2817">
        <ele>581.9</ele>
        <time>2011-06-26T08:32:34Z</time>
      </trkpt>
      <trkpt lat="48.65905" lon="7.28171">
        <ele>582.2</ele>
        <time>2011-06-26T08:32:35Z</time>
      </trkpt>
      <trkpt lat="48.65899" lon="7.28179">
        <ele>583.6</ele>
        <time>2011-06-26T08:32:42Z</time>
      </trkpt>
      <trkpt lat="48.65897" lon="7.28182">
        <ele>584</ele>
        <time>2011-06-26T08:32:44Z</time>
      </trkpt>
      <trkpt lat="48.65892" lon="7.28185">
        <ele>584.8</ele>
        <time>2011-06-26T08:32:49Z</time>
      </trkpt>
      <trkpt lat="48.65883" lon="7.28192">
        <ele>586.1</ele>
        <time>2011-06-26T08:32:55Z</time>
      </trkpt>
      <trkpt lat="48.65881" lon="7.28194">
        <ele>586.4</ele>
        <time>2011-06-26T08:32:57Z</time>
      </trkpt>
      <trkpt lat="48.65877" lon="7.28194">
        <ele>586.7</ele>
        <time>2011-06-26T08:33:00Z</time>
      </trkpt>
      <trkpt lat="48.65868" lon="7.28202">
        <ele>587.9</ele>
        <time>2011-06-26T08:33:07Z</time>
      </trkpt>
      <trkpt lat="48.65859" lon="7.28208">
        <ele>589.4</ele>
        <time>2011-06-26T08:33:14Z</time>
      </trkpt>
      <trkpt lat="48.65854" lon="7.28214">
        <ele>590.4</ele>
        <time>2011-06-26T08:33:20Z</time>
      </trkpt>
      <trkpt lat="48.65853" lon="7.28215">
        <ele>590.5</ele>
        <time>2011-06-26T08:33:21Z</time>
      </trkpt>
      <trkpt lat="48.65844" lon="7.28222">
        <ele>591.8</ele>
        <time>2011-06-26T08:33:28Z</time>
      </trkpt>
      <trkpt lat="48.65842" lon="7.28223">
        <ele>592</ele>
        <time>2011-06-26T08:33:29Z</time>
      </trkpt>
      <trkpt lat="48.65838" lon="7.28228">
        <ele>592.5</ele>
        <time>2011-06-26T08:33:33Z</time>
      </trkpt>
      <trkpt lat="48.65831" lon="7.28236">
        <ele>594.1</ele>
        <time>2011-06-26T08:33:40Z</time>
      </trkpt>
      <trkpt lat="48.65822" lon="7.28243">
        <ele>595.4</ele>
        <time>2011-06-26T08:33:47Z</time>
      </trkpt>
      <trkpt lat="48.65814" lon="7.28253">
        <ele>596.8</ele>
        <time>2011-06-26T08:33:54Z</time>
      </trkpt>
      <trkpt lat="48.6581" lon="7.28257">
        <ele>597.7</ele>
        <time>2011-06-26T08:33:59Z</time>
      </trkpt>
      <trkpt lat="48.65808" lon="7.28258">
        <ele>597.9</ele>
        <time>2011-06-26T08:34:00Z</time>
      </trkpt>
      <trkpt lat="48.65801" lon="7.28266">
        <ele>598.9</ele>
        <time>2011-06-26T08:34:07Z</time>
      </trkpt>
      <trkpt lat="48.65794" lon="7.28273">
        <ele>600.1</ele>
        <time>2011-06-26T08:34:14Z</time>
      </trkpt>
      <trkpt lat="48.65792" lon="7.28275">
        <ele>600.6</ele>
        <time>2011-06-26T08:34:16Z</time>
      </trkpt>
      <trkpt lat="48.65786" lon="7.28282">
        <ele>601.8</ele>
        <time>2011-06-26T08:34:22Z</time>
      </trkpt>
      <trkpt lat="48.65785" lon="7.28283">
        <ele>601.8</ele>
        <time>2011-06-26T08:34:23Z</time>
      </trkpt>
      <trkpt lat="48.65779" lon="7.2829">
        <ele>602.6</ele>
        <time>2011-06-26T08:34:28Z</time>
      </trkpt>
      <trkpt lat="48.65776" lon="7.28296">
        <ele>603.6</ele>
        <time>2011-06-26T08:34:32Z</time>
      </trkpt>
      <trkpt lat="48.65768" lon="7.28306">
        <ele>604.8</ele>
        <time>2011-06-26T08:34:40Z</time>
      </trkpt>
      <trkpt lat="48.65767" lon="7.28309">
        <ele>605.1</ele>
        <time>2011-06-26T08:34:42Z</time>
      </trkpt>
      <trkpt lat="48.65765" lon="7.28313">
        <ele>605.6</ele>
        <time>2011-06-26T08:34:44Z</time>
      </trkpt>
      <trkpt lat="48.65759" lon="7.28318">
        <ele>606.3</ele>
        <time>2011-06-26T08:34:49Z</time>
      </trkpt>
      <trkpt lat="48.65753" lon="7.28326">
        <ele>607.8</ele>
        <time>2011-06-26T08:34:55Z</time>
      </trkpt>
      <trkpt lat="48.65746" lon="7.28334">
        <ele>608.9</ele>
        <time>2011-06-26T08:35:01Z</time>
      </trkpt>
      <trkpt lat="48.65741" lon="7.28343">
        <ele>610.1</ele>
        <time>2011-06-26T08:35:07Z</time>
      </trkpt>
      <trkpt lat="48.65738" lon="7.28345">
        <ele>610.5</ele>
        <time>2011-06-26T08:35:09Z</time>
      </trkpt>
      <trkpt lat="48.65726" lon="7.28357">
        <ele>612.4</ele>
        <time>2011-06-26T08:35:17Z</time>
      </trkpt>
      <trkpt lat="48.65723" lon="7.28361">
        <ele>613.1</ele>
        <time>2011-06-26T08:35:20Z</time>
      </trkpt>
      <trkpt lat="48.65714" lon="7.28371">
        <ele>614.4</ele>
        <time>2011-06-26T08:35:28Z</time>
      </trkpt>
      <trkpt lat="48.65709" lon="7.28379">
        <ele>615.5</ele>
        <time>2011-06-26T08:35:34Z</time>
      </trkpt>
      <trkpt lat="48.65704" lon="7.28384">
        <ele>616.5</ele>
        <time>2011-06-26T08:35:39Z</time>
      </trkpt>
      <trkpt lat="48.65698" lon="7.28391">
        <ele>617.5</ele>
        <time>2011-06-26T08:35:44Z</time>
      </trkpt>
      <trkpt lat="48.65691" lon="7.28402">
        <ele>619.2</ele>
        <time>2011-06-26T08:35:51Z</time>
      </trkpt>
      <trkpt lat="48.65689" lon="7.28405">
        <ele>619.5</ele>
        <time>2011-06-26T08:35:53Z</time>
      </trkpt>
      <trkpt lat="48.65683" lon="7.2841">
        <ele>620.3</ele>
        <time>2011-06-26T08:35:58Z</time>
      </trkpt>
      <trkpt lat="48.65676" lon="7.28417">
        <ele>621.6</ele>
        <time>2011-06-26T08:36:04Z</time>
      </trkpt>
      <trkpt lat="48.65675" lon="7.28421">
        <ele>622</ele>
        <time>2011-06-26T08:36:06Z</time>
      </trkpt>
      <trkpt lat="48.65666" lon="7.2843">
        <ele>623.8</ele>
        <time>2011-06-26T08:36:14Z</time>
      </trkpt>
      <trkpt lat="48.65659" lon="7.28439">
        <ele>624.8</ele>
        <time>2011-06-26T08:36:21Z</time>
      </trkpt>
      <trkpt lat="48.65651" lon="7.28449">
        <ele>625.5</ele>
        <time>2011-06-26T08:36:28Z</time>
      </trkpt>
      <trkpt lat="48.65642" lon="7.28456">
        <ele>625.7</ele>
        <time>2011-06-26T08:36:33Z</time>
      </trkpt>
      <trkpt lat="48.65637" lon="7.28463">
        <ele>626.1</ele>
        <time>2011-06-26T08:36:38Z</time>
      </trkpt>
      <trkpt lat="48.65634" lon="7.28467">
        <ele>626.5</ele>
        <time>2011-06-26T08:36:41Z</time>
      </trkpt>
      <trkpt lat="48.65624" lon="7.28477">
        <ele>627.5</ele>
        <time>2011-06-26T08:36:48Z</time>
      </trkpt>
      <trkpt lat="48.65623" lon="7.28478">
        <ele>627.5</ele>
        <time>2011-06-26T08:36:49Z</time>
      </trkpt>
      <trkpt lat="48.65618" lon="7.28483">
        <ele>628</ele>
        <time>2011-06-26T08:36:53Z</time>
      </trkpt>
      <trkpt lat="48.65607" lon="7.28495">
        <ele>629.3</ele>
        <time>2011-06-26T08:37:01Z</time>
      </trkpt>
      <trkpt lat="48.65599" lon="7.28504">
        <ele>630.9</ele>
        <time>2011-06-26T08:37:08Z</time>
      </trkpt>
      <trkpt lat="48.65595" lon="7.28508">
        <ele>631.4</ele>
        <time>2011-06-26T08:37:12Z</time>
      </trkpt>
      <trkpt lat="48.65589" lon="7.28516">
        <ele>632.4</ele>
        <time>2011-06-26T08:37:18Z</time>
      </trkpt>
      <trkpt lat="48.65587" lon="7.28518">
        <ele>632.9</ele>
        <time>2011-06-26T08:37:20Z</time>
      </trkpt>
      <trkpt lat="48.65576" lon="7.28528">
        <ele>633.9</ele>
        <time>2011-06-26T08:37:27Z</time>
      </trkpt>
      <trkpt lat="48.65569" lon="7.28536">
        <ele>634.6</ele>
        <time>2011-06-26T08:37:33Z</time>
      </trkpt>
      <trkpt lat="48.65562" lon="7.28548">
        <ele>635.2</ele>
        <time>2011-06-26T08:37:39Z</time>
      </trkpt>
      <trkpt lat="48.65554" lon="7.28556">
        <ele>635.7</ele>
        <time>2011-06-26T08:37:44Z</time>
      </trkpt>
      <trkpt lat="48.65551" lon="7.28565">
        <ele>636.5</ele>
        <time>2011-06-26T08:37:49Z</time>
      </trkpt>
      <trkpt lat="48.65549" lon="7.28568">
        <ele>636.7</ele>
        <time>2011-06-26T08:37:51Z</time>
      </trkpt>
      <trkpt lat="48.65537" lon="7.28574">
        <ele>637.3</ele>
        <time>2011-06-26T08:37:58Z</time>
      </trkpt>
      <trkpt lat="48.65527" lon="7.2858">
        <ele>638</ele>
        <time>2011-06-26T08:38:05Z</time>
      </trkpt>
      <trkpt lat="48.65518" lon="7.28584">
        <ele>638.6</ele>
        <time>2011-06-26T08:38:10Z</time>
      </trkpt>
      <trkpt lat="48.65509" lon="7.28588">
        <ele>639.5</ele>
        <time>2011-06-26T08:38:16Z</time>
      </trkpt>
      <trkpt lat="48.65501" lon="7.28592">
        <ele>640.2</ele>
        <time>2011-06-26T08:38:21Z</time>
      </trkpt>
      <trkpt lat="48.6549" lon="7.28596">
        <ele>641.3</ele>
        <time>2011-06-26T08:38:28Z</time>
      </trkpt>
      <trkpt lat="48.6548" lon="7.28598">
        <ele>642.1</ele>
        <time>2011-06-26T08:38:33Z</time>
      </trkpt>
      <trkpt lat="48.65473" lon="7.28611">
        <ele>643.4</ele>
        <time>2011-06-26T08:38:40Z</time>
      </trkpt>
      <trkpt lat="48.65471" lon="7.28618">
        <ele>643.9</ele>
        <time>2011-06-26T08:38:43Z</time>
      </trkpt>
      <trkpt lat="48.65464" lon="7.28624">
        <ele>644</ele>
        <time>2011-06-26T08:38:47Z</time>
      </trkpt>
      <trkpt lat="48.65448" lon="7.28631">
        <ele>645.4</ele>
        <time>2011-06-26T08:38:55Z</time>
      </trkpt>
      <trkpt lat="48.65435" lon="7.28637">
        <ele>646.2</ele>
        <time>2011-06-26T08:39:02Z</time>
      </trkpt>
      <trkpt lat="48.65423" lon="7.28642">
        <ele>647.4</ele>
        <time>2011-06-26T08:39:09Z</time>
      </trkpt>
      <trkpt lat="48.65417" lon="7.28648">
        <ele>647.6</ele>
        <time>2011-06-26T08:39:13Z</time>
      </trkpt>
      <trkpt lat="48.65408" lon="7.28656">
        <ele>648.4</ele>
        <time>2011-06-26T08:39:19Z</time>
      </trkpt>
      <trkpt lat="48.65401" lon="7.28664">
        <ele>649.1</ele>
        <time>2011-06-26T08:39:25Z</time>
      </trkpt>
      <trkpt lat="48.65387" lon="7.2867">
        <ele>649.9</ele>
        <time>2011-06-26T08:39:33Z</time>
      </trkpt>
      <trkpt lat="48.65376" lon="7.28677">
        <ele>650.5</ele>
        <time>2011-06-26T08:39:39Z</time>
      </trkpt>
      <trkpt lat="48.65366" lon="7.28688">
        <ele>651.5</ele>
        <time>2011-06-26T08:39:47Z</time>
      </trkpt>
      <trkpt lat="48.65358" lon="7.28698">
        <ele>652</ele>
        <time>2011-06-26T08:39:53Z</time>
      </trkpt>
      <trkpt lat="48.65338" lon="7.28716">
        <ele>653</ele>
        <time>2011-06-26T08:40:03Z</time>
      </trkpt>
      <trkpt lat="48.65321" lon="7.2873">
        <ele>653.7</ele>
        <time>2011-06-26T08:40:12Z</time>
      </trkpt>
      <trkpt lat="48.6531" lon="7.2874">
        <ele>654.1</ele>
        <time>2011-06-26T08:40:18Z</time>
      </trkpt>
      <trkpt lat="48.653" lon="7.28751">
        <ele>654.4</ele>
        <time>2011-06-26T08:40:24Z</time>
      </trkpt>
      <trkpt lat="48.65285" lon="7.28766">
        <ele>654.9</ele>
        <time>2011-06-26T08:40:31Z</time>
      </trkpt>
      <trkpt lat="48.65272" lon="7.28779">
        <ele>655.5</ele>
        <time>2011-06-26T08:40:37Z</time>
      </trkpt>
      <trkpt lat="48.6526" lon="7.28789">
        <ele>656.6</ele>
        <time>2011-06-26T08:40:43Z</time>
      </trkpt>
      <trkpt lat="48.6525" lon="7.28801">
        <ele>657.7</ele>
        <time>2011-06-26T08:40:49Z</time>
      </trkpt>
      <trkpt lat="48.65241" lon="7.28815">
        <ele>658.6</ele>
        <time>2011-06-26T08:40:55Z</time>
      </trkpt>
      <trkpt lat="48.65232" lon="7.28826">
        <ele>659.6</ele>
        <time>2011-06-26T08:41:01Z</time>
      </trkpt>
      <trkpt lat="48.65224" lon="7.28845">
        <ele>660.5</ele>
        <time>2011-06-26T08:41:08Z</time>
      </trkpt>
      <trkpt lat="48.65218" lon="7.28863">
        <ele>661.4</ele>
        <time>2011-06-26T08:41:14Z</time>
      </trkpt>
      <trkpt lat="48.65216" lon="7.28885">
        <ele>662.1</ele>
        <time>2011-06-26T08:41:20Z</time>
      </trkpt>
      <trkpt lat="48.65213" lon="7.2891">
        <ele>662.5</ele>
        <time>2011-06-26T08:41:27Z</time>
      </trkpt>
      <trkpt lat="48.65212" lon="7.28935">
        <ele>663.1</ele>
        <time>2011-06-26T08:41:34Z</time>
      </trkpt>
      <trkpt lat="48.6521" lon="7.28956">
        <ele>663.4</ele>
        <time>2011-06-26T08:41:40Z</time>
      </trkpt>
      <trkpt lat="48.65207" lon="7.28973">
        <ele>663.9</ele>
        <time>2011-06-26T08:41:45Z</time>
      </trkpt>
      <trkpt lat="48.652" lon="7.29002">
        <ele>664.5</ele>
        <time>2011-06-26T08:41:53Z</time>
      </trkpt>
      <trkpt lat="48.65199" lon="7.29026">
        <ele>665.2</ele>
        <time>2011-06-26T08:42:00Z</time>
      </trkpt>
      <trkpt lat="48.65197" lon="7.29049">
        <ele>664.8</ele>
        <time>2011-06-26T08:42:05Z</time>
      </trkpt>
      <trkpt lat="48.65201" lon="7.2908">
        <ele>664.1</ele>
        <time>2011-06-26T08:42:10Z</time>
      </trkpt>
      <trkpt lat="48.65201" lon="7.29129">
        <ele>662.7</ele>
        <time>2011-06-26T08:42:16Z</time>
      </trkpt>
      <trkpt lat="48.65185" lon="7.29193">
        <ele>660.7</ele>
        <time>2011-06-26T08:42:23Z</time>
      </trkpt>
      <trkpt lat="48.65159" lon="7.29257">
        <ele>658.6</ele>
        <time>2011-06-26T08:42:30Z</time>
      </trkpt>
      <trkpt lat="48.65149" lon="7.29287">
        <ele>657.7</ele>
        <time>2011-06-26T08:42:33Z</time>
      </trkpt>
      <trkpt lat="48.65145" lon="7.29295">
        <ele>657.5</ele>
        <time>2011-06-26T08:42:34Z</time>
      </trkpt>
      <trkpt lat="48.65134" lon="7.29357">
        <ele>655.6</ele>
        <time>2011-06-26T08:42:40Z</time>
      </trkpt>
      <trkpt lat="48.65125" lon="7.29397">
        <ele>654.5</ele>
        <time>2011-06-26T08:42:44Z</time>
      </trkpt>
      <trkpt lat="48.65118" lon="7.29423">
        <ele>653.7</ele>
        <time>2011-06-26T08:42:48Z</time>
      </trkpt>
      <trkpt lat="48.65106" lon="7.29427">
        <ele>653</ele>
        <time>2011-06-26T08:42:52Z</time>
      </trkpt>
      <trkpt lat="48.65093" lon="7.29416">
        <ele>653.5</ele>
        <time>2011-06-26T08:42:57Z</time>
      </trkpt>
      <trkpt lat="48.65084" lon="7.2941">
        <ele>653.7</ele>
        <time>2011-06-26T08:43:00Z</time>
      </trkpt>
      <trkpt lat="48.65074" lon="7.29406">
        <ele>653.8</ele>
        <time>2011-06-26T08:43:03Z</time>
      </trkpt>
      <trkpt lat="48.65055" lon="7.29405">
        <ele>653.8</ele>
        <time>2011-06-26T08:43:08Z</time>
      </trkpt>
      <trkpt lat="48.6503" lon="7.29414">
        <ele>653.6</ele>
        <time>2011-06-26T08:43:15Z</time>
      </trkpt>
      <trkpt lat="48.65008" lon="7.29426">
        <ele>653.6</ele>
        <time>2011-06-26T08:43:21Z</time>
      </trkpt>
      <trkpt lat="48.64974" lon="7.29434">
        <ele>653.9</ele>
        <time>2011-06-26T08:43:30Z</time>
      </trkpt>
      <trkpt lat="48.64952" lon="7.2943">
        <ele>654.1</ele>
        <time>2011-06-26T08:43:36Z</time>
      </trkpt>
      <trkpt lat="48.64932" lon="7.29427">
        <ele>654.4</ele>
        <time>2011-06-26T08:43:42Z</time>
      </trkpt>
      <trkpt lat="48.64916" lon="7.29423">
        <ele>654.6</ele>
        <time>2011-06-26T08:43:47Z</time>
      </trkpt>
      <trkpt lat="48.64907" lon="7.2942">
        <ele>654.8</ele>
        <time>2011-06-26T08:43:50Z</time>
      </trkpt>
      <trkpt lat="48.64883" lon="7.29408">
        <ele>655.9</ele>
        <time>2011-06-26T08:43:59Z</time>
      </trkpt>
      <trkpt lat="48.64881" lon="7.29395">
        <ele>656.6</ele>
        <time>2011-06-26T08:44:04Z</time>
      </trkpt>
      <trkpt lat="48.64878" lon="7.29383">
        <ele>658.3</ele>
        <time>2011-06-26T08:44:09Z</time>
      </trkpt>
      <trkpt lat="48.64878" lon="7.29372">
        <ele>659.4</ele>
        <time>2011-06-26T08:44:13Z</time>
      </trkpt>
      <trkpt lat="48.64879" lon="7.29365">
        <ele>660.4</ele>
        <time>2011-06-26T08:44:16Z</time>
      </trkpt>
      <trkpt lat="48.64879" lon="7.29356">
        <ele>661.6</ele>
        <time>2011-06-26T08:44:20Z</time>
      </trkpt>
      <trkpt lat="48.64878" lon="7.2934">
        <ele>663.4</ele>
        <time>2011-06-26T08:44:28Z</time>
      </trkpt>
      <trkpt lat="48.64878" lon="7.29323">
        <ele>665</ele>
        <time>2011-06-26T08:44:36Z</time>
      </trkpt>
      <trkpt lat="48.64877" lon="7.29309">
        <ele>666.9</ele>
        <time>2011-06-26T08:44:43Z</time>
      </trkpt>
      <trkpt lat="48.64876" lon="7.29299">
        <ele>667.9</ele>
        <time>2011-06-26T08:44:48Z</time>
      </trkpt>
      <trkpt lat="48.64874" lon="7.29286">
        <ele>669.1</ele>
        <time>2011-06-26T08:44:55Z</time>
      </trkpt>
      <trkpt lat="48.64871" lon="7.29268">
        <ele>670.2</ele>
        <time>2011-06-26T08:45:04Z</time>
      </trkpt>
      <trkpt lat="48.64869" lon="7.29251">
        <ele>671</ele>
        <time>2011-06-26T08:45:11Z</time>
      </trkpt>
      <trkpt lat="48.6487" lon="7.29236">
        <ele>671.2</ele>
        <time>2011-06-26T08:45:16Z</time>
      </trkpt>
      <trkpt lat="48.6487" lon="7.29221">
        <ele>673.3</ele>
        <time>2011-06-26T08:45:23Z</time>
      </trkpt>
      <trkpt lat="48.64873" lon="7.29208">
        <ele>675.3</ele>
        <time>2011-06-26T08:45:29Z</time>
      </trkpt>
      <trkpt lat="48.64875" lon="7.29195">
        <ele>677.2</ele>
        <time>2011-06-26T08:45:36Z</time>
      </trkpt>
      <trkpt lat="48.64877" lon="7.29179">
        <ele>679.1</ele>
        <time>2011-06-26T08:45:44Z</time>
      </trkpt>
      <trkpt lat="48.64879" lon="7.29168">
        <ele>680.6</ele>
        <time>2011-06-26T08:45:50Z</time>
      </trkpt>
      <trkpt lat="48.64881" lon="7.29153">
        <ele>682.3</ele>
        <time>2011-06-26T08:45:58Z</time>
      </trkpt>
      <trkpt lat="48.64883" lon="7.29134">
        <ele>684</ele>
        <time>2011-06-26T08:46:07Z</time>
      </trkpt>
      <trkpt lat="48.64883" lon="7.29113">
        <ele>684.9</ele>
        <time>2011-06-26T08:46:16Z</time>
      </trkpt>
      <trkpt lat="48.64882" lon="7.29097">
        <ele>685.1</ele>
        <time>2011-06-26T08:46:22Z</time>
      </trkpt>
      <trkpt lat="48.64882" lon="7.29078">
        <ele>685.4</ele>
        <time>2011-06-26T08:46:28Z</time>
      </trkpt>
      <trkpt lat="48.64882" lon="7.29061">
        <ele>685.5</ele>
        <time>2011-06-26T08:46:33Z</time>
      </trkpt>
      <trkpt lat="48.64885" lon="7.29037">
        <ele>685.2</ele>
        <time>2011-06-26T08:46:40Z</time>
      </trkpt>
      <trkpt lat="48.64888" lon="7.29017">
        <ele>684.7</ele>
        <time>2011-06-26T08:46:45Z</time>
      </trkpt>
      <trkpt lat="48.64888" lon="7.29002">
        <ele>683.7</ele>
        <time>2011-06-26T08:46:49Z</time>
      </trkpt>
      <trkpt lat="48.64884" lon="7.28989">
        <ele>681.8</ele>
        <time>2011-06-26T08:46:53Z</time>
      </trkpt>
      <trkpt lat="48.64878" lon="7.2898">
        <ele>680</ele>
        <time>2011-06-26T08:46:57Z</time>
      </trkpt>
      <trkpt lat="48.64872" lon="7.28968">
        <ele>678.2</ele>
        <time>2011-06-26T08:47:01Z</time>
      </trkpt>
      <trkpt lat="48.6486" lon="7.28951">
        <ele>675.6</ele>
        <time>2011-06-26T08:47:06Z</time>
      </trkpt>
      <trkpt lat="48.6485" lon="7.28939">
        <ele>673.4</ele>
        <time>2011-06-26T08:47:10Z</time>
      </trkpt>
      <trkpt lat="48.64848" lon="7.28935">
        <ele>673.2</ele>
        <time>2011-06-26T08:47:11Z</time>
      </trkpt>
      <trkpt lat="48.64833" lon="7.28911">
        <ele>671.2</ele>
        <time>2011-06-26T08:47:16Z</time>
      </trkpt>
      <trkpt lat="48.6483" lon="7.28905">
        <ele>670.6</ele>
        <time>2011-06-26T08:47:17Z</time>
      </trkpt>
      <trkpt lat="48.64823" lon="7.28889">
        <ele>669</ele>
        <time>2011-06-26T08:47:20Z</time>
      </trkpt>
      <trkpt lat="48.64819" lon="7.28877">
        <ele>667.7</ele>
        <time>2011-06-26T08:47:22Z</time>
      </trkpt>
      <trkpt lat="48.64803" lon="7.2885">
        <ele>665</ele>
        <time>2011-06-26T08:47:27Z</time>
      </trkpt>
      <trkpt lat="48.64792" lon="7.28826">
        <ele>662.4</ele>
        <time>2011-06-26T08:47:32Z</time>
      </trkpt>
      <trkpt lat="48.64779" lon="7.28808">
        <ele>661.5</ele>
        <time>2011-06-26T08:47:37Z</time>
      </trkpt>
      <trkpt lat="48.64764" lon="7.28785">
        <ele>661</ele>
        <time>2011-06-26T08:47:43Z</time>
      </trkpt>
      <trkpt lat="48.64758" lon="7.28768">
        <ele>660.8</ele>
        <time>2011-06-26T08:47:48Z</time>
      </trkpt>
      <trkpt lat="48.64753" lon="7.28757">
        <ele>660.5</ele>
        <time>2011-06-26T08:47:52Z</time>
      </trkpt>
      <trkpt lat="48.64747" lon="7.28743">
        <ele>660.5</ele>
        <time>2011-06-26T08:47:57Z</time>
      </trkpt>
      <trkpt lat="48.64742" lon="7.28723">
        <ele>660.5</ele>
        <time>2011-06-26T08:48:02Z</time>
      </trkpt>
      <trkpt lat="48.6474" lon="7.28701">
        <ele>659.8</ele>
        <time>2011-06-26T08:48:06Z</time>
      </trkpt>
      <trkpt lat="48.64734" lon="7.28677">
        <ele>660.1</ele>
        <time>2011-06-26T08:48:12Z</time>
      </trkpt>
      <trkpt lat="48.64728" lon="7.28653">
        <ele>660.3</ele>
        <time>2011-06-26T08:48:18Z</time>
      </trkpt>
      <trkpt lat="48.64721" lon="7.28623">
        <ele>659.6</ele>
        <time>2011-06-26T08:48:25Z</time>
      </trkpt>
      <trkpt lat="48.64714" lon="7.28591">
        <ele>658.8</ele>
        <time>2011-06-26T08:48:31Z</time>
      </trkpt>
      <trkpt lat="48.64701" lon="7.28554">
        <ele>658</ele>
        <time>2011-06-26T08:48:38Z</time>
      </trkpt>
      <trkpt lat="48.64695" lon="7.2853">
        <ele>657.8</ele>
        <time>2011-06-26T08:48:44Z</time>
      </trkpt>
      <trkpt lat="48.64688" lon="7.28506">
        <ele>657.9</ele>
        <time>2011-06-26T08:48:50Z</time>
      </trkpt>
      <trkpt lat="48.64678" lon="7.28471">
        <ele>658</ele>
        <time>2011-06-26T08:48:58Z</time>
      </trkpt>
      <trkpt lat="48.64664" lon="7.28441">
        <ele>658.4</ele>
        <time>2011-06-26T08:49:06Z</time>
      </trkpt>
      <trkpt lat="48.64656" lon="7.28416">
        <ele>658.8</ele>
        <time>2011-06-26T08:49:13Z</time>
      </trkpt>
      <trkpt lat="48.6465" lon="7.28388">
        <ele>657.4</ele>
        <time>2011-06-26T08:49:19Z</time>
      </trkpt>
      <trkpt lat="48.64648" lon="7.28379">
        <ele>656.7</ele>
        <time>2011-06-26T08:49:22Z</time>
      </trkpt>
      <trkpt lat="48.64643" lon="7.28359">
        <ele>655.7</ele>
        <time>2011-06-26T08:49:28Z</time>
      </trkpt>
      <trkpt lat="48.64635" lon="7.28336">
        <ele>654.5</ele>
        <time>2011-06-26T08:49:34Z</time>
      </trkpt>
      <trkpt lat="48.64627" lon="7.2831">
        <ele>653.4</ele>
        <time>2011-06-26T08:49:41Z</time>
      </trkpt>
      <trkpt lat="48.64621" lon="7.28293">
        <ele>652.9</ele>
        <time>2011-06-26T08:49:46Z</time>
      </trkpt>
      <trkpt lat="48.64615" lon="7.28274">
        <ele>652.3</ele>
        <time>2011-06-26T08:49:52Z</time>
      </trkpt>
      <trkpt lat="48.64613" lon="7.28268">
        <ele>652</ele>
        <time>2011-06-26T08:49:57Z</time>
      </trkpt>
      <trkpt lat="48.64612" lon="7.28264">
        <ele>652.1</ele>
        <time>2011-06-26T08:50:04Z</time>
      </trkpt>
      <trkpt lat="48.64611" lon="7.28262">
        <ele>651.9</ele>
        <time>2011-06-26T08:50:11Z</time>
      </trkpt>
      <trkpt lat="48.6461" lon="7.28256">
        <ele>651.8</ele>
        <time>2011-06-26T08:50:23Z</time>
      </trkpt>
      <trkpt lat="48.64606" lon="7.28247">
        <ele>651.5</ele>
        <time>2011-06-26T08:50:26Z</time>
      </trkpt>
      <trkpt lat="48.64605" lon="7.28228">
        <ele>650.8</ele>
        <time>2011-06-26T08:50:31Z</time>
      </trkpt>
      <trkpt lat="48.64602" lon="7.28211">
        <ele>649.9</ele>
        <time>2011-06-26T08:50:35Z</time>
      </trkpt>
      <trkpt lat="48.64603" lon="7.28196">
        <ele>648.8</ele>
        <time>2011-06-26T08:50:39Z</time>
      </trkpt>
      <trkpt lat="48.64603" lon="7.28183">
        <ele>647</ele>
        <time>2011-06-26T08:50:43Z</time>
      </trkpt>
      <trkpt lat="48.64602" lon="7.28175">
        <ele>646.5</ele>
        <time>2011-06-26T08:50:45Z</time>
      </trkpt>
      <trkpt lat="48.64603" lon="7.28162">
        <ele>645.2</ele>
        <time>2011-06-26T08:50:49Z</time>
      </trkpt>
      <trkpt lat="48.64601" lon="7.28153">
        <ele>644.4</ele>
        <time>2011-06-26T08:50:51Z</time>
      </trkpt>
      <trkpt lat="48.646" lon="7.2815">
        <ele>644.3</ele>
        <time>2011-06-26T08:50:52Z</time>
      </trkpt>
      <trkpt lat="48.646" lon="7.28132">
        <ele>643.1</ele>
        <time>2011-06-26T08:50:56Z</time>
      </trkpt>
      <trkpt lat="48.64604" lon="7.28121">
        <ele>641.9</ele>
        <time>2011-06-26T08:50:59Z</time>
      </trkpt>
      <trkpt lat="48.64608" lon="7.28114">
        <ele>641.1</ele>
        <time>2011-06-26T08:51:01Z</time>
      </trkpt>
      <trkpt lat="48.64614" lon="7.28088">
        <ele>638.2</ele>
        <time>2011-06-26T08:51:06Z</time>
      </trkpt>
      <trkpt lat="48.64612" lon="7.28073">
        <ele>637.1</ele>
        <time>2011-06-26T08:51:08Z</time>
      </trkpt>
      <trkpt lat="48.64607" lon="7.28051">
        <ele>636.5</ele>
        <time>2011-06-26T08:51:11Z</time>
      </trkpt>
      <trkpt lat="48.64594" lon="7.28023">
        <ele>635.9</ele>
        <time>2011-06-26T08:51:16Z</time>
      </trkpt>
      <trkpt lat="48.64589" lon="7.28004">
        <ele>637.2</ele>
        <time>2011-06-26T08:51:21Z</time>
      </trkpt>
      <trkpt lat="48.64585" lon="7.27979">
        <ele>638.9</ele>
        <time>2011-06-26T08:51:28Z</time>
      </trkpt>
      <trkpt lat="48.64574" lon="7.27947">
        <ele>640.4</ele>
        <time>2011-06-26T08:51:36Z</time>
      </trkpt>
      <trkpt lat="48.64565" lon="7.27917">
        <ele>641.2</ele>
        <time>2011-06-26T08:51:43Z</time>
      </trkpt>
      <trkpt lat="48.64551" lon="7.27862">
        <ele>642</ele>
        <time>2011-06-26T08:51:55Z</time>
      </trkpt>
      <trkpt lat="48.6454" lon="7.27822">
        <ele>642</ele>
        <time>2011-06-26T08:52:03Z</time>
      </trkpt>
      <trkpt lat="48.64531" lon="7.27791">
        <ele>642</ele>
        <time>2011-06-26T08:52:09Z</time>
      </trkpt>
      <trkpt lat="48.64514" lon="7.27738">
        <ele>641.9</ele>
        <time>2011-06-26T08:52:19Z</time>
      </trkpt>
      <trkpt lat="48.645" lon="7.27694">
        <ele>641.8</ele>
        <time>2011-06-26T08:52:27Z</time>
      </trkpt>
      <trkpt lat="48.64498" lon="7.27688">
        <ele>641.8</ele>
        <time>2011-06-26T08:52:28Z</time>
      </trkpt>
      <trkpt lat="48.64484" lon="7.27645">
        <ele>642.3</ele>
        <time>2011-06-26T08:52:36Z</time>
      </trkpt>
      <trkpt lat="48.64473" lon="7.27606">
        <ele>642.3</ele>
        <time>2011-06-26T08:52:43Z</time>
      </trkpt>
      <trkpt lat="48.64455" lon="7.27566">
        <ele>642</ele>
        <time>2011-06-26T08:52:51Z</time>
      </trkpt>
      <trkpt lat="48.64441" lon="7.27543">
        <ele>642.2</ele>
        <time>2011-06-26T08:52:57Z</time>
      </trkpt>
      <trkpt lat="48.64447" lon="7.2754">
        <ele>641.5</ele>
        <time>2011-06-26T08:53:02Z</time>
      </trkpt>
      <trkpt lat="48.64459" lon="7.27533">
        <ele>639.8</ele>
        <time>2011-06-26T08:53:06Z</time>
      </trkpt>
      <trkpt lat="48.64465" lon="7.27532">
        <ele>638.3</ele>
        <time>2011-06-26T08:53:09Z</time>
      </trkpt>
      <trkpt lat="48.64477" lon="7.27531">
        <ele>636.4</ele>
        <time>2011-06-26T08:53:14Z</time>
      </trkpt>
      <trkpt lat="48.64488" lon="7.27532">
        <ele>634</ele>
        <time>2011-06-26T08:53:18Z</time>
      </trkpt>
      <trkpt lat="48.64503" lon="7.27532">
        <ele>631.5</ele>
        <time>2011-06-26T08:53:23Z</time>
      </trkpt>
      <trkpt lat="48.64515" lon="7.27531">
        <ele>629.9</ele>
        <time>2011-06-26T08:53:27Z</time>
      </trkpt>
      <trkpt lat="48.64523" lon="7.2753">
        <ele>628.8</ele>
        <time>2011-06-26T08:53:29Z</time>
      </trkpt>
      <trkpt lat="48.64548" lon="7.27524">
        <ele>625.5</ele>
        <time>2011-06-26T08:53:34Z</time>
      </trkpt>
      <trkpt lat="48.6456" lon="7.27521">
        <ele>623</ele>
        <time>2011-06-26T08:53:39Z</time>
      </trkpt>
      <trkpt lat="48.64572" lon="7.27519">
        <ele>621.1</ele>
        <time>2011-06-26T08:53:43Z</time>
      </trkpt>
      <trkpt lat="48.64574" lon="7.27519">
        <ele>620.8</ele>
        <time>2011-06-26T08:53:44Z</time>
      </trkpt>
      <trkpt lat="48.64581" lon="7.27539">
        <ele>621.1</ele>
        <time>2011-06-26T08:53:51Z</time>
      </trkpt>
      <trkpt lat="48.64589" lon="7.27565">
        <ele>622.3</ele>
        <time>2011-06-26T08:53:59Z</time>
      </trkpt>
      <trkpt lat="48.64593" lon="7.27588">
        <ele>623.1</ele>
        <time>2011-06-26T08:54:05Z</time>
      </trkpt>
      <trkpt lat="48.64598" lon="7.27625">
        <ele>624.6</ele>
        <time>2011-06-26T08:54:14Z</time>
      </trkpt>
      <trkpt lat="48.64601" lon="7.27654">
        <ele>625.5</ele>
        <time>2011-06-26T08:54:21Z</time>
      </trkpt>
      <trkpt lat="48.64611" lon="7.27668">
        <ele>626</ele>
        <time>2011-06-26T08:54:26Z</time>
      </trkpt>
      <trkpt lat="48.64615" lon="7.27678">
        <ele>626.3</ele>
        <time>2011-06-26T08:54:31Z</time>
      </trkpt>
      <trkpt lat="48.64615" lon="7.27677">
        <ele>626.3</ele>
        <time>2011-06-26T08:54:38Z</time>
      </trkpt>
      <trkpt lat="48.64616" lon="7.27678">
        <ele>626.4</ele>
        <time>2011-06-26T08:54:42Z</time>
      </trkpt>
      <trkpt lat="48.64616" lon="7.27677">
        <ele>626.2</ele>
        <time>2011-06-26T08:54:51Z</time>
      </trkpt>
      <trkpt lat="48.64616" lon="7.27678">
        <ele>626.1</ele>
        <time>2011-06-26T08:55:07Z</time>
      </trkpt>
      <trkpt lat="48.64616" lon="7.27678">
        <ele>626.2</ele>
        <time>2011-06-26T08:55:12Z</time>
      </trkpt>
      <trkpt lat="48.64616" lon="7.27678">
        <ele>626.1</ele>
        <time>2011-06-26T08:55:24Z</time>
      </trkpt>
      <trkpt lat="48.64616" lon="7.27679">
        <ele>626</ele>
        <time>2011-06-26T08:55:31Z</time>
      </trkpt>
      <trkpt lat="48.64616" lon="7.27678">
        <ele>626</ele>
        <time>2011-06-26T08:57:55Z</time>
      </trkpt>
      <trkpt lat="48.64617" lon="7.27677">
        <ele>626</ele>
        <time>2011-06-26T08:58:39Z</time>
      </trkpt>
      <trkpt lat="48.64617" lon="7.27677">
        <ele>626</ele>
        <time>2011-06-26T08:58:40Z</time>
      </trkpt>
      <trkpt lat="48.64616" lon="7.27678">
        <ele>626.1</ele>
        <time>2011-06-26T08:59:10Z</time>
      </trkpt>
      <trkpt lat="48.64616" lon="7.27678">
        <ele>626.1</ele>
        <time>2011-06-26T08:59:15Z</time>
      </trkpt>
      <trkpt lat="48.64616" lon="7.27678">
        <ele>626.2</ele>
        <time>2011-06-26T08:59:27Z</time>
      </trkpt>
      <trkpt lat="48.64613" lon="7.27678">
        <ele>626.5</ele>
        <time>2011-06-26T09:00:19Z</time>
      </trkpt>
      <trkpt lat="48.64611" lon="7.27668">
        <ele>626.5</ele>
        <time>2011-06-26T09:00:24Z</time>
      </trkpt>
      <trkpt lat="48.64608" lon="7.27648">
        <ele>625.9</ele>
        <time>2011-06-26T09:00:30Z</time>
      </trkpt>
      <trkpt lat="48.64603" lon="7.2763">
        <ele>625.4</ele>
        <time>2011-06-26T09:00:36Z</time>
      </trkpt>
      <trkpt lat="48.64599" lon="7.2761">
        <ele>624.9</ele>
        <time>2011-06-26T09:00:42Z</time>
      </trkpt>
      <trkpt lat="48.64596" lon="7.27595">
        <ele>624.5</ele>
        <time>2011-06-26T09:00:45Z</time>
      </trkpt>
      <trkpt lat="48.64594" lon="7.27583">
        <ele>624.2</ele>
        <time>2011-06-26T09:00:47Z</time>
      </trkpt>
      <trkpt lat="48.64593" lon="7.27578">
        <ele>624</ele>
        <time>2011-06-26T09:00:48Z</time>
      </trkpt>
      <trkpt lat="48.64584" lon="7.27539">
        <ele>622.7</ele>
        <time>2011-06-26T09:00:55Z</time>
      </trkpt>
      <trkpt lat="48.64581" lon="7.27525">
        <ele>621.5</ele>
        <time>2011-06-26T09:00:59Z</time>
      </trkpt>
      <trkpt lat="48.64579" lon="7.2752">
        <ele>621.1</ele>
        <time>2011-06-26T09:01:05Z</time>
      </trkpt>
      <trkpt lat="48.64579" lon="7.2752">
        <ele>621.1</ele>
        <time>2011-06-26T09:01:06Z</time>
      </trkpt>
      <trkpt lat="48.64576" lon="7.27524">
        <ele>620.9</ele>
        <time>2011-06-26T09:01:10Z</time>
      </trkpt>
      <trkpt lat="48.64577" lon="7.27527">
        <ele>620.8</ele>
        <time>2011-06-26T09:01:11Z</time>
      </trkpt>
      <trkpt lat="48.64584" lon="7.2755">
        <ele>621.7</ele>
        <time>2011-06-26T09:01:19Z</time>
      </trkpt>
      <trkpt lat="48.64586" lon="7.27559">
        <ele>622.1</ele>
        <time>2011-06-26T09:01:22Z</time>
      </trkpt>
      <trkpt lat="48.64593" lon="7.27558">
        <ele>622.4</ele>
        <time>2011-06-26T09:01:27Z</time>
      </trkpt>
      <trkpt lat="48.64595" lon="7.27552">
        <ele>621.8</ele>
        <time>2011-06-26T09:01:30Z</time>
      </trkpt>
      <trkpt lat="48.64596" lon="7.27547">
        <ele>621.2</ele>
        <time>2011-06-26T09:01:32Z</time>
      </trkpt>
      <trkpt lat="48.64592" lon="7.27521">
        <ele>619.5</ele>
        <time>2011-06-26T09:01:37Z</time>
      </trkpt>
      <trkpt lat="48.64584" lon="7.2748">
        <ele>617.9</ele>
        <time>2011-06-26T09:01:42Z</time>
      </trkpt>
      <trkpt lat="48.64571" lon="7.2743">
        <ele>615.4</ele>
        <time>2011-06-26T09:01:47Z</time>
      </trkpt>
      <trkpt lat="48.64568" lon="7.27419">
        <ele>614.8</ele>
        <time>2011-06-26T09:01:48Z</time>
      </trkpt>
      <trkpt lat="48.64564" lon="7.27394">
        <ele>613.8</ele>
        <time>2011-06-26T09:01:50Z</time>
      </trkpt>
      <trkpt lat="48.64559" lon="7.27357">
        <ele>612.3</ele>
        <time>2011-06-26T09:01:53Z</time>
      </trkpt>
      <trkpt lat="48.6455" lon="7.27294">
        <ele>610.4</ele>
        <time>2011-06-26T09:01:58Z</time>
      </trkpt>
      <trkpt lat="48.64543" lon="7.27259">
        <ele>609.4</ele>
        <time>2011-06-26T09:02:01Z</time>
      </trkpt>
      <trkpt lat="48.64537" lon="7.27213">
        <ele>607.5</ele>
        <time>2011-06-26T09:02:05Z</time>
      </trkpt>
      <trkpt lat="48.64535" lon="7.27193">
        <ele>606.5</ele>
        <time>2011-06-26T09:02:07Z</time>
      </trkpt>
      <trkpt lat="48.6453" lon="7.27169">
        <ele>605.1</ele>
        <time>2011-06-26T09:02:10Z</time>
      </trkpt>
      <trkpt lat="48.64529" lon="7.27159">
        <ele>603.6</ele>
        <time>2011-06-26T09:02:13Z</time>
      </trkpt>
      <trkpt lat="48.64539" lon="7.27148">
        <ele>601.8</ele>
        <time>2011-06-26T09:02:20Z</time>
      </trkpt>
      <trkpt lat="48.64546" lon="7.27137">
        <ele>600</ele>
        <time>2011-06-26T09:02:24Z</time>
      </trkpt>
      <trkpt lat="48.64553" lon="7.27122">
        <ele>597.8</ele>
        <time>2011-06-26T09:02:28Z</time>
      </trkpt>
      <trkpt lat="48.64561" lon="7.27101">
        <ele>595.8</ele>
        <time>2011-06-26T09:02:33Z</time>
      </trkpt>
      <trkpt lat="48.64563" lon="7.27095">
        <ele>595.5</ele>
        <time>2011-06-26T09:02:34Z</time>
      </trkpt>
      <trkpt lat="48.64568" lon="7.27084">
        <ele>594.8</ele>
        <time>2011-06-26T09:02:36Z</time>
      </trkpt>
      <trkpt lat="48.64573" lon="7.27072">
        <ele>593.9</ele>
        <time>2011-06-26T09:02:38Z</time>
      </trkpt>
      <trkpt lat="48.64575" lon="7.27065">
        <ele>593.5</ele>
        <time>2011-06-26T09:02:39Z</time>
      </trkpt>
      <trkpt lat="48.64577" lon="7.27058">
        <ele>593.1</ele>
        <time>2011-06-26T09:02:40Z</time>
      </trkpt>
      <trkpt lat="48.64586" lon="7.27028">
        <ele>591</ele>
        <time>2011-06-26T09:02:45Z</time>
      </trkpt>
      <trkpt lat="48.64588" lon="7.27022">
        <ele>590.8</ele>
        <time>2011-06-26T09:02:46Z</time>
      </trkpt>
      <trkpt lat="48.64592" lon="7.26995">
        <ele>589.1</ele>
        <time>2011-06-26T09:02:50Z</time>
      </trkpt>
      <trkpt lat="48.64602" lon="7.26941">
        <ele>586.8</ele>
        <time>2011-06-26T09:02:57Z</time>
      </trkpt>
      <trkpt lat="48.64609" lon="7.26919">
        <ele>586</ele>
        <time>2011-06-26T09:03:00Z</time>
      </trkpt>
      <trkpt lat="48.64626" lon="7.26887">
        <ele>582.9</ele>
        <time>2011-06-26T09:03:06Z</time>
      </trkpt>
      <trkpt lat="48.64636" lon="7.26862">
        <ele>579.6</ele>
        <time>2011-06-26T09:03:11Z</time>
      </trkpt>
      <trkpt lat="48.6464" lon="7.26852">
        <ele>578.6</ele>
        <time>2011-06-26T09:03:13Z</time>
      </trkpt>
      <trkpt lat="48.6465" lon="7.26833">
        <ele>576.4</ele>
        <time>2011-06-26T09:03:17Z</time>
      </trkpt>
      <trkpt lat="48.64661" lon="7.26811">
        <ele>573.2</ele>
        <time>2011-06-26T09:03:22Z</time>
      </trkpt>
      <trkpt lat="48.64665" lon="7.26803">
        <ele>571.3</ele>
        <time>2011-06-26T09:03:26Z</time>
      </trkpt>
      <trkpt lat="48.64674" lon="7.26788">
        <ele>568.8</ele>
        <time>2011-06-26T09:03:30Z</time>
      </trkpt>
      <trkpt lat="48.64679" lon="7.26779">
        <ele>567.7</ele>
        <time>2011-06-26T09:03:32Z</time>
      </trkpt>
      <trkpt lat="48.64684" lon="7.2677">
        <ele>566.2</ele>
        <time>2011-06-26T09:03:34Z</time>
      </trkpt>
      <trkpt lat="48.6469" lon="7.26758">
        <ele>564.6</ele>
        <time>2011-06-26T09:03:37Z</time>
      </trkpt>
      <trkpt lat="48.64692" lon="7.26754">
        <ele>564.1</ele>
        <time>2011-06-26T09:03:38Z</time>
      </trkpt>
      <trkpt lat="48.64696" lon="7.26747">
        <ele>563.2</ele>
        <time>2011-06-26T09:03:40Z</time>
      </trkpt>
      <trkpt lat="48.64703" lon="7.26732">
        <ele>561.6</ele>
        <time>2011-06-26T09:03:43Z</time>
      </trkpt>
      <trkpt lat="48.64715" lon="7.26705">
        <ele>559.1</ele>
        <time>2011-06-26T09:03:48Z</time>
      </trkpt>
      <trkpt lat="48.64724" lon="7.26685">
        <ele>556.1</ele>
        <time>2011-06-26T09:03:52Z</time>
      </trkpt>
      <trkpt lat="48.64733" lon="7.26669">
        <ele>553.5</ele>
        <time>2011-06-26T09:03:56Z</time>
      </trkpt>
      <trkpt lat="48.64743" lon="7.26653">
        <ele>551.1</ele>
        <time>2011-06-26T09:04:00Z</time>
      </trkpt>
      <trkpt lat="48.64748" lon="7.26644">
        <ele>550.1</ele>
        <time>2011-06-26T09:04:02Z</time>
      </trkpt>
      <trkpt lat="48.6476" lon="7.26623">
        <ele>547.4</ele>
        <time>2011-06-26T09:04:06Z</time>
      </trkpt>
      <trkpt lat="48.64772" lon="7.26601">
        <ele>544.7</ele>
        <time>2011-06-26T09:04:11Z</time>
      </trkpt>
      <trkpt lat="48.64783" lon="7.26579">
        <ele>541.5</ele>
        <time>2011-06-26T09:04:16Z</time>
      </trkpt>
      <trkpt lat="48.6479" lon="7.26568">
        <ele>539.2</ele>
        <time>2011-06-26T09:04:20Z</time>
      </trkpt>
      <trkpt lat="48.64798" lon="7.26551">
        <ele>537.7</ele>
        <time>2011-06-26T09:04:25Z</time>
      </trkpt>
      <trkpt lat="48.64807" lon="7.26532">
        <ele>535.4</ele>
        <time>2011-06-26T09:04:29Z</time>
      </trkpt>
      <trkpt lat="48.64821" lon="7.26508">
        <ele>532.1</ele>
        <time>2011-06-26T09:04:34Z</time>
      </trkpt>
      <trkpt lat="48.64829" lon="7.26493">
        <ele>529.7</ele>
        <time>2011-06-26T09:04:38Z</time>
      </trkpt>
      <trkpt lat="48.64834" lon="7.26482">
        <ele>528.4</ele>
        <time>2011-06-26T09:04:41Z</time>
      </trkpt>
      <trkpt lat="48.64842" lon="7.26465">
        <ele>526</ele>
        <time>2011-06-26T09:04:46Z</time>
      </trkpt>
      <trkpt lat="48.64849" lon="7.26444">
        <ele>523.4</ele>
        <time>2011-06-26T09:04:52Z</time>
      </trkpt>
      <trkpt lat="48.64854" lon="7.26428">
        <ele>522</ele>
        <time>2011-06-26T09:04:56Z</time>
      </trkpt>
      <trkpt lat="48.64858" lon="7.26417">
        <ele>519.9</ele>
        <time>2011-06-26T09:05:01Z</time>
      </trkpt>
      <trkpt lat="48.64861" lon="7.26424">
        <ele>519.2</ele>
        <time>2011-06-26T09:05:04Z</time>
      </trkpt>
      <trkpt lat="48.64865" lon="7.26448">
        <ele>518.4</ele>
        <time>2011-06-26T09:05:09Z</time>
      </trkpt>
      <trkpt lat="48.64865" lon="7.26454">
        <ele>518.1</ele>
        <time>2011-06-26T09:05:10Z</time>
      </trkpt>
      <trkpt lat="48.64865" lon="7.26469">
        <ele>517.6</ele>
        <time>2011-06-26T09:05:12Z</time>
      </trkpt>
      <trkpt lat="48.64862" lon="7.26502">
        <ele>515.8</ele>
        <time>2011-06-26T09:05:16Z</time>
      </trkpt>
      <trkpt lat="48.64858" lon="7.26527">
        <ele>514.8</ele>
        <time>2011-06-26T09:05:19Z</time>
      </trkpt>
      <trkpt lat="48.64856" lon="7.26556">
        <ele>513.6</ele>
        <time>2011-06-26T09:05:22Z</time>
      </trkpt>
      <trkpt lat="48.64854" lon="7.26582">
        <ele>512.2</ele>
        <time>2011-06-26T09:05:25Z</time>
      </trkpt>
      <trkpt lat="48.64855" lon="7.26598">
        <ele>511.1</ele>
        <time>2011-06-26T09:05:27Z</time>
      </trkpt>
      <trkpt lat="48.64858" lon="7.26616">
        <ele>509.9</ele>
        <time>2011-06-26T09:05:30Z</time>
      </trkpt>
      <trkpt lat="48.64864" lon="7.26626">
        <ele>508.5</ele>
        <time>2011-06-26T09:05:33Z</time>
      </trkpt>
      <trkpt lat="48.64867" lon="7.26629">
        <ele>508.3</ele>
        <time>2011-06-26T09:05:38Z</time>
      </trkpt>
      <trkpt lat="48.64868" lon="7.26631">
        <ele>508.4</ele>
        <time>2011-06-26T09:05:39Z</time>
      </trkpt>
      <trkpt lat="48.64869" lon="7.26632">
        <ele>508.7</ele>
        <time>2011-06-26T09:05:41Z</time>
      </trkpt>
      <trkpt lat="48.64869" lon="7.26632">
        <ele>508.8</ele>
        <time>2011-06-26T09:05:42Z</time>
      </trkpt>
      <trkpt lat="48.64873" lon="7.26633">
        <ele>509</ele>
        <time>2011-06-26T09:05:48Z</time>
      </trkpt>
      <trkpt lat="48.64876" lon="7.26625">
        <ele>509.6</ele>
        <time>2011-06-26T09:05:56Z</time>
      </trkpt>
      <trkpt lat="48.64878" lon="7.26623">
        <ele>510</ele>
        <time>2011-06-26T09:05:59Z</time>
      </trkpt>
      <trkpt lat="48.64886" lon="7.26616">
        <ele>510.9</ele>
        <time>2011-06-26T09:06:07Z</time>
      </trkpt>
      <trkpt lat="48.64894" lon="7.26612">
        <ele>511.5</ele>
        <time>2011-06-26T09:06:14Z</time>
      </trkpt>
      <trkpt lat="48.64898" lon="7.26608">
        <ele>511.9</ele>
        <time>2011-06-26T09:06:18Z</time>
      </trkpt>
      <trkpt lat="48.64907" lon="7.26602">
        <ele>513.2</ele>
        <time>2011-06-26T09:06:25Z</time>
      </trkpt>
      <trkpt lat="48.64914" lon="7.26598">
        <ele>514.7</ele>
        <time>2011-06-26T09:06:31Z</time>
      </trkpt>
      <trkpt lat="48.64923" lon="7.266">
        <ele>516.6</ele>
        <time>2011-06-26T09:06:37Z</time>
      </trkpt>
      <trkpt lat="48.64928" lon="7.26598">
        <ele>517.8</ele>
        <time>2011-06-26T09:06:41Z</time>
      </trkpt>
      <trkpt lat="48.64931" lon="7.26597">
        <ele>518.4</ele>
        <time>2011-06-26T09:06:43Z</time>
      </trkpt>
      <trkpt lat="48.64939" lon="7.26592">
        <ele>519.5</ele>
        <time>2011-06-26T09:06:48Z</time>
      </trkpt>
      <trkpt lat="48.64952" lon="7.26584">
        <ele>520.8</ele>
        <time>2011-06-26T09:06:55Z</time>
      </trkpt>
      <trkpt lat="48.64959" lon="7.26584">
        <ele>521.7</ele>
        <time>2011-06-26T09:07:00Z</time>
      </trkpt>
      <trkpt lat="48.64963" lon="7.26584">
        <ele>522.2</ele>
        <time>2011-06-26T09:07:03Z</time>
      </trkpt>
      <trkpt lat="48.64971" lon="7.26588">
        <ele>523.4</ele>
        <time>2011-06-26T09:07:09Z</time>
      </trkpt>
      <trkpt lat="48.64979" lon="7.26591">
        <ele>525</ele>
        <time>2011-06-26T09:07:15Z</time>
      </trkpt>
      <trkpt lat="48.6499" lon="7.26594">
        <ele>526.8</ele>
        <time>2011-06-26T09:07:23Z</time>
      </trkpt>
      <trkpt lat="48.65001" lon="7.26597">
        <ele>528.2</ele>
        <time>2011-06-26T09:07:28Z</time>
      </trkpt>
      <trkpt lat="48.65011" lon="7.26599">
        <ele>529.7</ele>
        <time>2011-06-26T09:07:35Z</time>
      </trkpt>
      <trkpt lat="48.65026" lon="7.26598">
        <ele>531.7</ele>
        <time>2011-06-26T09:07:43Z</time>
      </trkpt>
      <trkpt lat="48.65035" lon="7.26589">
        <ele>532.6</ele>
        <time>2011-06-26T09:07:48Z</time>
      </trkpt>
      <trkpt lat="48.65044" lon="7.26573">
        <ele>533</ele>
        <time>2011-06-26T09:07:56Z</time>
      </trkpt>
      <trkpt lat="48.6505" lon="7.26563">
        <ele>533.9</ele>
        <time>2011-06-26T09:08:02Z</time>
      </trkpt>
      <trkpt lat="48.65057" lon="7.26555">
        <ele>535.1</ele>
        <time>2011-06-26T09:08:08Z</time>
      </trkpt>
      <trkpt lat="48.65063" lon="7.26549">
        <ele>536.3</ele>
        <time>2011-06-26T09:08:13Z</time>
      </trkpt>
      <trkpt lat="48.65069" lon="7.26544">
        <ele>537.4</ele>
        <time>2011-06-26T09:08:17Z</time>
      </trkpt>
      <trkpt lat="48.65078" lon="7.26538">
        <ele>538.5</ele>
        <time>2011-06-26T09:08:23Z</time>
      </trkpt>
      <trkpt lat="48.6509" lon="7.26534">
        <ele>539.9</ele>
        <time>2011-06-26T09:08:30Z</time>
      </trkpt>
      <trkpt lat="48.651" lon="7.26533">
        <ele>540.5</ele>
        <time>2011-06-26T09:08:36Z</time>
      </trkpt>
      <trkpt lat="48.65112" lon="7.26536">
        <ele>541.3</ele>
        <time>2011-06-26T09:08:43Z</time>
      </trkpt>
      <trkpt lat="48.65124" lon="7.26542">
        <ele>542.2</ele>
        <time>2011-06-26T09:08:50Z</time>
      </trkpt>
      <trkpt lat="48.65134" lon="7.26548">
        <ele>543.3</ele>
        <time>2011-06-26T09:08:57Z</time>
      </trkpt>
      <trkpt lat="48.65143" lon="7.26551">
        <ele>543.7</ele>
        <time>2011-06-26T09:09:02Z</time>
      </trkpt>
      <trkpt lat="48.65155" lon="7.26557">
        <ele>544.3</ele>
        <time>2011-06-26T09:09:08Z</time>
      </trkpt>
      <trkpt lat="48.65166" lon="7.26565">
        <ele>544.9</ele>
        <time>2011-06-26T09:09:13Z</time>
      </trkpt>
      <trkpt lat="48.65177" lon="7.26574">
        <ele>545.9</ele>
        <time>2011-06-26T09:09:18Z</time>
      </trkpt>
      <trkpt lat="48.65186" lon="7.26582">
        <ele>547</ele>
        <time>2011-06-26T09:09:23Z</time>
      </trkpt>
      <trkpt lat="48.65197" lon="7.26587">
        <ele>547.7</ele>
        <time>2011-06-26T09:09:29Z</time>
      </trkpt>
      <trkpt lat="48.65203" lon="7.26593">
        <ele>548.5</ele>
        <time>2011-06-26T09:09:34Z</time>
      </trkpt>
      <trkpt lat="48.65213" lon="7.26597">
        <ele>549.9</ele>
        <time>2011-06-26T09:09:40Z</time>
      </trkpt>
      <trkpt lat="48.65223" lon="7.26604">
        <ele>550.5</ele>
        <time>2011-06-26T09:09:46Z</time>
      </trkpt>
      <trkpt lat="48.65236" lon="7.26611">
        <ele>551.7</ele>
        <time>2011-06-26T09:09:53Z</time>
      </trkpt>
      <trkpt lat="48.65245" lon="7.26616">
        <ele>552.8</ele>
        <time>2011-06-26T09:10:00Z</time>
      </trkpt>
      <trkpt lat="48.65255" lon="7.26621">
        <ele>553.9</ele>
        <time>2011-06-26T09:10:08Z</time>
      </trkpt>
      <trkpt lat="48.65266" lon="7.26628">
        <ele>554.9</ele>
        <time>2011-06-26T09:10:15Z</time>
      </trkpt>
      <trkpt lat="48.65278" lon="7.26635">
        <ele>555.5</ele>
        <time>2011-06-26T09:10:21Z</time>
      </trkpt>
      <trkpt lat="48.65288" lon="7.26639">
        <ele>556.4</ele>
        <time>2011-06-26T09:10:27Z</time>
      </trkpt>
      <trkpt lat="48.65298" lon="7.26641">
        <ele>557.1</ele>
        <time>2011-06-26T09:10:32Z</time>
      </trkpt>
      <trkpt lat="48.65311" lon="7.26645">
        <ele>558.2</ele>
        <time>2011-06-26T09:10:39Z</time>
      </trkpt>
      <trkpt lat="48.65322" lon="7.26648">
        <ele>559.2</ele>
        <time>2011-06-26T09:10:45Z</time>
      </trkpt>
      <trkpt lat="48.65337" lon="7.26658">
        <ele>560</ele>
        <time>2011-06-26T09:10:52Z</time>
      </trkpt>
      <trkpt lat="48.65349" lon="7.26664">
        <ele>560.1</ele>
        <time>2011-06-26T09:10:57Z</time>
      </trkpt>
      <trkpt lat="48.65367" lon="7.2667">
        <ele>560.5</ele>
        <time>2011-06-26T09:11:03Z</time>
      </trkpt>
      <trkpt lat="48.65381" lon="7.26675">
        <ele>561.7</ele>
        <time>2011-06-26T09:11:09Z</time>
      </trkpt>
      <trkpt lat="48.65395" lon="7.26682">
        <ele>562.6</ele>
        <time>2011-06-26T09:11:15Z</time>
      </trkpt>
      <trkpt lat="48.65406" lon="7.26689">
        <ele>562.9</ele>
        <time>2011-06-26T09:11:20Z</time>
      </trkpt>
      <trkpt lat="48.65421" lon="7.267">
        <ele>562.6</ele>
        <time>2011-06-26T09:11:26Z</time>
      </trkpt>
      <trkpt lat="48.65429" lon="7.26709">
        <ele>562.3</ele>
        <time>2011-06-26T09:11:30Z</time>
      </trkpt>
      <trkpt lat="48.65441" lon="7.26717">
        <ele>562</ele>
        <time>2011-06-26T09:11:35Z</time>
      </trkpt>
      <trkpt lat="48.65458" lon="7.26712">
        <ele>561.6</ele>
        <time>2011-06-26T09:11:41Z</time>
      </trkpt>
      <trkpt lat="48.65479" lon="7.26706">
        <ele>560.9</ele>
        <time>2011-06-26T09:11:46Z</time>
      </trkpt>
      <trkpt lat="48.655" lon="7.26697">
        <ele>559.9</ele>
        <time>2011-06-26T09:11:50Z</time>
      </trkpt>
      <trkpt lat="48.65525" lon="7.26692">
        <ele>558.3</ele>
        <time>2011-06-26T09:11:54Z</time>
      </trkpt>
      <trkpt lat="48.65553" lon="7.26699">
        <ele>556.9</ele>
        <time>2011-06-26T09:11:59Z</time>
      </trkpt>
      <trkpt lat="48.65577" lon="7.26715">
        <ele>556.2</ele>
        <time>2011-06-26T09:12:03Z</time>
      </trkpt>
      <trkpt lat="48.656" lon="7.26725">
        <ele>555.2</ele>
        <time>2011-06-26T09:12:07Z</time>
      </trkpt>
      <trkpt lat="48.65618" lon="7.26743">
        <ele>553.8</ele>
        <time>2011-06-26T09:12:11Z</time>
      </trkpt>
      <trkpt lat="48.65619" lon="7.26753">
        <ele>553.2</ele>
        <time>2011-06-26T09:12:14Z</time>
      </trkpt>
      <trkpt lat="48.65619" lon="7.26754">
        <ele>553.2</ele>
        <time>2011-06-26T09:12:19Z</time>
      </trkpt>
      <trkpt lat="48.65614" lon="7.26759">
        <ele>553.4</ele>
        <time>2011-06-26T09:12:24Z</time>
      </trkpt>
      <trkpt lat="48.65602" lon="7.26768">
        <ele>554.2</ele>
        <time>2011-06-26T09:12:28Z</time>
      </trkpt>
      <trkpt lat="48.65586" lon="7.26785">
        <ele>555.4</ele>
        <time>2011-06-26T09:12:33Z</time>
      </trkpt>
      <trkpt lat="48.65575" lon="7.26801">
        <ele>556.3</ele>
        <time>2011-06-26T09:12:37Z</time>
      </trkpt>
      <trkpt lat="48.6557" lon="7.26811">
        <ele>556.7</ele>
        <time>2011-06-26T09:12:39Z</time>
      </trkpt>
      <trkpt lat="48.65568" lon="7.26815">
        <ele>556.8</ele>
        <time>2011-06-26T09:12:40Z</time>
      </trkpt>
      <trkpt lat="48.65557" lon="7.26834">
        <ele>557.6</ele>
        <time>2011-06-26T09:12:44Z</time>
      </trkpt>
      <trkpt lat="48.6554" lon="7.26858">
        <ele>558.4</ele>
        <time>2011-06-26T09:12:50Z</time>
      </trkpt>
      <trkpt lat="48.65516" lon="7.2688">
        <ele>559.3</ele>
        <time>2011-06-26T09:12:57Z</time>
      </trkpt>
      <trkpt lat="48.6548" lon="7.26899">
        <ele>560.8</ele>
        <time>2011-06-26T09:13:05Z</time>
      </trkpt>
      <trkpt lat="48.65452" lon="7.26923">
        <ele>561.8</ele>
        <time>2011-06-26T09:13:12Z</time>
      </trkpt>
      <trkpt lat="48.65429" lon="7.26949">
        <ele>563.6</ele>
        <time>2011-06-26T09:13:19Z</time>
      </trkpt>
      <trkpt lat="48.65421" lon="7.26959">
        <ele>564.5</ele>
        <time>2011-06-26T09:13:22Z</time>
      </trkpt>
      <trkpt lat="48.65423" lon="7.26979">
        <ele>564.8</ele>
        <time>2011-06-26T09:13:27Z</time>
      </trkpt>
      <trkpt lat="48.65436" lon="7.27003">
        <ele>562.6</ele>
        <time>2011-06-26T09:13:31Z</time>
      </trkpt>
      <trkpt lat="48.6545" lon="7.27027">
        <ele>560.2</ele>
        <time>2011-06-26T09:13:35Z</time>
      </trkpt>
      <trkpt lat="48.65451" lon="7.2703">
        <ele>559.3</ele>
        <time>2011-06-26T09:13:36Z</time>
      </trkpt>
      <trkpt lat="48.65446" lon="7.27044">
        <ele>557.5</ele>
        <time>2011-06-26T09:13:40Z</time>
      </trkpt>
      <trkpt lat="48.65429" lon="7.27073">
        <ele>558</ele>
        <time>2011-06-26T09:13:48Z</time>
      </trkpt>
      <trkpt lat="48.65411" lon="7.27108">
        <ele>558.2</ele>
        <time>2011-06-26T09:13:56Z</time>
      </trkpt>
      <trkpt lat="48.65397" lon="7.27134">
        <ele>558.4</ele>
        <time>2011-06-26T09:14:03Z</time>
      </trkpt>
      <trkpt lat="48.654" lon="7.27145">
        <ele>558.8</ele>
        <time>2011-06-26T09:14:08Z</time>
      </trkpt>
      <trkpt lat="48.65405" lon="7.27148">
        <ele>558.4</ele>
        <time>2011-06-26T09:14:10Z</time>
      </trkpt>
      <trkpt lat="48.6542" lon="7.27158">
        <ele>555.6</ele>
        <time>2011-06-26T09:14:16Z</time>
      </trkpt>
      <trkpt lat="48.65421" lon="7.27161">
        <ele>553.8</ele>
        <time>2011-06-26T09:14:20Z</time>
      </trkpt>
      <trkpt lat="48.65422" lon="7.27161">
        <ele>553.6</ele>
        <time>2011-06-26T09:14:29Z</time>
      </trkpt>
      <trkpt lat="48.65422" lon="7.27161">
        <ele>553.6</ele>
        <time>2011-06-26T09:14:32Z</time>
      </trkpt>
      <trkpt lat="48.65422" lon="7.27162">
        <ele>553.4</ele>
        <time>2011-06-26T09:14:38Z</time>
      </trkpt>
      <trkpt lat="48.65422" lon="7.27162">
        <ele>553.6</ele>
        <time>2011-06-26T09:14:47Z</time>
      </trkpt>
      <trkpt lat="48.65422" lon="7.27162">
        <ele>553.4</ele>
        <time>2011-06-26T09:15:27Z</time>
      </trkpt>
      <trkpt lat="48.65422" lon="7.27161">
        <ele>553.3</ele>
        <time>2011-06-26T09:15:40Z</time>
      </trkpt>
      <trkpt lat="48.65422" lon="7.27163">
        <ele>553.2</ele>
        <time>2011-06-26T09:16:21Z</time>
      </trkpt>
      <trkpt lat="48.65433" lon="7.27168">
        <ele>552.2</ele>
        <time>2011-06-26T09:16:26Z</time>
      </trkpt>
      <trkpt lat="48.6544" lon="7.27173">
        <ele>550.4</ele>
        <time>2011-06-26T09:16:28Z</time>
      </trkpt>
      <trkpt lat="48.65451" lon="7.27197">
        <ele>547.1</ele>
        <time>2011-06-26T09:16:33Z</time>
      </trkpt>
      <trkpt lat="48.65456" lon="7.27203">
        <ele>545.9</ele>
        <time>2011-06-26T09:16:35Z</time>
      </trkpt>
      <trkpt lat="48.65479" lon="7.27222">
        <ele>538.9</ele>
        <time>2011-06-26T09:16:43Z</time>
      </trkpt>
      <trkpt lat="48.65488" lon="7.27232">
        <ele>535.8</ele>
        <time>2011-06-26T09:16:47Z</time>
      </trkpt>
      <trkpt lat="48.6549" lon="7.27236">
        <ele>535.5</ele>
        <time>2011-06-26T09:16:48Z</time>
      </trkpt>
      <trkpt lat="48.65498" lon="7.27244">
        <ele>534.2</ele>
        <time>2011-06-26T09:16:52Z</time>
      </trkpt>
      <trkpt lat="48.65517" lon="7.2725">
        <ele>529.8</ele>
        <time>2011-06-26T09:16:59Z</time>
      </trkpt>
      <trkpt lat="48.65529" lon="7.27247">
        <ele>526.3</ele>
        <time>2011-06-26T09:17:04Z</time>
      </trkpt>
      <trkpt lat="48.65535" lon="7.27242">
        <ele>523.9</ele>
        <time>2011-06-26T09:17:07Z</time>
      </trkpt>
      <trkpt lat="48.65548" lon="7.27245">
        <ele>520.9</ele>
        <time>2011-06-26T09:17:12Z</time>
      </trkpt>
      <trkpt lat="48.65553" lon="7.2725">
        <ele>519.8</ele>
        <time>2011-06-26T09:17:14Z</time>
      </trkpt>
      <trkpt lat="48.65569" lon="7.27261">
        <ele>516.3</ele>
        <time>2011-06-26T09:17:20Z</time>
      </trkpt>
      <trkpt lat="48.65579" lon="7.27268">
        <ele>514.1</ele>
        <time>2011-06-26T09:17:24Z</time>
      </trkpt>
      <trkpt lat="48.65589" lon="7.27277">
        <ele>511.9</ele>
        <time>2011-06-26T09:17:28Z</time>
      </trkpt>
      <trkpt lat="48.65599" lon="7.27287">
        <ele>509.5</ele>
        <time>2011-06-26T09:17:32Z</time>
      </trkpt>
      <trkpt lat="48.65624" lon="7.27315">
        <ele>503.2</ele>
        <time>2011-06-26T09:17:39Z</time>
      </trkpt>
      <trkpt lat="48.6564" lon="7.27332">
        <ele>499</ele>
        <time>2011-06-26T09:17:44Z</time>
      </trkpt>
      <trkpt lat="48.65656" lon="7.2735">
        <ele>495.3</ele>
        <time>2011-06-26T09:17:49Z</time>
      </trkpt>
      <trkpt lat="48.65667" lon="7.27369">
        <ele>492</ele>
        <time>2011-06-26T09:17:54Z</time>
      </trkpt>
      <trkpt lat="48.65673" lon="7.27387">
        <ele>488.6</ele>
        <time>2011-06-26T09:17:59Z</time>
      </trkpt>
      <trkpt lat="48.65676" lon="7.27405">
        <ele>486.3</ele>
        <time>2011-06-26T09:18:03Z</time>
      </trkpt>
      <trkpt lat="48.65679" lon="7.2742">
        <ele>484.1</ele>
        <time>2011-06-26T09:18:07Z</time>
      </trkpt>
      <trkpt lat="48.6568" lon="7.27423">
        <ele>483.8</ele>
        <time>2011-06-26T09:18:08Z</time>
      </trkpt>
      <trkpt lat="48.65685" lon="7.27434">
        <ele>482</ele>
        <time>2011-06-26T09:18:12Z</time>
      </trkpt>
      <trkpt lat="48.65686" lon="7.27437">
        <ele>481.4</ele>
        <time>2011-06-26T09:18:13Z</time>
      </trkpt>
      <trkpt lat="48.65687" lon="7.27442">
        <ele>480.1</ele>
        <time>2011-06-26T09:18:18Z</time>
      </trkpt>
      <trkpt lat="48.65686" lon="7.27443">
        <ele>479.7</ele>
        <time>2011-06-26T09:18:33Z</time>
      </trkpt>
      <trkpt lat="48.65685" lon="7.27444">
        <ele>479.7</ele>
        <time>2011-06-26T09:18:38Z</time>
      </trkpt>
      <trkpt lat="48.65686" lon="7.27445">
        <ele>479.8</ele>
        <time>2011-06-26T09:18:39Z</time>
      </trkpt>
      <trkpt lat="48.65688" lon="7.27453">
        <ele>479.7</ele>
        <time>2011-06-26T09:18:43Z</time>
      </trkpt>
      <trkpt lat="48.65692" lon="7.27461">
        <ele>478.4</ele>
        <time>2011-06-26T09:18:46Z</time>
      </trkpt>
      <trkpt lat="48.65694" lon="7.27463">
        <ele>477.6</ele>
        <time>2011-06-26T09:18:48Z</time>
      </trkpt>
      <trkpt lat="48.65695" lon="7.27468">
        <ele>476.6</ele>
        <time>2011-06-26T09:18:51Z</time>
      </trkpt>
      <trkpt lat="48.65695" lon="7.27472">
        <ele>475.9</ele>
        <time>2011-06-26T09:18:56Z</time>
      </trkpt>
      <trkpt lat="48.65696" lon="7.27473">
        <ele>475.8</ele>
        <time>2011-06-26T09:18:57Z</time>
      </trkpt>
      <trkpt lat="48.65701" lon="7.27483">
        <ele>474.3</ele>
        <time>2011-06-26T09:19:02Z</time>
      </trkpt>
      <trkpt lat="48.65704" lon="7.2749">
        <ele>473.1</ele>
        <time>2011-06-26T09:19:05Z</time>
      </trkpt>
      <trkpt lat="48.6571" lon="7.27505">
        <ele>470.5</ele>
        <time>2011-06-26T09:19:11Z</time>
      </trkpt>
      <trkpt lat="48.65714" lon="7.27516">
        <ele>468.2</ele>
        <time>2011-06-26T09:19:15Z</time>
      </trkpt>
      <trkpt lat="48.65717" lon="7.27521">
        <ele>466.7</ele>
        <time>2011-06-26T09:19:20Z</time>
      </trkpt>
      <trkpt lat="48.65718" lon="7.27525">
        <ele>465.7</ele>
        <time>2011-06-26T09:19:28Z</time>
      </trkpt>
      <trkpt lat="48.65718" lon="7.27543">
        <ele>463.7</ele>
        <time>2011-06-26T09:19:32Z</time>
      </trkpt>
      <trkpt lat="48.65719" lon="7.27552">
        <ele>462.6</ele>
        <time>2011-06-26T09:19:35Z</time>
      </trkpt>
      <trkpt lat="48.65723" lon="7.27559">
        <ele>462.6</ele>
        <time>2011-06-26T09:19:42Z</time>
      </trkpt>
      <trkpt lat="48.65723" lon="7.2756">
        <ele>462.6</ele>
        <time>2011-06-26T09:19:43Z</time>
      </trkpt>
      <trkpt lat="48.65727" lon="7.27559">
        <ele>462.4</ele>
        <time>2011-06-26T09:19:49Z</time>
      </trkpt>
      <trkpt lat="48.65733" lon="7.27551">
        <ele>462.5</ele>
        <time>2011-06-26T09:19:54Z</time>
      </trkpt>
      <trkpt lat="48.65742" lon="7.27538">
        <ele>463</ele>
        <time>2011-06-26T09:20:00Z</time>
      </trkpt>
      <trkpt lat="48.65744" lon="7.27531">
        <ele>465.2</ele>
        <time>2011-06-26T09:20:06Z</time>
      </trkpt>
      <trkpt lat="48.65745" lon="7.27526">
        <ele>465.7</ele>
        <time>2011-06-26T09:20:10Z</time>
      </trkpt>
      <trkpt lat="48.65749" lon="7.27509">
        <ele>468</ele>
        <time>2011-06-26T09:20:18Z</time>
      </trkpt>
      <trkpt lat="48.65749" lon="7.27505">
        <ele>468.5</ele>
        <time>2011-06-26T09:20:20Z</time>
      </trkpt>
      <trkpt lat="48.6575" lon="7.27503">
        <ele>468.8</ele>
        <time>2011-06-26T09:20:21Z</time>
      </trkpt>
      <trkpt lat="48.6575" lon="7.27501">
        <ele>469.2</ele>
        <time>2011-06-26T09:20:22Z</time>
      </trkpt>
      <trkpt lat="48.6575" lon="7.27497">
        <ele>469.4</ele>
        <time>2011-06-26T09:20:23Z</time>
      </trkpt>
      <trkpt lat="48.65754" lon="7.27483">
        <ele>470.8</ele>
        <time>2011-06-26T09:20:30Z</time>
      </trkpt>
      <trkpt lat="48.65753" lon="7.2748">
        <ele>471.1</ele>
        <time>2011-06-26T09:20:31Z</time>
      </trkpt>
      <trkpt lat="48.65757" lon="7.27473">
        <ele>472.2</ele>
        <time>2011-06-26T09:20:35Z</time>
      </trkpt>
      <trkpt lat="48.65757" lon="7.27471">
        <ele>472.6</ele>
        <time>2011-06-26T09:20:36Z</time>
      </trkpt>
      <trkpt lat="48.65765" lon="7.27459">
        <ele>475.3</ele>
        <time>2011-06-26T09:20:45Z</time>
      </trkpt>
      <trkpt lat="48.65771" lon="7.27453">
        <ele>476.1</ele>
        <time>2011-06-26T09:20:52Z</time>
      </trkpt>
      <trkpt lat="48.65775" lon="7.2745">
        <ele>477</ele>
        <time>2011-06-26T09:20:58Z</time>
      </trkpt>
      <trkpt lat="48.65779" lon="7.27449">
        <ele>478</ele>
        <time>2011-06-26T09:21:04Z</time>
      </trkpt>
      <trkpt lat="48.65783" lon="7.27449">
        <ele>478.6</ele>
        <time>2011-06-26T09:21:09Z</time>
      </trkpt>
      <trkpt lat="48.65789" lon="7.27447">
        <ele>479.7</ele>
        <time>2011-06-26T09:21:16Z</time>
      </trkpt>
      <trkpt lat="48.65794" lon="7.27448">
        <ele>480.4</ele>
        <time>2011-06-26T09:21:22Z</time>
      </trkpt>
      <trkpt lat="48.65799" lon="7.27449">
        <ele>481.7</ele>
        <time>2011-06-26T09:21:30Z</time>
      </trkpt>
      <trkpt lat="48.65802" lon="7.2745">
        <ele>482.4</ele>
        <time>2011-06-26T09:21:35Z</time>
      </trkpt>
      <trkpt lat="48.65807" lon="7.27452">
        <ele>483.1</ele>
        <time>2011-06-26T09:21:40Z</time>
      </trkpt>
      <trkpt lat="48.6581" lon="7.27451">
        <ele>483.3</ele>
        <time>2011-06-26T09:21:47Z</time>
      </trkpt>
      <trkpt lat="48.65816" lon="7.27452">
        <ele>483.8</ele>
        <time>2011-06-26T09:21:51Z</time>
      </trkpt>
      <trkpt lat="48.65821" lon="7.27454">
        <ele>484.6</ele>
        <time>2011-06-26T09:21:54Z</time>
      </trkpt>
      <trkpt lat="48.65831" lon="7.27457">
        <ele>486.4</ele>
        <time>2011-06-26T09:22:00Z</time>
      </trkpt>
      <trkpt lat="48.65837" lon="7.27458">
        <ele>487.4</ele>
        <time>2011-06-26T09:22:05Z</time>
      </trkpt>
      <trkpt lat="48.6584" lon="7.2746">
        <ele>487.6</ele>
        <time>2011-06-26T09:22:07Z</time>
      </trkpt>
      <trkpt lat="48.65851" lon="7.27462">
        <ele>489.5</ele>
        <time>2011-06-26T09:22:14Z</time>
      </trkpt>
      <trkpt lat="48.65858" lon="7.27463">
        <ele>490.5</ele>
        <time>2011-06-26T09:22:20Z</time>
      </trkpt>
      <trkpt lat="48.65864" lon="7.27465">
        <ele>491.6</ele>
        <time>2011-06-26T09:22:24Z</time>
      </trkpt>
      <trkpt lat="48.65869" lon="7.27468">
        <ele>492.5</ele>
        <time>2011-06-26T09:22:28Z</time>
      </trkpt>
      <trkpt lat="48.65878" lon="7.27471">
        <ele>493.7</ele>
        <time>2011-06-26T09:22:34Z</time>
      </trkpt>
      <trkpt lat="48.65879" lon="7.27472">
        <ele>494.5</ele>
        <time>2011-06-26T09:22:36Z</time>
      </trkpt>
      <trkpt lat="48.65886" lon="7.27474">
        <ele>495.5</ele>
        <time>2011-06-26T09:22:42Z</time>
      </trkpt>
      <trkpt lat="48.65889" lon="7.27473">
        <ele>495.9</ele>
        <time>2011-06-26T09:22:45Z</time>
      </trkpt>
      <trkpt lat="48.65899" lon="7.27476">
        <ele>496.9</ele>
        <time>2011-06-26T09:22:52Z</time>
      </trkpt>
      <trkpt lat="48.65907" lon="7.27483">
        <ele>498.9</ele>
        <time>2011-06-26T09:22:59Z</time>
      </trkpt>
      <trkpt lat="48.65911" lon="7.27484">
        <ele>499.5</ele>
        <time>2011-06-26T09:23:06Z</time>
      </trkpt>
      <trkpt lat="48.65913" lon="7.27484">
        <ele>499.5</ele>
        <time>2011-06-26T09:23:16Z</time>
      </trkpt>
      <trkpt lat="48.65923" lon="7.27487">
        <ele>500.8</ele>
        <time>2011-06-26T09:23:25Z</time>
      </trkpt>
      <trkpt lat="48.65925" lon="7.27489">
        <ele>501.1</ele>
        <time>2011-06-26T09:23:27Z</time>
      </trkpt>
      <trkpt lat="48.65929" lon="7.27492">
        <ele>502</ele>
        <time>2011-06-26T09:23:30Z</time>
      </trkpt>
      <trkpt lat="48.65934" lon="7.27497">
        <ele>503.1</ele>
        <time>2011-06-26T09:23:35Z</time>
      </trkpt>
      <trkpt lat="48.6594" lon="7.27504">
        <ele>504.5</ele>
        <time>2011-06-26T09:23:42Z</time>
      </trkpt>
      <trkpt lat="48.65944" lon="7.27505">
        <ele>505.5</ele>
        <time>2011-06-26T09:23:47Z</time>
      </trkpt>
      <trkpt lat="48.65944" lon="7.27504">
        <ele>505.5</ele>
        <time>2011-06-26T09:23:51Z</time>
      </trkpt>
      <trkpt lat="48.65945" lon="7.27504">
        <ele>505.5</ele>
        <time>2011-06-26T09:23:52Z</time>
      </trkpt>
      <trkpt lat="48.65952" lon="7.27511">
        <ele>506.7</ele>
        <time>2011-06-26T09:23:59Z</time>
      </trkpt>
      <trkpt lat="48.6596" lon="7.27519">
        <ele>507.9</ele>
        <time>2011-06-26T09:24:06Z</time>
      </trkpt>
      <trkpt lat="48.65963" lon="7.27522">
        <ele>508.4</ele>
        <time>2011-06-26T09:24:09Z</time>
      </trkpt>
      <trkpt lat="48.65976" lon="7.27529">
        <ele>508.9</ele>
        <time>2011-06-26T09:24:17Z</time>
      </trkpt>
      <trkpt lat="48.65988" lon="7.27542">
        <ele>509.6</ele>
        <time>2011-06-26T09:24:25Z</time>
      </trkpt>
      <trkpt lat="48.65994" lon="7.27542">
        <ele>509.7</ele>
        <time>2011-06-26T09:24:29Z</time>
      </trkpt>
      <trkpt lat="48.66001" lon="7.27548">
        <ele>509.8</ele>
        <time>2011-06-26T09:24:34Z</time>
      </trkpt>
      <trkpt lat="48.66012" lon="7.27557">
        <ele>510.1</ele>
        <time>2011-06-26T09:24:40Z</time>
      </trkpt>
      <trkpt lat="48.66022" lon="7.27569">
        <ele>510</ele>
        <time>2011-06-26T09:24:46Z</time>
      </trkpt>
      <trkpt lat="48.6602" lon="7.27576">
        <ele>510</ele>
        <time>2011-06-26T09:24:51Z</time>
      </trkpt>
      <trkpt lat="48.66018" lon="7.27578">
        <ele>510.2</ele>
        <time>2011-06-26T09:24:53Z</time>
      </trkpt>
      <trkpt lat="48.66015" lon="7.27582">
        <ele>510.4</ele>
        <time>2011-06-26T09:24:56Z</time>
      </trkpt>
      <trkpt lat="48.66013" lon="7.27584">
        <ele>510.7</ele>
        <time>2011-06-26T09:24:58Z</time>
      </trkpt>
      <trkpt lat="48.66004" lon="7.2759">
        <ele>511.3</ele>
        <time>2011-06-26T09:25:05Z</time>
      </trkpt>
      <trkpt lat="48.65999" lon="7.27591">
        <ele>511.5</ele>
        <time>2011-06-26T09:25:09Z</time>
      </trkpt>
      <trkpt lat="48.6599" lon="7.27588">
        <ele>511.9</ele>
        <time>2011-06-26T09:25:15Z</time>
      </trkpt>
      <trkpt lat="48.65987" lon="7.27585">
        <ele>512.2</ele>
        <time>2011-06-26T09:25:21Z</time>
      </trkpt>
      <trkpt lat="48.65982" lon="7.2758">
        <ele>512.1</ele>
        <time>2011-06-26T09:25:35Z</time>
      </trkpt>
      <trkpt lat="48.65974" lon="7.27581">
        <ele>512.5</ele>
        <time>2011-06-26T09:25:39Z</time>
      </trkpt>
      <trkpt lat="48.65968" lon="7.27583">
        <ele>512.8</ele>
        <time>2011-06-26T09:25:44Z</time>
      </trkpt>
      <trkpt lat="48.65962" lon="7.27596">
        <ele>514.2</ele>
        <time>2011-06-26T09:25:50Z</time>
      </trkpt>
      <trkpt lat="48.65966" lon="7.27614">
        <ele>515.6</ele>
        <time>2011-06-26T09:25:57Z</time>
      </trkpt>
      <trkpt lat="48.65967" lon="7.27623">
        <ele>516.5</ele>
        <time>2011-06-26T09:26:01Z</time>
      </trkpt>
      <trkpt lat="48.65973" lon="7.27642">
        <ele>518.5</ele>
        <time>2011-06-26T09:26:10Z</time>
      </trkpt>
      <trkpt lat="48.65976" lon="7.27658">
        <ele>519.9</ele>
        <time>2011-06-26T09:26:17Z</time>
      </trkpt>
      <trkpt lat="48.65979" lon="7.27674">
        <ele>521.6</ele>
        <time>2011-06-26T09:26:24Z</time>
      </trkpt>
      <trkpt lat="48.65979" lon="7.27689">
        <ele>523.5</ele>
        <time>2011-06-26T09:26:31Z</time>
      </trkpt>
      <trkpt lat="48.65978" lon="7.277">
        <ele>524.4</ele>
        <time>2011-06-26T09:26:37Z</time>
      </trkpt>
      <trkpt lat="48.65973" lon="7.27715">
        <ele>525.9</ele>
        <time>2011-06-26T09:26:45Z</time>
      </trkpt>
      <trkpt lat="48.65959" lon="7.27728">
        <ele>527.7</ele>
        <time>2011-06-26T09:26:56Z</time>
      </trkpt>
      <trkpt lat="48.65948" lon="7.27734">
        <ele>528.8</ele>
        <time>2011-06-26T09:27:03Z</time>
      </trkpt>
      <trkpt lat="48.65939" lon="7.27747">
        <ele>529.8</ele>
        <time>2011-06-26T09:27:11Z</time>
      </trkpt>
      <trkpt lat="48.65931" lon="7.27764">
        <ele>531.3</ele>
        <time>2011-06-26T09:27:20Z</time>
      </trkpt>
      <trkpt lat="48.65927" lon="7.27779">
        <ele>532.5</ele>
        <time>2011-06-26T09:27:28Z</time>
      </trkpt>
      <trkpt lat="48.65926" lon="7.27788">
        <ele>533.4</ele>
        <time>2011-06-26T09:27:33Z</time>
      </trkpt>
      <trkpt lat="48.65924" lon="7.27801">
        <ele>534.4</ele>
        <time>2011-06-26T09:27:39Z</time>
      </trkpt>
      <trkpt lat="48.65925" lon="7.27803">
        <ele>534.5</ele>
        <time>2011-06-26T09:27:40Z</time>
      </trkpt>
      <trkpt lat="48.65934" lon="7.27822">
        <ele>535.3</ele>
        <time>2011-06-26T09:27:48Z</time>
      </trkpt>
      <trkpt lat="48.6595" lon="7.27831">
        <ele>535.5</ele>
        <time>2011-06-26T09:27:55Z</time>
      </trkpt>
      <trkpt lat="48.65964" lon="7.27842">
        <ele>535.3</ele>
        <time>2011-06-26T09:28:00Z</time>
      </trkpt>
      <trkpt lat="48.65974" lon="7.27852">
        <ele>535.1</ele>
        <time>2011-06-26T09:28:03Z</time>
      </trkpt>
      <trkpt lat="48.65996" lon="7.27874">
        <ele>535.1</ele>
        <time>2011-06-26T09:28:09Z</time>
      </trkpt>
      <trkpt lat="48.66011" lon="7.27886">
        <ele>535</ele>
        <time>2011-06-26T09:28:13Z</time>
      </trkpt>
      <trkpt lat="48.66018" lon="7.27893">
        <ele>534.9</ele>
        <time>2011-06-26T09:28:15Z</time>
      </trkpt>
      <trkpt lat="48.66037" lon="7.27917">
        <ele>534.2</ele>
        <time>2011-06-26T09:28:20Z</time>
      </trkpt>
      <trkpt lat="48.66067" lon="7.27954">
        <ele>532.3</ele>
        <time>2011-06-26T09:28:26Z</time>
      </trkpt>
      <trkpt lat="48.66072" lon="7.27959">
        <ele>532.2</ele>
        <time>2011-06-26T09:28:27Z</time>
      </trkpt>
      <trkpt lat="48.66095" lon="7.27967">
        <ele>532</ele>
        <time>2011-06-26T09:28:32Z</time>
      </trkpt>
      <trkpt lat="48.66118" lon="7.27961">
        <ele>532.2</ele>
        <time>2011-06-26T09:28:38Z</time>
      </trkpt>
      <trkpt lat="48.66142" lon="7.27939">
        <ele>530.4</ele>
        <time>2011-06-26T09:28:44Z</time>
      </trkpt>
      <trkpt lat="48.66151" lon="7.27935">
        <ele>530</ele>
        <time>2011-06-26T09:28:46Z</time>
      </trkpt>
      <trkpt lat="48.66178" lon="7.2793">
        <ele>529.8</ele>
        <time>2011-06-26T09:28:53Z</time>
      </trkpt>
      <trkpt lat="48.66194" lon="7.27927">
        <ele>530.3</ele>
        <time>2011-06-26T09:28:58Z</time>
      </trkpt>
      <trkpt lat="48.66209" lon="7.27924">
        <ele>530.4</ele>
        <time>2011-06-26T09:29:03Z</time>
      </trkpt>
      <trkpt lat="48.66221" lon="7.27919">
        <ele>530.4</ele>
        <time>2011-06-26T09:29:08Z</time>
      </trkpt>
      <trkpt lat="48.66235" lon="7.27918">
        <ele>530.7</ele>
        <time>2011-06-26T09:29:14Z</time>
      </trkpt>
      <trkpt lat="48.66247" lon="7.27913">
        <ele>531.3</ele>
        <time>2011-06-26T09:29:19Z</time>
      </trkpt>
      <trkpt lat="48.66264" lon="7.27901">
        <ele>532.1</ele>
        <time>2011-06-26T09:29:26Z</time>
      </trkpt>
      <trkpt lat="48.66276" lon="7.2789">
        <ele>532.7</ele>
        <time>2011-06-26T09:29:31Z</time>
      </trkpt>
      <trkpt lat="48.66288" lon="7.2788">
        <ele>533.4</ele>
        <time>2011-06-26T09:29:36Z</time>
      </trkpt>
      <trkpt lat="48.66304" lon="7.27868">
        <ele>534.7</ele>
        <time>2011-06-26T09:29:43Z</time>
      </trkpt>
      <trkpt lat="48.66315" lon="7.27862">
        <ele>536.1</ele>
        <time>2011-06-26T09:29:48Z</time>
      </trkpt>
      <trkpt lat="48.66326" lon="7.27861">
        <ele>537.3</ele>
        <time>2011-06-26T09:29:54Z</time>
      </trkpt>
      <trkpt lat="48.66334" lon="7.27864">
        <ele>538.1</ele>
        <time>2011-06-26T09:29:59Z</time>
      </trkpt>
      <trkpt lat="48.66337" lon="7.27866">
        <ele>538.3</ele>
        <time>2011-06-26T09:30:01Z</time>
      </trkpt>
      <trkpt lat="48.66343" lon="7.27874">
        <ele>538.8</ele>
        <time>2011-06-26T09:30:05Z</time>
      </trkpt>
      <trkpt lat="48.66357" lon="7.27892">
        <ele>539.7</ele>
        <time>2011-06-26T09:30:12Z</time>
      </trkpt>
      <trkpt lat="48.66368" lon="7.27912">
        <ele>540.4</ele>
        <time>2011-06-26T09:30:18Z</time>
      </trkpt>
      <trkpt lat="48.6638" lon="7.27938">
        <ele>540.9</ele>
        <time>2011-06-26T09:30:25Z</time>
      </trkpt>
      <trkpt lat="48.66389" lon="7.27954">
        <ele>540.6</ele>
        <time>2011-06-26T09:30:29Z</time>
      </trkpt>
      <trkpt lat="48.66409" lon="7.27984">
        <ele>539.7</ele>
        <time>2011-06-26T09:30:35Z</time>
      </trkpt>
      <trkpt lat="48.66413" lon="7.2799">
        <ele>539.5</ele>
        <time>2011-06-26T09:30:36Z</time>
      </trkpt>
      <trkpt lat="48.66442" lon="7.28046">
        <ele>537.4</ele>
        <time>2011-06-26T09:30:44Z</time>
      </trkpt>
      <trkpt lat="48.66445" lon="7.28053">
        <ele>537.3</ele>
        <time>2011-06-26T09:30:45Z</time>
      </trkpt>
      <trkpt lat="48.66455" lon="7.28083">
        <ele>536.2</ele>
        <time>2011-06-26T09:30:49Z</time>
      </trkpt>
      <trkpt lat="48.66465" lon="7.28115">
        <ele>535.6</ele>
        <time>2011-06-26T09:30:53Z</time>
      </trkpt>
      <trkpt lat="48.66483" lon="7.2815">
        <ele>535.1</ele>
        <time>2011-06-26T09:30:58Z</time>
      </trkpt>
      <trkpt lat="48.66503" lon="7.28191">
        <ele>534.7</ele>
        <time>2011-06-26T09:31:04Z</time>
      </trkpt>
      <trkpt lat="48.6653" lon="7.28238">
        <ele>533.8</ele>
        <time>2011-06-26T09:31:11Z</time>
      </trkpt>
      <trkpt lat="48.66534" lon="7.28244">
        <ele>533.8</ele>
        <time>2011-06-26T09:31:12Z</time>
      </trkpt>
      <trkpt lat="48.66579" lon="7.28278">
        <ele>533.6</ele>
        <time>2011-06-26T09:31:21Z</time>
      </trkpt>
      <trkpt lat="48.66587" lon="7.28283">
        <ele>533.7</ele>
        <time>2011-06-26T09:31:23Z</time>
      </trkpt>
      <trkpt lat="48.66605" lon="7.28307">
        <ele>534.2</ele>
        <time>2011-06-26T09:31:29Z</time>
      </trkpt>
      <trkpt lat="48.6662" lon="7.28324">
        <ele>535.4</ele>
        <time>2011-06-26T09:31:35Z</time>
      </trkpt>
      <trkpt lat="48.66638" lon="7.28339">
        <ele>535.9</ele>
        <time>2011-06-26T09:31:41Z</time>
      </trkpt>
      <trkpt lat="48.6666" lon="7.28357">
        <ele>536</ele>
        <time>2011-06-26T09:31:48Z</time>
      </trkpt>
      <trkpt lat="48.66666" lon="7.28363">
        <ele>535.8</ele>
        <time>2011-06-26T09:31:50Z</time>
      </trkpt>
      <trkpt lat="48.66678" lon="7.28371">
        <ele>535.7</ele>
        <time>2011-06-26T09:31:53Z</time>
      </trkpt>
      <trkpt lat="48.66699" lon="7.28398">
        <ele>535.5</ele>
        <time>2011-06-26T09:31:59Z</time>
      </trkpt>
      <trkpt lat="48.66726" lon="7.28426">
        <ele>535</ele>
        <time>2011-06-26T09:32:06Z</time>
      </trkpt>
      <trkpt lat="48.6673" lon="7.28431">
        <ele>534.9</ele>
        <time>2011-06-26T09:32:07Z</time>
      </trkpt>
      <trkpt lat="48.66745" lon="7.28449">
        <ele>534.5</ele>
        <time>2011-06-26T09:32:12Z</time>
      </trkpt>
      <trkpt lat="48.6676" lon="7.28455">
        <ele>533.8</ele>
        <time>2011-06-26T09:32:16Z</time>
      </trkpt>
      <trkpt lat="48.66763" lon="7.28457">
        <ele>533.6</ele>
        <time>2011-06-26T09:32:17Z</time>
      </trkpt>
      <trkpt lat="48.66771" lon="7.28463">
        <ele>533.2</ele>
        <time>2011-06-26T09:32:19Z</time>
      </trkpt>
      <trkpt lat="48.66787" lon="7.2848">
        <ele>531.2</ele>
        <time>2011-06-26T09:32:24Z</time>
      </trkpt>
      <trkpt lat="48.66798" lon="7.28493">
        <ele>529.7</ele>
        <time>2011-06-26T09:32:27Z</time>
      </trkpt>
      <trkpt lat="48.66801" lon="7.28498">
        <ele>529.1</ele>
        <time>2011-06-26T09:32:28Z</time>
      </trkpt>
      <trkpt lat="48.66812" lon="7.28516">
        <ele>527.7</ele>
        <time>2011-06-26T09:32:31Z</time>
      </trkpt>
      <trkpt lat="48.66815" lon="7.28522">
        <ele>527.1</ele>
        <time>2011-06-26T09:32:32Z</time>
      </trkpt>
      <trkpt lat="48.66826" lon="7.28546">
        <ele>525.3</ele>
        <time>2011-06-26T09:32:36Z</time>
      </trkpt>
      <trkpt lat="48.66829" lon="7.2856">
        <ele>524.2</ele>
        <time>2011-06-26T09:32:38Z</time>
      </trkpt>
      <trkpt lat="48.66833" lon="7.28575">
        <ele>523.3</ele>
        <time>2011-06-26T09:32:40Z</time>
      </trkpt>
      <trkpt lat="48.66845" lon="7.28603">
        <ele>519.8</ele>
        <time>2011-06-26T09:32:44Z</time>
      </trkpt>
      <trkpt lat="48.66854" lon="7.28624">
        <ele>517.9</ele>
        <time>2011-06-26T09:32:47Z</time>
      </trkpt>
      <trkpt lat="48.66861" lon="7.2864">
        <ele>517</ele>
        <time>2011-06-26T09:32:49Z</time>
      </trkpt>
      <trkpt lat="48.66866" lon="7.28649">
        <ele>516.5</ele>
        <time>2011-06-26T09:32:50Z</time>
      </trkpt>
      <trkpt lat="48.66874" lon="7.28663">
        <ele>515.4</ele>
        <time>2011-06-26T09:32:52Z</time>
      </trkpt>
      <trkpt lat="48.66881" lon="7.28677">
        <ele>514.3</ele>
        <time>2011-06-26T09:32:54Z</time>
      </trkpt>
      <trkpt lat="48.66894" lon="7.28699">
        <ele>511.2</ele>
        <time>2011-06-26T09:32:58Z</time>
      </trkpt>
      <trkpt lat="48.66917" lon="7.28723">
        <ele>508.7</ele>
        <time>2011-06-26T09:33:03Z</time>
      </trkpt>
      <trkpt lat="48.66935" lon="7.28734">
        <ele>508.2</ele>
        <time>2011-06-26T09:33:07Z</time>
      </trkpt>
      <trkpt lat="48.66952" lon="7.28737">
        <ele>507.9</ele>
        <time>2011-06-26T09:33:10Z</time>
      </trkpt>
      <trkpt lat="48.66974" lon="7.2874">
        <ele>507.9</ele>
        <time>2011-06-26T09:33:14Z</time>
      </trkpt>
      <trkpt lat="48.6701" lon="7.28747">
        <ele>508.7</ele>
        <time>2011-06-26T09:33:20Z</time>
      </trkpt>
      <trkpt lat="48.67031" lon="7.28747">
        <ele>509</ele>
        <time>2011-06-26T09:33:24Z</time>
      </trkpt>
      <trkpt lat="48.67055" lon="7.28753">
        <ele>509.3</ele>
        <time>2011-06-26T09:33:29Z</time>
      </trkpt>
      <trkpt lat="48.6707" lon="7.28756">
        <ele>510.1</ele>
        <time>2011-06-26T09:33:33Z</time>
      </trkpt>
      <trkpt lat="48.67091" lon="7.28763">
        <ele>510.8</ele>
        <time>2011-06-26T09:33:39Z</time>
      </trkpt>
      <trkpt lat="48.6711" lon="7.28768">
        <ele>511.3</ele>
        <time>2011-06-26T09:33:44Z</time>
      </trkpt>
      <trkpt lat="48.67131" lon="7.28774">
        <ele>511.6</ele>
        <time>2011-06-26T09:33:49Z</time>
      </trkpt>
      <trkpt lat="48.67147" lon="7.28779">
        <ele>511.3</ele>
        <time>2011-06-26T09:33:53Z</time>
      </trkpt>
      <trkpt lat="48.67155" lon="7.28783">
        <ele>511.1</ele>
        <time>2011-06-26T09:33:55Z</time>
      </trkpt>
      <trkpt lat="48.67175" lon="7.28793">
        <ele>511.3</ele>
        <time>2011-06-26T09:34:00Z</time>
      </trkpt>
      <trkpt lat="48.67191" lon="7.28803">
        <ele>511.9</ele>
        <time>2011-06-26T09:34:04Z</time>
      </trkpt>
      <trkpt lat="48.67193" lon="7.28806">
        <ele>512.2</ele>
        <time>2011-06-26T09:34:05Z</time>
      </trkpt>
      <trkpt lat="48.67205" lon="7.28806">
        <ele>513.4</ele>
        <time>2011-06-26T09:34:09Z</time>
      </trkpt>
      <trkpt lat="48.67224" lon="7.28813">
        <ele>513.4</ele>
        <time>2011-06-26T09:34:14Z</time>
      </trkpt>
      <trkpt lat="48.67241" lon="7.28824">
        <ele>514</ele>
        <time>2011-06-26T09:34:19Z</time>
      </trkpt>
      <trkpt lat="48.67258" lon="7.28835">
        <ele>514.2</ele>
        <time>2011-06-26T09:34:24Z</time>
      </trkpt>
      <trkpt lat="48.67265" lon="7.28841">
        <ele>514.2</ele>
        <time>2011-06-26T09:34:26Z</time>
      </trkpt>
      <trkpt lat="48.67278" lon="7.2885">
        <ele>514.3</ele>
        <time>2011-06-26T09:34:31Z</time>
      </trkpt>
      <trkpt lat="48.67285" lon="7.28853">
        <ele>514.4</ele>
        <time>2011-06-26T09:34:33Z</time>
      </trkpt>
      <trkpt lat="48.67301" lon="7.28861">
        <ele>515.2</ele>
        <time>2011-06-26T09:34:38Z</time>
      </trkpt>
      <trkpt lat="48.67316" lon="7.28869">
        <ele>515.2</ele>
        <time>2011-06-26T09:34:42Z</time>
      </trkpt>
      <trkpt lat="48.6733" lon="7.28882">
        <ele>514.9</ele>
        <time>2011-06-26T09:34:46Z</time>
      </trkpt>
      <trkpt lat="48.67333" lon="7.28886">
        <ele>514.8</ele>
        <time>2011-06-26T09:34:47Z</time>
      </trkpt>
      <trkpt lat="48.6734" lon="7.28896">
        <ele>514.6</ele>
        <time>2011-06-26T09:34:49Z</time>
      </trkpt>
      <trkpt lat="48.6735" lon="7.28919">
        <ele>514.2</ele>
        <time>2011-06-26T09:34:53Z</time>
      </trkpt>
      <trkpt lat="48.67368" lon="7.28951">
        <ele>513.9</ele>
        <time>2011-06-26T09:34:59Z</time>
      </trkpt>
      <trkpt lat="48.67385" lon="7.28985">
        <ele>513.6</ele>
        <time>2011-06-26T09:35:06Z</time>
      </trkpt>
      <trkpt lat="48.67395" lon="7.29007">
        <ele>513.6</ele>
        <time>2011-06-26T09:35:11Z</time>
      </trkpt>
      <trkpt lat="48.67413" lon="7.29031">
        <ele>513.6</ele>
        <time>2011-06-26T09:35:17Z</time>
      </trkpt>
      <trkpt lat="48.67419" lon="7.2904">
        <ele>513.3</ele>
        <time>2011-06-26T09:35:19Z</time>
      </trkpt>
      <trkpt lat="48.67437" lon="7.29063">
        <ele>512.6</ele>
        <time>2011-06-26T09:35:25Z</time>
      </trkpt>
      <trkpt lat="48.67449" lon="7.29073">
        <ele>512.4</ele>
        <time>2011-06-26T09:35:29Z</time>
      </trkpt>
      <trkpt lat="48.67463" lon="7.29084">
        <ele>512.1</ele>
        <time>2011-06-26T09:35:33Z</time>
      </trkpt>
      <trkpt lat="48.67477" lon="7.29089">
        <ele>512.5</ele>
        <time>2011-06-26T09:35:37Z</time>
      </trkpt>
      <trkpt lat="48.67495" lon="7.29088">
        <ele>512.4</ele>
        <time>2011-06-26T09:35:41Z</time>
      </trkpt>
      <trkpt lat="48.67523" lon="7.29086">
        <ele>511.9</ele>
        <time>2011-06-26T09:35:46Z</time>
      </trkpt>
      <trkpt lat="48.67542" lon="7.29086">
        <ele>513.3</ele>
        <time>2011-06-26T09:35:50Z</time>
      </trkpt>
      <trkpt lat="48.67568" lon="7.29081">
        <ele>515.7</ele>
        <time>2011-06-26T09:35:56Z</time>
      </trkpt>
      <trkpt lat="48.67586" lon="7.29077">
        <ele>517.2</ele>
        <time>2011-06-26T09:36:01Z</time>
      </trkpt>
      <trkpt lat="48.67601" lon="7.29076">
        <ele>518.7</ele>
        <time>2011-06-26T09:36:06Z</time>
      </trkpt>
      <trkpt lat="48.67614" lon="7.29074">
        <ele>519.9</ele>
        <time>2011-06-26T09:36:11Z</time>
      </trkpt>
      <trkpt lat="48.6763" lon="7.29076">
        <ele>520.6</ele>
        <time>2011-06-26T09:36:17Z</time>
      </trkpt>
      <trkpt lat="48.67648" lon="7.29077">
        <ele>521.2</ele>
        <time>2011-06-26T09:36:23Z</time>
      </trkpt>
      <trkpt lat="48.67666" lon="7.29084">
        <ele>522.1</ele>
        <time>2011-06-26T09:36:29Z</time>
      </trkpt>
      <trkpt lat="48.67686" lon="7.29096">
        <ele>522.9</ele>
        <time>2011-06-26T09:36:36Z</time>
      </trkpt>
      <trkpt lat="48.67707" lon="7.29108">
        <ele>523.5</ele>
        <time>2011-06-26T09:36:43Z</time>
      </trkpt>
      <trkpt lat="48.67712" lon="7.29112">
        <ele>523.7</ele>
        <time>2011-06-26T09:36:45Z</time>
      </trkpt>
      <trkpt lat="48.67715" lon="7.29114">
        <ele>523.8</ele>
        <time>2011-06-26T09:36:46Z</time>
      </trkpt>
      <trkpt lat="48.67733" lon="7.29133">
        <ele>524</ele>
        <time>2011-06-26T09:36:53Z</time>
      </trkpt>
      <trkpt lat="48.67744" lon="7.29141">
        <ele>524.3</ele>
        <time>2011-06-26T09:36:57Z</time>
      </trkpt>
      <trkpt lat="48.67747" lon="7.29143">
        <ele>524.2</ele>
        <time>2011-06-26T09:36:58Z</time>
      </trkpt>
      <trkpt lat="48.67762" lon="7.29169">
        <ele>523.1</ele>
        <time>2011-06-26T09:37:03Z</time>
      </trkpt>
      <trkpt lat="48.67773" lon="7.29205">
        <ele>520.8</ele>
        <time>2011-06-26T09:37:09Z</time>
      </trkpt>
      <trkpt lat="48.67774" lon="7.29208">
        <ele>520.5</ele>
        <time>2011-06-26T09:37:10Z</time>
      </trkpt>
      <trkpt lat="48.67777" lon="7.29224">
        <ele>518</ele>
        <time>2011-06-26T09:37:14Z</time>
      </trkpt>
      <trkpt lat="48.67773" lon="7.29246">
        <ele>514.5</ele>
        <time>2011-06-26T09:37:20Z</time>
      </trkpt>
      <trkpt lat="48.67768" lon="7.29257">
        <ele>513</ele>
        <time>2011-06-26T09:37:22Z</time>
      </trkpt>
      <trkpt lat="48.67755" lon="7.29286">
        <ele>510.4</ele>
        <time>2011-06-26T09:37:26Z</time>
      </trkpt>
      <trkpt lat="48.67746" lon="7.29308">
        <ele>508.5</ele>
        <time>2011-06-26T09:37:29Z</time>
      </trkpt>
      <trkpt lat="48.67746" lon="7.29313">
        <ele>507.7</ele>
        <time>2011-06-26T09:37:30Z</time>
      </trkpt>
      <trkpt lat="48.67744" lon="7.29317">
        <ele>507</ele>
        <time>2011-06-26T09:37:31Z</time>
      </trkpt>
      <trkpt lat="48.67735" lon="7.29344">
        <ele>503.6</ele>
        <time>2011-06-26T09:37:36Z</time>
      </trkpt>
      <trkpt lat="48.67728" lon="7.29364">
        <ele>500.7</ele>
        <time>2011-06-26T09:37:41Z</time>
      </trkpt>
      <trkpt lat="48.67727" lon="7.29368">
        <ele>500.4</ele>
        <time>2011-06-26T09:37:42Z</time>
      </trkpt>
      <trkpt lat="48.67725" lon="7.29376">
        <ele>499.1</ele>
        <time>2011-06-26T09:37:44Z</time>
      </trkpt>
      <trkpt lat="48.67723" lon="7.2938">
        <ele>498</ele>
        <time>2011-06-26T09:37:46Z</time>
      </trkpt>
      <trkpt lat="48.67722" lon="7.29381">
        <ele>497.4</ele>
        <time>2011-06-26T09:37:50Z</time>
      </trkpt>
      <trkpt lat="48.67722" lon="7.29383">
        <ele>497.1</ele>
        <time>2011-06-26T09:37:53Z</time>
      </trkpt>
      <trkpt lat="48.67716" lon="7.29397">
        <ele>496.2</ele>
        <time>2011-06-26T09:37:58Z</time>
      </trkpt>
      <trkpt lat="48.6771" lon="7.29418">
        <ele>494.5</ele>
        <time>2011-06-26T09:38:02Z</time>
      </trkpt>
      <trkpt lat="48.67709" lon="7.29431">
        <ele>493.6</ele>
        <time>2011-06-26T09:38:04Z</time>
      </trkpt>
      <trkpt lat="48.67704" lon="7.29449">
        <ele>491.5</ele>
        <time>2011-06-26T09:38:07Z</time>
      </trkpt>
      <trkpt lat="48.67702" lon="7.29474">
        <ele>489.4</ele>
        <time>2011-06-26T09:38:11Z</time>
      </trkpt>
      <trkpt lat="48.67701" lon="7.29486">
        <ele>488.7</ele>
        <time>2011-06-26T09:38:13Z</time>
      </trkpt>
      <trkpt lat="48.67699" lon="7.29505">
        <ele>487.1</ele>
        <time>2011-06-26T09:38:16Z</time>
      </trkpt>
      <trkpt lat="48.67685" lon="7.29542">
        <ele>487</ele>
        <time>2011-06-26T09:38:23Z</time>
      </trkpt>
      <trkpt lat="48.67675" lon="7.29575">
        <ele>487.5</ele>
        <time>2011-06-26T09:38:29Z</time>
      </trkpt>
      <trkpt lat="48.67667" lon="7.29607">
        <ele>487.7</ele>
        <time>2011-06-26T09:38:35Z</time>
      </trkpt>
      <trkpt lat="48.67662" lon="7.29633">
        <ele>487.7</ele>
        <time>2011-06-26T09:38:40Z</time>
      </trkpt>
      <trkpt lat="48.6766" lon="7.29639">
        <ele>487.8</ele>
        <time>2011-06-26T09:38:41Z</time>
      </trkpt>
      <trkpt lat="48.67656" lon="7.29665">
        <ele>488.1</ele>
        <time>2011-06-26T09:38:46Z</time>
      </trkpt>
      <trkpt lat="48.67654" lon="7.29693">
        <ele>488.6</ele>
        <time>2011-06-26T09:38:51Z</time>
      </trkpt>
      <trkpt lat="48.67653" lon="7.29717">
        <ele>488.8</ele>
        <time>2011-06-26T09:38:55Z</time>
      </trkpt>
      <trkpt lat="48.67658" lon="7.29744">
        <ele>488.7</ele>
        <time>2011-06-26T09:38:59Z</time>
      </trkpt>
      <trkpt lat="48.67661" lon="7.29757">
        <ele>488.8</ele>
        <time>2011-06-26T09:39:01Z</time>
      </trkpt>
      <trkpt lat="48.6767" lon="7.2978">
        <ele>489</ele>
        <time>2011-06-26T09:39:05Z</time>
      </trkpt>
      <trkpt lat="48.67683" lon="7.29807">
        <ele>489.4</ele>
        <time>2011-06-26T09:39:10Z</time>
      </trkpt>
      <trkpt lat="48.67696" lon="7.29832">
        <ele>489.9</ele>
        <time>2011-06-26T09:39:15Z</time>
      </trkpt>
      <trkpt lat="48.67708" lon="7.29855">
        <ele>490.4</ele>
        <time>2011-06-26T09:39:20Z</time>
      </trkpt>
      <trkpt lat="48.67716" lon="7.29872">
        <ele>490.9</ele>
        <time>2011-06-26T09:39:25Z</time>
      </trkpt>
      <trkpt lat="48.67731" lon="7.2989">
        <ele>491.2</ele>
        <time>2011-06-26T09:39:30Z</time>
      </trkpt>
      <trkpt lat="48.67746" lon="7.2991">
        <ele>491.5</ele>
        <time>2011-06-26T09:39:34Z</time>
      </trkpt>
      <trkpt lat="48.67776" lon="7.29957">
        <ele>491.3</ele>
        <time>2011-06-26T09:39:42Z</time>
      </trkpt>
      <trkpt lat="48.67795" lon="7.30017">
        <ele>490</ele>
        <time>2011-06-26T09:39:49Z</time>
      </trkpt>
      <trkpt lat="48.67809" lon="7.3007">
        <ele>488.7</ele>
        <time>2011-06-26T09:39:55Z</time>
      </trkpt>
      <trkpt lat="48.67825" lon="7.30118">
        <ele>488.6</ele>
        <time>2011-06-26T09:40:01Z</time>
      </trkpt>
      <trkpt lat="48.6783" lon="7.30133">
        <ele>488.7</ele>
        <time>2011-06-26T09:40:03Z</time>
      </trkpt>
      <trkpt lat="48.67834" lon="7.30161">
        <ele>490.4</ele>
        <time>2011-06-26T09:40:08Z</time>
      </trkpt>
      <trkpt lat="48.67842" lon="7.30177">
        <ele>491.4</ele>
        <time>2011-06-26T09:40:12Z</time>
      </trkpt>
      <trkpt lat="48.67845" lon="7.30182">
        <ele>491.6</ele>
        <time>2011-06-26T09:40:13Z</time>
      </trkpt>
      <trkpt lat="48.67856" lon="7.30198">
        <ele>492</ele>
        <time>2011-06-26T09:40:17Z</time>
      </trkpt>
      <trkpt lat="48.67864" lon="7.30213">
        <ele>492.4</ele>
        <time>2011-06-26T09:40:21Z</time>
      </trkpt>
      <trkpt lat="48.67883" lon="7.30242">
        <ele>492.9</ele>
        <time>2011-06-26T09:40:28Z</time>
      </trkpt>
      <trkpt lat="48.67902" lon="7.30274">
        <ele>493.5</ele>
        <time>2011-06-26T09:40:35Z</time>
      </trkpt>
      <trkpt lat="48.67913" lon="7.30298">
        <ele>494.3</ele>
        <time>2011-06-26T09:40:40Z</time>
      </trkpt>
      <trkpt lat="48.67924" lon="7.30318">
        <ele>495.2</ele>
        <time>2011-06-26T09:40:45Z</time>
      </trkpt>
      <trkpt lat="48.67933" lon="7.30338">
        <ele>495.9</ele>
        <time>2011-06-26T09:40:50Z</time>
      </trkpt>
      <trkpt lat="48.67939" lon="7.30359">
        <ele>496.6</ele>
        <time>2011-06-26T09:40:55Z</time>
      </trkpt>
      <trkpt lat="48.67949" lon="7.30382">
        <ele>497.2</ele>
        <time>2011-06-26T09:41:01Z</time>
      </trkpt>
      <trkpt lat="48.6796" lon="7.30405">
        <ele>497.2</ele>
        <time>2011-06-26T09:41:07Z</time>
      </trkpt>
      <trkpt lat="48.67971" lon="7.30427">
        <ele>496.4</ele>
        <time>2011-06-26T09:41:12Z</time>
      </trkpt>
      <trkpt lat="48.67982" lon="7.30449">
        <ele>495.4</ele>
        <time>2011-06-26T09:41:17Z</time>
      </trkpt>
      <trkpt lat="48.67994" lon="7.30479">
        <ele>494.5</ele>
        <time>2011-06-26T09:41:23Z</time>
      </trkpt>
      <trkpt lat="48.68003" lon="7.30504">
        <ele>494.1</ele>
        <time>2011-06-26T09:41:28Z</time>
      </trkpt>
      <trkpt lat="48.6801" lon="7.30521">
        <ele>494</ele>
        <time>2011-06-26T09:41:31Z</time>
      </trkpt>
      <trkpt lat="48.68022" lon="7.30551">
        <ele>493.5</ele>
        <time>2011-06-26T09:41:36Z</time>
      </trkpt>
      <trkpt lat="48.68025" lon="7.30562">
        <ele>493.2</ele>
        <time>2011-06-26T09:41:38Z</time>
      </trkpt>
      <trkpt lat="48.68031" lon="7.30598">
        <ele>492.6</ele>
        <time>2011-06-26T09:41:44Z</time>
      </trkpt>
      <trkpt lat="48.68044" lon="7.30629">
        <ele>492.1</ele>
        <time>2011-06-26T09:41:49Z</time>
      </trkpt>
      <trkpt lat="48.68053" lon="7.30657">
        <ele>491.6</ele>
        <time>2011-06-26T09:41:53Z</time>
      </trkpt>
      <trkpt lat="48.68059" lon="7.30679">
        <ele>491.4</ele>
        <time>2011-06-26T09:41:56Z</time>
      </trkpt>
      <trkpt lat="48.68062" lon="7.30707">
        <ele>491</ele>
        <time>2011-06-26T09:42:00Z</time>
      </trkpt>
      <trkpt lat="48.68067" lon="7.30738">
        <ele>490.2</ele>
        <time>2011-06-26T09:42:04Z</time>
      </trkpt>
      <trkpt lat="48.68067" lon="7.30773">
        <ele>489.1</ele>
        <time>2011-06-26T09:42:08Z</time>
      </trkpt>
      <trkpt lat="48.68068" lon="7.30807">
        <ele>488</ele>
        <time>2011-06-26T09:42:12Z</time>
      </trkpt>
      <trkpt lat="48.6806" lon="7.30851">
        <ele>486.5</ele>
        <time>2011-06-26T09:42:17Z</time>
      </trkpt>
      <trkpt lat="48.68053" lon="7.30866">
        <ele>485.8</ele>
        <time>2011-06-26T09:42:19Z</time>
      </trkpt>
      <trkpt lat="48.6804" lon="7.30888">
        <ele>485</ele>
        <time>2011-06-26T09:42:22Z</time>
      </trkpt>
      <trkpt lat="48.68027" lon="7.30926">
        <ele>483.6</ele>
        <time>2011-06-26T09:42:26Z</time>
      </trkpt>
      <trkpt lat="48.68021" lon="7.30956">
        <ele>482.6</ele>
        <time>2011-06-26T09:42:29Z</time>
      </trkpt>
      <trkpt lat="48.68023" lon="7.30991">
        <ele>481.8</ele>
        <time>2011-06-26T09:42:33Z</time>
      </trkpt>
      <trkpt lat="48.68034" lon="7.31034">
        <ele>480.6</ele>
        <time>2011-06-26T09:42:38Z</time>
      </trkpt>
      <trkpt lat="48.68041" lon="7.31049">
        <ele>480.2</ele>
        <time>2011-06-26T09:42:40Z</time>
      </trkpt>
      <trkpt lat="48.68051" lon="7.31066">
        <ele>479.6</ele>
        <time>2011-06-26T09:42:43Z</time>
      </trkpt>
      <trkpt lat="48.68064" lon="7.31082">
        <ele>479</ele>
        <time>2011-06-26T09:42:46Z</time>
      </trkpt>
      <trkpt lat="48.68079" lon="7.31103">
        <ele>478.3</ele>
        <time>2011-06-26T09:42:50Z</time>
      </trkpt>
      <trkpt lat="48.68101" lon="7.3112">
        <ele>477.5</ele>
        <time>2011-06-26T09:42:55Z</time>
      </trkpt>
      <trkpt lat="48.68113" lon="7.31131">
        <ele>477</ele>
        <time>2011-06-26T09:42:58Z</time>
      </trkpt>
      <trkpt lat="48.68122" lon="7.31147">
        <ele>476.6</ele>
        <time>2011-06-26T09:43:01Z</time>
      </trkpt>
      <trkpt lat="48.6814" lon="7.31154">
        <ele>476.1</ele>
        <time>2011-06-26T09:43:06Z</time>
      </trkpt>
      <trkpt lat="48.68143" lon="7.31151">
        <ele>476</ele>
        <time>2011-06-26T09:43:08Z</time>
      </trkpt>
      <trkpt lat="48.68143" lon="7.31149">
        <ele>476.1</ele>
        <time>2011-06-26T09:43:15Z</time>
      </trkpt>
      <trkpt lat="48.68142" lon="7.31146">
        <ele>476.1</ele>
        <time>2011-06-26T09:43:40Z</time>
      </trkpt>
      <trkpt lat="48.68141" lon="7.31146">
        <ele>476.1</ele>
        <time>2011-06-26T09:43:43Z</time>
      </trkpt>
      <trkpt lat="48.68141" lon="7.31145">
        <ele>476.1</ele>
        <time>2011-06-26T09:43:50Z</time>
      </trkpt>
      <trkpt lat="48.68135" lon="7.31151">
        <ele>476.1</ele>
        <time>2011-06-26T09:43:54Z</time>
      </trkpt>
      <trkpt lat="48.68135" lon="7.31155">
        <ele>476.1</ele>
        <time>2011-06-26T09:43:55Z</time>
      </trkpt>
      <trkpt lat="48.68141" lon="7.31187">
        <ele>475.9</ele>
        <time>2011-06-26T09:44:01Z</time>
      </trkpt>
      <trkpt lat="48.68152" lon="7.31213">
        <ele>475.7</ele>
        <time>2011-06-26T09:44:06Z</time>
      </trkpt>
      <trkpt lat="48.68173" lon="7.31258">
        <ele>475.1</ele>
        <time>2011-06-26T09:44:13Z</time>
      </trkpt>
      <trkpt lat="48.68201" lon="7.31317">
        <ele>474.4</ele>
        <time>2011-06-26T09:44:21Z</time>
      </trkpt>
      <trkpt lat="48.68226" lon="7.31363">
        <ele>474.1</ele>
        <time>2011-06-26T09:44:28Z</time>
      </trkpt>
      <trkpt lat="48.6823" lon="7.31369">
        <ele>474.1</ele>
        <time>2011-06-26T09:44:29Z</time>
      </trkpt>
      <trkpt lat="48.68266" lon="7.31402">
        <ele>473.9</ele>
        <time>2011-06-26T09:44:37Z</time>
      </trkpt>
      <trkpt lat="48.68304" lon="7.31432">
        <ele>474</ele>
        <time>2011-06-26T09:44:45Z</time>
      </trkpt>
      <trkpt lat="48.68343" lon="7.31464">
        <ele>473.5</ele>
        <time>2011-06-26T09:44:53Z</time>
      </trkpt>
      <trkpt lat="48.6838" lon="7.31491">
        <ele>472.8</ele>
        <time>2011-06-26T09:45:00Z</time>
      </trkpt>
      <trkpt lat="48.68403" lon="7.31508">
        <ele>472</ele>
        <time>2011-06-26T09:45:05Z</time>
      </trkpt>
      <trkpt lat="48.68409" lon="7.31507">
        <ele>471.1</ele>
        <time>2011-06-26T09:45:10Z</time>
      </trkpt>
      <trkpt lat="48.68415" lon="7.31517">
        <ele>470.9</ele>
        <time>2011-06-26T09:45:16Z</time>
      </trkpt>
      <trkpt lat="48.68415" lon="7.31518">
        <ele>470.9</ele>
        <time>2011-06-26T09:45:17Z</time>
      </trkpt>
      <trkpt lat="48.68414" lon="7.31513">
        <ele>470.7</ele>
        <time>2011-06-26T09:45:22Z</time>
      </trkpt>
      <trkpt lat="48.68412" lon="7.31512">
        <ele>470.7</ele>
        <time>2011-06-26T09:45:23Z</time>
      </trkpt>
      <trkpt lat="48.68406" lon="7.31509">
        <ele>470.8</ele>
        <time>2011-06-26T09:45:26Z</time>
      </trkpt>
      <trkpt lat="48.68406" lon="7.31492">
        <ele>471.9</ele>
        <time>2011-06-26T09:45:31Z</time>
      </trkpt>
      <trkpt lat="48.6841" lon="7.31486">
        <ele>473.1</ele>
        <time>2011-06-26T09:45:34Z</time>
      </trkpt>
      <trkpt lat="48.68417" lon="7.31488">
        <ele>473.7</ele>
        <time>2011-06-26T09:45:38Z</time>
      </trkpt>
      <trkpt lat="48.68423" lon="7.31489">
        <ele>473.7</ele>
        <time>2011-06-26T09:45:40Z</time>
      </trkpt>
      <trkpt lat="48.6843" lon="7.31491">
        <ele>473.6</ele>
        <time>2011-06-26T09:45:42Z</time>
      </trkpt>
      <trkpt lat="48.68437" lon="7.31495">
        <ele>473.4</ele>
        <time>2011-06-26T09:45:44Z</time>
      </trkpt>
      <trkpt lat="48.68458" lon="7.31514">
        <ele>472.3</ele>
        <time>2011-06-26T09:45:50Z</time>
      </trkpt>
      <trkpt lat="48.6848" lon="7.31518">
        <ele>471.4</ele>
        <time>2011-06-26T09:45:56Z</time>
      </trkpt>
      <trkpt lat="48.68487" lon="7.31517">
        <ele>471.2</ele>
        <time>2011-06-26T09:45:58Z</time>
      </trkpt>
      <trkpt lat="48.68507" lon="7.31524">
        <ele>470.7</ele>
        <time>2011-06-26T09:46:03Z</time>
      </trkpt>
      <trkpt lat="48.68517" lon="7.31529">
        <ele>470.4</ele>
        <time>2011-06-26T09:46:05Z</time>
      </trkpt>
      <trkpt lat="48.68546" lon="7.31539">
        <ele>468.9</ele>
        <time>2011-06-26T09:46:11Z</time>
      </trkpt>
      <trkpt lat="48.68557" lon="7.31542">
        <ele>468.5</ele>
        <time>2011-06-26T09:46:13Z</time>
      </trkpt>
      <trkpt lat="48.68583" lon="7.31552">
        <ele>466.8</ele>
        <time>2011-06-26T09:46:19Z</time>
      </trkpt>
      <trkpt lat="48.68604" lon="7.31562">
        <ele>466.5</ele>
        <time>2011-06-26T09:46:23Z</time>
      </trkpt>
      <trkpt lat="48.68613" lon="7.31569">
        <ele>465.7</ele>
        <time>2011-06-26T09:46:27Z</time>
      </trkpt>
      <trkpt lat="48.68621" lon="7.31571">
        <ele>465.7</ele>
        <time>2011-06-26T09:46:33Z</time>
      </trkpt>
      <trkpt lat="48.68624" lon="7.31577">
        <ele>466.1</ele>
        <time>2011-06-26T09:46:36Z</time>
      </trkpt>
      <trkpt lat="48.68624" lon="7.31593">
        <ele>465.3</ele>
        <time>2011-06-26T09:46:40Z</time>
      </trkpt>
      <trkpt lat="48.68626" lon="7.31613">
        <ele>464.4</ele>
        <time>2011-06-26T09:46:43Z</time>
      </trkpt>
      <trkpt lat="48.68631" lon="7.31627">
        <ele>463.3</ele>
        <time>2011-06-26T09:46:45Z</time>
      </trkpt>
      <trkpt lat="48.68637" lon="7.3164">
        <ele>462.5</ele>
        <time>2011-06-26T09:46:47Z</time>
      </trkpt>
      <trkpt lat="48.68658" lon="7.31666">
        <ele>462</ele>
        <time>2011-06-26T09:46:52Z</time>
      </trkpt>
      <trkpt lat="48.68671" lon="7.31693">
        <ele>461.7</ele>
        <time>2011-06-26T09:46:56Z</time>
      </trkpt>
      <trkpt lat="48.68684" lon="7.31735">
        <ele>460.1</ele>
        <time>2011-06-26T09:47:01Z</time>
      </trkpt>
      <trkpt lat="48.68698" lon="7.31777">
        <ele>458.5</ele>
        <time>2011-06-26T09:47:06Z</time>
      </trkpt>
      <trkpt lat="48.68712" lon="7.3182">
        <ele>457.1</ele>
        <time>2011-06-26T09:47:11Z</time>
      </trkpt>
      <trkpt lat="48.68736" lon="7.31862">
        <ele>455.4</ele>
        <time>2011-06-26T09:47:16Z</time>
      </trkpt>
      <trkpt lat="48.68744" lon="7.31879">
        <ele>454.8</ele>
        <time>2011-06-26T09:47:18Z</time>
      </trkpt>
      <trkpt lat="48.6876" lon="7.31917">
        <ele>453</ele>
        <time>2011-06-26T09:47:23Z</time>
      </trkpt>
      <trkpt lat="48.68769" lon="7.31932">
        <ele>452</ele>
        <time>2011-06-26T09:47:25Z</time>
      </trkpt>
      <trkpt lat="48.68787" lon="7.31962">
        <ele>450.7</ele>
        <time>2011-06-26T09:47:29Z</time>
      </trkpt>
      <trkpt lat="48.688" lon="7.31988">
        <ele>449.4</ele>
        <time>2011-06-26T09:47:32Z</time>
      </trkpt>
      <trkpt lat="48.68825" lon="7.32022">
        <ele>447.5</ele>
        <time>2011-06-26T09:47:37Z</time>
      </trkpt>
      <trkpt lat="48.6884" lon="7.32046">
        <ele>446.2</ele>
        <time>2011-06-26T09:47:40Z</time>
      </trkpt>
      <trkpt lat="48.68862" lon="7.32089">
        <ele>444</ele>
        <time>2011-06-26T09:47:45Z</time>
      </trkpt>
      <trkpt lat="48.68894" lon="7.32132">
        <ele>442.1</ele>
        <time>2011-06-26T09:47:51Z</time>
      </trkpt>
      <trkpt lat="48.68923" lon="7.32163">
        <ele>440.1</ele>
        <time>2011-06-26T09:47:56Z</time>
      </trkpt>
      <trkpt lat="48.68928" lon="7.32169">
        <ele>439.6</ele>
        <time>2011-06-26T09:47:57Z</time>
      </trkpt>
      <trkpt lat="48.6895" lon="7.32196">
        <ele>438.2</ele>
        <time>2011-06-26T09:48:01Z</time>
      </trkpt>
      <trkpt lat="48.68967" lon="7.32216">
        <ele>437.1</ele>
        <time>2011-06-26T09:48:04Z</time>
      </trkpt>
      <trkpt lat="48.68999" lon="7.32246">
        <ele>435.1</ele>
        <time>2011-06-26T09:48:09Z</time>
      </trkpt>
      <trkpt lat="48.69025" lon="7.32276">
        <ele>433.7</ele>
        <time>2011-06-26T09:48:13Z</time>
      </trkpt>
      <trkpt lat="48.69056" lon="7.32307">
        <ele>431.7</ele>
        <time>2011-06-26T09:48:18Z</time>
      </trkpt>
      <trkpt lat="48.69069" lon="7.32319">
        <ele>430.8</ele>
        <time>2011-06-26T09:48:20Z</time>
      </trkpt>
      <trkpt lat="48.69076" lon="7.32325">
        <ele>430.3</ele>
        <time>2011-06-26T09:48:21Z</time>
      </trkpt>
      <trkpt lat="48.6912" lon="7.3236">
        <ele>427.8</ele>
        <time>2011-06-26T09:48:27Z</time>
      </trkpt>
      <trkpt lat="48.69136" lon="7.3237">
        <ele>427</ele>
        <time>2011-06-26T09:48:29Z</time>
      </trkpt>
      <trkpt lat="48.69151" lon="7.32381">
        <ele>426.1</ele>
        <time>2011-06-26T09:48:31Z</time>
      </trkpt>
      <trkpt lat="48.69174" lon="7.32409">
        <ele>424.8</ele>
        <time>2011-06-26T09:48:35Z</time>
      </trkpt>
      <trkpt lat="48.69194" lon="7.32444">
        <ele>423.1</ele>
        <time>2011-06-26T09:48:39Z</time>
      </trkpt>
      <trkpt lat="48.69214" lon="7.32478">
        <ele>421.3</ele>
        <time>2011-06-26T09:48:43Z</time>
      </trkpt>
      <trkpt lat="48.69246" lon="7.32526">
        <ele>418</ele>
        <time>2011-06-26T09:48:49Z</time>
      </trkpt>
      <trkpt lat="48.69257" lon="7.32543">
        <ele>417.1</ele>
        <time>2011-06-26T09:48:51Z</time>
      </trkpt>
      <trkpt lat="48.69269" lon="7.32555">
        <ele>415.8</ele>
        <time>2011-06-26T09:48:53Z</time>
      </trkpt>
      <trkpt lat="48.69286" lon="7.32575">
        <ele>414.2</ele>
        <time>2011-06-26T09:48:56Z</time>
      </trkpt>
      <trkpt lat="48.69292" lon="7.3258">
        <ele>413.7</ele>
        <time>2011-06-26T09:48:57Z</time>
      </trkpt>
      <trkpt lat="48.69318" lon="7.326">
        <ele>411.6</ele>
        <time>2011-06-26T09:49:01Z</time>
      </trkpt>
      <trkpt lat="48.69338" lon="7.32609">
        <ele>409.7</ele>
        <time>2011-06-26T09:49:04Z</time>
      </trkpt>
      <trkpt lat="48.69362" lon="7.32611">
        <ele>408</ele>
        <time>2011-06-26T09:49:08Z</time>
      </trkpt>
      <trkpt lat="48.69387" lon="7.32615">
        <ele>406</ele>
        <time>2011-06-26T09:49:12Z</time>
      </trkpt>
      <trkpt lat="48.69394" lon="7.32616">
        <ele>405.7</ele>
        <time>2011-06-26T09:49:13Z</time>
      </trkpt>
      <trkpt lat="48.694" lon="7.32618">
        <ele>405.2</ele>
        <time>2011-06-26T09:49:14Z</time>
      </trkpt>
      <trkpt lat="48.69426" lon="7.32617">
        <ele>403.6</ele>
        <time>2011-06-26T09:49:18Z</time>
      </trkpt>
      <trkpt lat="48.69455" lon="7.32607">
        <ele>401.4</ele>
        <time>2011-06-26T09:49:23Z</time>
      </trkpt>
      <trkpt lat="48.69471" lon="7.326">
        <ele>399.8</ele>
        <time>2011-06-26T09:49:27Z</time>
      </trkpt>
      <trkpt lat="48.69475" lon="7.32598">
        <ele>399.7</ele>
        <time>2011-06-26T09:49:28Z</time>
      </trkpt>
      <trkpt lat="48.69491" lon="7.32595">
        <ele>399.3</ele>
        <time>2011-06-26T09:49:32Z</time>
      </trkpt>
      <trkpt lat="48.6951" lon="7.32612">
        <ele>398.2</ele>
        <time>2011-06-26T09:49:37Z</time>
      </trkpt>
      <trkpt lat="48.69519" lon="7.32621">
        <ele>397.3</ele>
        <time>2011-06-26T09:49:40Z</time>
      </trkpt>
      <trkpt lat="48.69537" lon="7.32618">
        <ele>396.4</ele>
        <time>2011-06-26T09:49:45Z</time>
      </trkpt>
      <trkpt lat="48.69548" lon="7.32614">
        <ele>395.8</ele>
        <time>2011-06-26T09:49:48Z</time>
      </trkpt>
      <trkpt lat="48.69556" lon="7.3261">
        <ele>395.6</ele>
        <time>2011-06-26T09:49:50Z</time>
      </trkpt>
      <trkpt lat="48.69577" lon="7.32618">
        <ele>394.4</ele>
        <time>2011-06-26T09:49:56Z</time>
      </trkpt>
      <trkpt lat="48.69579" lon="7.3262">
        <ele>394.4</ele>
        <time>2011-06-26T09:49:57Z</time>
      </trkpt>
      <trkpt lat="48.69585" lon="7.32622">
        <ele>394.2</ele>
        <time>2011-06-26T09:49:59Z</time>
      </trkpt>
      <trkpt lat="48.69599" lon="7.3264">
        <ele>393.5</ele>
        <time>2011-06-26T09:50:04Z</time>
      </trkpt>
      <trkpt lat="48.69614" lon="7.32647">
        <ele>393.2</ele>
        <time>2011-06-26T09:50:08Z</time>
      </trkpt>
      <trkpt lat="48.69627" lon="7.32644">
        <ele>392.9</ele>
        <time>2011-06-26T09:50:11Z</time>
      </trkpt>
      <trkpt lat="48.69635" lon="7.32642">
        <ele>392.8</ele>
        <time>2011-06-26T09:50:13Z</time>
      </trkpt>
      <trkpt lat="48.69643" lon="7.32642">
        <ele>392.9</ele>
        <time>2011-06-26T09:50:15Z</time>
      </trkpt>
      <trkpt lat="48.69662" lon="7.32653">
        <ele>393.3</ele>
        <time>2011-06-26T09:50:20Z</time>
      </trkpt>
      <trkpt lat="48.69669" lon="7.32674">
        <ele>394.1</ele>
        <time>2011-06-26T09:50:24Z</time>
      </trkpt>
      <trkpt lat="48.69678" lon="7.32694">
        <ele>394.9</ele>
        <time>2011-06-26T09:50:29Z</time>
      </trkpt>
      <trkpt lat="48.69687" lon="7.32701">
        <ele>396.4</ele>
        <time>2011-06-26T09:50:34Z</time>
      </trkpt>
      <trkpt lat="48.69696" lon="7.32707">
        <ele>398.2</ele>
        <time>2011-06-26T09:50:39Z</time>
      </trkpt>
      <trkpt lat="48.69701" lon="7.32713">
        <ele>398.8</ele>
        <time>2011-06-26T09:50:42Z</time>
      </trkpt>
      <trkpt lat="48.69706" lon="7.32721">
        <ele>399.3</ele>
        <time>2011-06-26T09:50:46Z</time>
      </trkpt>
      <trkpt lat="48.69711" lon="7.3273">
        <ele>399.7</ele>
        <time>2011-06-26T09:50:51Z</time>
      </trkpt>
      <trkpt lat="48.69717" lon="7.32752">
        <ele>399.9</ele>
        <time>2011-06-26T09:50:57Z</time>
      </trkpt>
      <trkpt lat="48.69722" lon="7.32773">
        <ele>400.1</ele>
        <time>2011-06-26T09:51:02Z</time>
      </trkpt>
      <trkpt lat="48.6973" lon="7.32789">
        <ele>400.7</ele>
        <time>2011-06-26T09:51:07Z</time>
      </trkpt>
      <trkpt lat="48.69738" lon="7.32802">
        <ele>401.6</ele>
        <time>2011-06-26T09:51:12Z</time>
      </trkpt>
      <trkpt lat="48.69746" lon="7.32817">
        <ele>402.1</ele>
        <time>2011-06-26T09:51:17Z</time>
      </trkpt>
      <trkpt lat="48.69756" lon="7.32834">
        <ele>402.7</ele>
        <time>2011-06-26T09:51:22Z</time>
      </trkpt>
      <trkpt lat="48.69764" lon="7.32848">
        <ele>403.5</ele>
        <time>2011-06-26T09:51:27Z</time>
      </trkpt>
      <trkpt lat="48.69772" lon="7.32863">
        <ele>404.3</ele>
        <time>2011-06-26T09:51:32Z</time>
      </trkpt>
      <trkpt lat="48.69785" lon="7.32884">
        <ele>405.4</ele>
        <time>2011-06-26T09:51:39Z</time>
      </trkpt>
      <trkpt lat="48.69795" lon="7.32903">
        <ele>405.6</ele>
        <time>2011-06-26T09:51:45Z</time>
      </trkpt>
      <trkpt lat="48.69802" lon="7.32914">
        <ele>405.9</ele>
        <time>2011-06-26T09:51:48Z</time>
      </trkpt>
      <trkpt lat="48.69811" lon="7.32926">
        <ele>406.2</ele>
        <time>2011-06-26T09:51:53Z</time>
      </trkpt>
      <trkpt lat="48.69821" lon="7.32938">
        <ele>406.7</ele>
        <time>2011-06-26T09:51:58Z</time>
      </trkpt>
      <trkpt lat="48.6983" lon="7.32949">
        <ele>407.1</ele>
        <time>2011-06-26T09:52:03Z</time>
      </trkpt>
      <trkpt lat="48.6985" lon="7.32965">
        <ele>407.6</ele>
        <time>2011-06-26T09:52:09Z</time>
      </trkpt>
      <trkpt lat="48.69867" lon="7.32974">
        <ele>408.4</ele>
        <time>2011-06-26T09:52:15Z</time>
      </trkpt>
      <trkpt lat="48.69883" lon="7.32979">
        <ele>409.4</ele>
        <time>2011-06-26T09:52:21Z</time>
      </trkpt>
      <trkpt lat="48.69897" lon="7.32984">
        <ele>410.2</ele>
        <time>2011-06-26T09:52:26Z</time>
      </trkpt>
      <trkpt lat="48.69914" lon="7.32989">
        <ele>410.9</ele>
        <time>2011-06-26T09:52:32Z</time>
      </trkpt>
      <trkpt lat="48.69929" lon="7.32989">
        <ele>411.8</ele>
        <time>2011-06-26T09:52:38Z</time>
      </trkpt>
      <trkpt lat="48.69941" lon="7.32992">
        <ele>412.8</ele>
        <time>2011-06-26T09:52:43Z</time>
      </trkpt>
      <trkpt lat="48.69953" lon="7.32993">
        <ele>413</ele>
        <time>2011-06-26T09:52:47Z</time>
      </trkpt>
      <trkpt lat="48.69964" lon="7.32995">
        <ele>413.7</ele>
        <time>2011-06-26T09:52:51Z</time>
      </trkpt>
      <trkpt lat="48.69977" lon="7.32994">
        <ele>414.6</ele>
        <time>2011-06-26T09:52:56Z</time>
      </trkpt>
      <trkpt lat="48.69988" lon="7.32994">
        <ele>415.4</ele>
        <time>2011-06-26T09:53:01Z</time>
      </trkpt>
      <trkpt lat="48.69994" lon="7.32988">
        <ele>415.7</ele>
        <time>2011-06-26T09:53:06Z</time>
      </trkpt>
      <trkpt lat="48.7" lon="7.32984">
        <ele>416.4</ele>
        <time>2011-06-26T09:53:14Z</time>
      </trkpt>
      <trkpt lat="48.70004" lon="7.3298">
        <ele>417</ele>
        <time>2011-06-26T09:53:20Z</time>
      </trkpt>
      <trkpt lat="48.70013" lon="7.32971">
        <ele>417.4</ele>
        <time>2011-06-26T09:53:25Z</time>
      </trkpt>
      <trkpt lat="48.70025" lon="7.32963">
        <ele>418.1</ele>
        <time>2011-06-26T09:53:31Z</time>
      </trkpt>
      <trkpt lat="48.70034" lon="7.32956">
        <ele>418.8</ele>
        <time>2011-06-26T09:53:35Z</time>
      </trkpt>
      <trkpt lat="48.70041" lon="7.32953">
        <ele>419.5</ele>
        <time>2011-06-26T09:53:39Z</time>
      </trkpt>
      <trkpt lat="48.70053" lon="7.32947">
        <ele>420</ele>
        <time>2011-06-26T09:53:44Z</time>
      </trkpt>
      <trkpt lat="48.70073" lon="7.3294">
        <ele>420.3</ele>
        <time>2011-06-26T09:53:50Z</time>
      </trkpt>
      <trkpt lat="48.70085" lon="7.32937">
        <ele>420.5</ele>
        <time>2011-06-26T09:53:54Z</time>
      </trkpt>
      <trkpt lat="48.701" lon="7.32933">
        <ele>421.2</ele>
        <time>2011-06-26T09:53:59Z</time>
      </trkpt>
      <trkpt lat="48.70106" lon="7.32931">
        <ele>421.7</ele>
        <time>2011-06-26T09:54:02Z</time>
      </trkpt>
      <trkpt lat="48.70121" lon="7.32922">
        <ele>422.9</ele>
        <time>2011-06-26T09:54:08Z</time>
      </trkpt>
      <trkpt lat="48.70137" lon="7.32921">
        <ele>424</ele>
        <time>2011-06-26T09:54:14Z</time>
      </trkpt>
      <trkpt lat="48.70147" lon="7.32923">
        <ele>425.2</ele>
        <time>2011-06-26T09:54:18Z</time>
      </trkpt>
      <trkpt lat="48.70157" lon="7.32922">
        <ele>426</ele>
        <time>2011-06-26T09:54:23Z</time>
      </trkpt>
      <trkpt lat="48.70169" lon="7.3292">
        <ele>426.6</ele>
        <time>2011-06-26T09:54:28Z</time>
      </trkpt>
      <trkpt lat="48.70184" lon="7.32918">
        <ele>427.5</ele>
        <time>2011-06-26T09:54:34Z</time>
      </trkpt>
      <trkpt lat="48.70201" lon="7.32912">
        <ele>428.6</ele>
        <time>2011-06-26T09:54:40Z</time>
      </trkpt>
      <trkpt lat="48.70215" lon="7.32913">
        <ele>429.1</ele>
        <time>2011-06-26T09:54:45Z</time>
      </trkpt>
      <trkpt lat="48.70221" lon="7.32913">
        <ele>429.4</ele>
        <time>2011-06-26T09:54:47Z</time>
      </trkpt>
      <trkpt lat="48.70236" lon="7.32908">
        <ele>430.9</ele>
        <time>2011-06-26T09:54:53Z</time>
      </trkpt>
      <trkpt lat="48.70247" lon="7.32908">
        <ele>431.7</ele>
        <time>2011-06-26T09:54:57Z</time>
      </trkpt>
      <trkpt lat="48.7026" lon="7.32908">
        <ele>432.7</ele>
        <time>2011-06-26T09:55:02Z</time>
      </trkpt>
      <trkpt lat="48.70272" lon="7.32906">
        <ele>433.5</ele>
        <time>2011-06-26T09:55:06Z</time>
      </trkpt>
      <trkpt lat="48.70288" lon="7.32904">
        <ele>434.8</ele>
        <time>2011-06-26T09:55:11Z</time>
      </trkpt>
      <trkpt lat="48.70304" lon="7.32903">
        <ele>435.6</ele>
        <time>2011-06-26T09:55:16Z</time>
      </trkpt>
      <trkpt lat="48.70319" lon="7.32903">
        <ele>436.3</ele>
        <time>2011-06-26T09:55:21Z</time>
      </trkpt>
      <trkpt lat="48.7034" lon="7.32905">
        <ele>438.2</ele>
        <time>2011-06-26T09:55:28Z</time>
      </trkpt>
      <trkpt lat="48.70356" lon="7.32907">
        <ele>438.8</ele>
        <time>2011-06-26T09:55:33Z</time>
      </trkpt>
      <trkpt lat="48.70374" lon="7.32907">
        <ele>439.6</ele>
        <time>2011-06-26T09:55:39Z</time>
      </trkpt>
      <trkpt lat="48.70389" lon="7.32905">
        <ele>440.2</ele>
        <time>2011-06-26T09:55:44Z</time>
      </trkpt>
      <trkpt lat="48.70401" lon="7.32909">
        <ele>440.6</ele>
        <time>2011-06-26T09:55:48Z</time>
      </trkpt>
      <trkpt lat="48.70416" lon="7.32911">
        <ele>441.2</ele>
        <time>2011-06-26T09:55:53Z</time>
      </trkpt>
      <trkpt lat="48.70431" lon="7.32915">
        <ele>442.6</ele>
        <time>2011-06-26T09:55:58Z</time>
      </trkpt>
      <trkpt lat="48.70444" lon="7.32921">
        <ele>443.3</ele>
        <time>2011-06-26T09:56:03Z</time>
      </trkpt>
      <trkpt lat="48.70462" lon="7.32928">
        <ele>444.6</ele>
        <time>2011-06-26T09:56:09Z</time>
      </trkpt>
      <trkpt lat="48.70478" lon="7.3293">
        <ele>445.6</ele>
        <time>2011-06-26T09:56:15Z</time>
      </trkpt>
      <trkpt lat="48.70495" lon="7.32935">
        <ele>445.8</ele>
        <time>2011-06-26T09:56:20Z</time>
      </trkpt>
      <trkpt lat="48.70507" lon="7.3294">
        <ele>446.2</ele>
        <time>2011-06-26T09:56:24Z</time>
      </trkpt>
      <trkpt lat="48.70521" lon="7.32946">
        <ele>447.1</ele>
        <time>2011-06-26T09:56:29Z</time>
      </trkpt>
      <trkpt lat="48.70538" lon="7.32953">
        <ele>448.3</ele>
        <time>2011-06-26T09:56:35Z</time>
      </trkpt>
      <trkpt lat="48.70556" lon="7.32958">
        <ele>449.9</ele>
        <time>2011-06-26T09:56:42Z</time>
      </trkpt>
      <trkpt lat="48.70561" lon="7.32959">
        <ele>450.4</ele>
        <time>2011-06-26T09:56:44Z</time>
      </trkpt>
      <trkpt lat="48.7057" lon="7.32962">
        <ele>450.9</ele>
        <time>2011-06-26T09:56:48Z</time>
      </trkpt>
      <trkpt lat="48.70585" lon="7.32965">
        <ele>451.5</ele>
        <time>2011-06-26T09:56:53Z</time>
      </trkpt>
      <trkpt lat="48.70595" lon="7.32966">
        <ele>452.2</ele>
        <time>2011-06-26T09:56:57Z</time>
      </trkpt>
      <trkpt lat="48.70611" lon="7.32971">
        <ele>451.4</ele>
        <time>2011-06-26T09:57:01Z</time>
      </trkpt>
      <trkpt lat="48.7064" lon="7.32973">
        <ele>450.7</ele>
        <time>2011-06-26T09:57:06Z</time>
      </trkpt>
      <trkpt lat="48.7065" lon="7.32972">
        <ele>450.7</ele>
        <time>2011-06-26T09:57:08Z</time>
      </trkpt>
      <trkpt lat="48.70671" lon="7.32979">
        <ele>450.3</ele>
        <time>2011-06-26T09:57:12Z</time>
      </trkpt>
      <trkpt lat="48.70693" lon="7.32997">
        <ele>449.2</ele>
        <time>2011-06-26T09:57:16Z</time>
      </trkpt>
      <trkpt lat="48.70719" lon="7.33032">
        <ele>448.6</ele>
        <time>2011-06-26T09:57:22Z</time>
      </trkpt>
      <trkpt lat="48.70737" lon="7.33055">
        <ele>448.1</ele>
        <time>2011-06-26T09:57:26Z</time>
      </trkpt>
      <trkpt lat="48.70761" lon="7.33086">
        <ele>447.2</ele>
        <time>2011-06-26T09:57:31Z</time>
      </trkpt>
      <trkpt lat="48.70794" lon="7.33122">
        <ele>445.6</ele>
        <time>2011-06-26T09:57:37Z</time>
      </trkpt>
      <trkpt lat="48.70816" lon="7.3314">
        <ele>444.6</ele>
        <time>2011-06-26T09:57:41Z</time>
      </trkpt>
      <trkpt lat="48.70827" lon="7.33147">
        <ele>444.3</ele>
        <time>2011-06-26T09:57:43Z</time>
      </trkpt>
      <trkpt lat="48.7085" lon="7.33158">
        <ele>443.7</ele>
        <time>2011-06-26T09:57:47Z</time>
      </trkpt>
      <trkpt lat="48.70868" lon="7.3317">
        <ele>443.4</ele>
        <time>2011-06-26T09:57:50Z</time>
      </trkpt>
      <trkpt lat="48.70902" lon="7.33188">
        <ele>442.8</ele>
        <time>2011-06-26T09:57:56Z</time>
      </trkpt>
      <trkpt lat="48.7092" lon="7.33196">
        <ele>442.5</ele>
        <time>2011-06-26T09:57:59Z</time>
      </trkpt>
      <trkpt lat="48.70965" lon="7.33215">
        <ele>440.9</ele>
        <time>2011-06-26T09:58:06Z</time>
      </trkpt>
      <trkpt lat="48.70999" lon="7.33225">
        <ele>439.9</ele>
        <time>2011-06-26T09:58:11Z</time>
      </trkpt>
      <trkpt lat="48.71012" lon="7.33227">
        <ele>439.4</ele>
        <time>2011-06-26T09:58:13Z</time>
      </trkpt>
      <trkpt lat="48.71043" lon="7.33225">
        <ele>438.7</ele>
        <time>2011-06-26T09:58:18Z</time>
      </trkpt>
      <trkpt lat="48.71061" lon="7.33221">
        <ele>438</ele>
        <time>2011-06-26T09:58:21Z</time>
      </trkpt>
      <trkpt lat="48.71073" lon="7.33215">
        <ele>437.5</ele>
        <time>2011-06-26T09:58:23Z</time>
      </trkpt>
      <trkpt lat="48.71114" lon="7.33193">
        <ele>435.4</ele>
        <time>2011-06-26T09:58:29Z</time>
      </trkpt>
      <trkpt lat="48.71139" lon="7.33176">
        <ele>435.3</ele>
        <time>2011-06-26T09:58:34Z</time>
      </trkpt>
      <trkpt lat="48.71144" lon="7.33173">
        <ele>435.3</ele>
        <time>2011-06-26T09:58:35Z</time>
      </trkpt>
      <trkpt lat="48.71166" lon="7.33171">
        <ele>435.2</ele>
        <time>2011-06-26T09:58:39Z</time>
      </trkpt>
      <trkpt lat="48.71182" lon="7.33167">
        <ele>435.1</ele>
        <time>2011-06-26T09:58:42Z</time>
      </trkpt>
      <trkpt lat="48.71212" lon="7.33153">
        <ele>436.3</ele>
        <time>2011-06-26T09:58:48Z</time>
      </trkpt>
      <trkpt lat="48.71226" lon="7.33144">
        <ele>437.4</ele>
        <time>2011-06-26T09:58:52Z</time>
      </trkpt>
      <trkpt lat="48.71238" lon="7.3313">
        <ele>438.1</ele>
        <time>2011-06-26T09:58:56Z</time>
      </trkpt>
      <trkpt lat="48.71257" lon="7.33126">
        <ele>438.9</ele>
        <time>2011-06-26T09:59:01Z</time>
      </trkpt>
      <trkpt lat="48.71275" lon="7.33135">
        <ele>439.5</ele>
        <time>2011-06-26T09:59:06Z</time>
      </trkpt>
      <trkpt lat="48.71285" lon="7.33139">
        <ele>440</ele>
        <time>2011-06-26T09:59:09Z</time>
      </trkpt>
      <trkpt lat="48.71297" lon="7.33139">
        <ele>440.5</ele>
        <time>2011-06-26T09:59:12Z</time>
      </trkpt>
      <trkpt lat="48.71313" lon="7.33139">
        <ele>441</ele>
        <time>2011-06-26T09:59:16Z</time>
      </trkpt>
      <trkpt lat="48.71329" lon="7.33135">
        <ele>441.6</ele>
        <time>2011-06-26T09:59:20Z</time>
      </trkpt>
      <trkpt lat="48.71344" lon="7.33129">
        <ele>441.5</ele>
        <time>2011-06-26T09:59:24Z</time>
      </trkpt>
      <trkpt lat="48.71362" lon="7.3312">
        <ele>441.5</ele>
        <time>2011-06-26T09:59:29Z</time>
      </trkpt>
      <trkpt lat="48.71382" lon="7.33116">
        <ele>442.5</ele>
        <time>2011-06-26T09:59:34Z</time>
      </trkpt>
      <trkpt lat="48.71397" lon="7.33113">
        <ele>443.9</ele>
        <time>2011-06-26T09:59:39Z</time>
      </trkpt>
      <trkpt lat="48.71404" lon="7.33113">
        <ele>444.5</ele>
        <time>2011-06-26T09:59:41Z</time>
      </trkpt>
      <trkpt lat="48.71419" lon="7.3311">
        <ele>445.2</ele>
        <time>2011-06-26T09:59:46Z</time>
      </trkpt>
      <trkpt lat="48.71422" lon="7.3311">
        <ele>445.4</ele>
        <time>2011-06-26T09:59:47Z</time>
      </trkpt>
      <trkpt lat="48.71438" lon="7.33108">
        <ele>446.4</ele>
        <time>2011-06-26T09:59:52Z</time>
      </trkpt>
      <trkpt lat="48.71453" lon="7.33106">
        <ele>446.8</ele>
        <time>2011-06-26T09:59:57Z</time>
      </trkpt>
      <trkpt lat="48.71478" lon="7.33106">
        <ele>446.7</ele>
        <time>2011-06-26T10:00:03Z</time>
      </trkpt>
      <trkpt lat="48.71492" lon="7.33112">
        <ele>446.4</ele>
        <time>2011-06-26T10:00:06Z</time>
      </trkpt>
      <trkpt lat="48.71517" lon="7.33119">
        <ele>446.3</ele>
        <time>2011-06-26T10:00:11Z</time>
      </trkpt>
      <trkpt lat="48.71535" lon="7.33126">
        <ele>446.2</ele>
        <time>2011-06-26T10:00:15Z</time>
      </trkpt>
      <trkpt lat="48.71563" lon="7.33138">
        <ele>445.7</ele>
        <time>2011-06-26T10:00:21Z</time>
      </trkpt>
      <trkpt lat="48.71581" lon="7.33152">
        <ele>444.8</ele>
        <time>2011-06-26T10:00:26Z</time>
      </trkpt>
      <trkpt lat="48.71595" lon="7.33164">
        <ele>443.8</ele>
        <time>2011-06-26T10:00:30Z</time>
      </trkpt>
      <trkpt lat="48.71626" lon="7.33187">
        <ele>443</ele>
        <time>2011-06-26T10:00:34Z</time>
      </trkpt>
      <trkpt lat="48.71656" lon="7.33216">
        <ele>443.1</ele>
        <time>2011-06-26T10:00:38Z</time>
      </trkpt>
      <trkpt lat="48.71661" lon="7.33224">
        <ele>443.6</ele>
        <time>2011-06-26T10:00:41Z</time>
      </trkpt>
      <trkpt lat="48.71671" lon="7.33232">
        <ele>444.2</ele>
        <time>2011-06-26T10:00:45Z</time>
      </trkpt>
      <trkpt lat="48.71687" lon="7.33234">
        <ele>444.6</ele>
        <time>2011-06-26T10:00:50Z</time>
      </trkpt>
      <trkpt lat="48.71696" lon="7.33237">
        <ele>445.5</ele>
        <time>2011-06-26T10:00:54Z</time>
      </trkpt>
      <trkpt lat="48.71711" lon="7.33244">
        <ele>446.8</ele>
        <time>2011-06-26T10:01:00Z</time>
      </trkpt>
      <trkpt lat="48.71725" lon="7.33249">
        <ele>447.7</ele>
        <time>2011-06-26T10:01:05Z</time>
      </trkpt>
      <trkpt lat="48.7173" lon="7.33251">
        <ele>448</ele>
        <time>2011-06-26T10:01:07Z</time>
      </trkpt>
      <trkpt lat="48.71738" lon="7.33249">
        <ele>448.7</ele>
        <time>2011-06-26T10:01:11Z</time>
      </trkpt>
      <trkpt lat="48.71743" lon="7.33241">
        <ele>450.4</ele>
        <time>2011-06-26T10:01:17Z</time>
      </trkpt>
      <trkpt lat="48.7175" lon="7.33233">
        <ele>452.3</ele>
        <time>2011-06-26T10:01:23Z</time>
      </trkpt>
      <trkpt lat="48.71753" lon="7.3323">
        <ele>453.2</ele>
        <time>2011-06-26T10:01:26Z</time>
      </trkpt>
      <trkpt lat="48.71754" lon="7.33229">
        <ele>453.5</ele>
        <time>2011-06-26T10:01:27Z</time>
      </trkpt>
      <trkpt lat="48.71755" lon="7.33228">
        <ele>453.9</ele>
        <time>2011-06-26T10:01:28Z</time>
      </trkpt>
      <trkpt lat="48.71762" lon="7.3322">
        <ele>456.2</ele>
        <time>2011-06-26T10:01:34Z</time>
      </trkpt>
      <trkpt lat="48.71766" lon="7.33214">
        <ele>458</ele>
        <time>2011-06-26T10:01:38Z</time>
      </trkpt>
      <trkpt lat="48.71773" lon="7.33204">
        <ele>460</ele>
        <time>2011-06-26T10:01:45Z</time>
      </trkpt>
      <trkpt lat="48.71774" lon="7.33204">
        <ele>460.4</ele>
        <time>2011-06-26T10:01:46Z</time>
      </trkpt>
      <trkpt lat="48.71782" lon="7.33195">
        <ele>462</ele>
        <time>2011-06-26T10:01:52Z</time>
      </trkpt>
      <trkpt lat="48.71787" lon="7.33184">
        <ele>463.4</ele>
        <time>2011-06-26T10:01:58Z</time>
      </trkpt>
      <trkpt lat="48.7179" lon="7.3317">
        <ele>464.1</ele>
        <time>2011-06-26T10:02:04Z</time>
      </trkpt>
      <trkpt lat="48.71794" lon="7.33162">
        <ele>464.2</ele>
        <time>2011-06-26T10:02:07Z</time>
      </trkpt>
      <trkpt lat="48.71801" lon="7.33153">
        <ele>464.1</ele>
        <time>2011-06-26T10:02:11Z</time>
      </trkpt>
      <trkpt lat="48.71811" lon="7.33147">
        <ele>463.5</ele>
        <time>2011-06-26T10:02:14Z</time>
      </trkpt>
      <trkpt lat="48.71827" lon="7.33126">
        <ele>461.7</ele>
        <time>2011-06-26T10:02:18Z</time>
      </trkpt>
      <trkpt lat="48.71835" lon="7.33113">
        <ele>460.8</ele>
        <time>2011-06-26T10:02:20Z</time>
      </trkpt>
      <trkpt lat="48.71862" lon="7.33094">
        <ele>458.6</ele>
        <time>2011-06-26T10:02:25Z</time>
      </trkpt>
      <trkpt lat="48.71874" lon="7.33088">
        <ele>457.8</ele>
        <time>2011-06-26T10:02:27Z</time>
      </trkpt>
      <trkpt lat="48.7188" lon="7.33085">
        <ele>457.3</ele>
        <time>2011-06-26T10:02:28Z</time>
      </trkpt>
      <trkpt lat="48.71891" lon="7.3308">
        <ele>456</ele>
        <time>2011-06-26T10:02:30Z</time>
      </trkpt>
      <trkpt lat="48.71908" lon="7.33081">
        <ele>454.7</ele>
        <time>2011-06-26T10:02:33Z</time>
      </trkpt>
      <trkpt lat="48.71926" lon="7.33098">
        <ele>453.9</ele>
        <time>2011-06-26T10:02:37Z</time>
      </trkpt>
      <trkpt lat="48.71941" lon="7.33125">
        <ele>453.3</ele>
        <time>2011-06-26T10:02:42Z</time>
      </trkpt>
      <trkpt lat="48.71947" lon="7.33162">
        <ele>453.1</ele>
        <time>2011-06-26T10:02:48Z</time>
      </trkpt>
      <trkpt lat="48.71953" lon="7.33196">
        <ele>452.7</ele>
        <time>2011-06-26T10:02:53Z</time>
      </trkpt>
      <trkpt lat="48.71958" lon="7.33228">
        <ele>452.7</ele>
        <time>2011-06-26T10:02:58Z</time>
      </trkpt>
      <trkpt lat="48.71959" lon="7.33235">
        <ele>452.5</ele>
        <time>2011-06-26T10:02:59Z</time>
      </trkpt>
      <trkpt lat="48.71962" lon="7.33249">
        <ele>452.2</ele>
        <time>2011-06-26T10:03:01Z</time>
      </trkpt>
      <trkpt lat="48.71973" lon="7.33284">
        <ele>450.8</ele>
        <time>2011-06-26T10:03:05Z</time>
      </trkpt>
      <trkpt lat="48.71976" lon="7.33293">
        <ele>450.5</ele>
        <time>2011-06-26T10:03:06Z</time>
      </trkpt>
      <trkpt lat="48.71992" lon="7.33337">
        <ele>448.5</ele>
        <time>2011-06-26T10:03:11Z</time>
      </trkpt>
      <trkpt lat="48.71995" lon="7.33344">
        <ele>448.2</ele>
        <time>2011-06-26T10:03:12Z</time>
      </trkpt>
      <trkpt lat="48.72002" lon="7.33382">
        <ele>447</ele>
        <time>2011-06-26T10:03:17Z</time>
      </trkpt>
      <trkpt lat="48.72011" lon="7.33417">
        <ele>446.8</ele>
        <time>2011-06-26T10:03:22Z</time>
      </trkpt>
      <trkpt lat="48.72016" lon="7.33443">
        <ele>446.5</ele>
        <time>2011-06-26T10:03:26Z</time>
      </trkpt>
      <trkpt lat="48.72026" lon="7.33463">
        <ele>445.9</ele>
        <time>2011-06-26T10:03:30Z</time>
      </trkpt>
      <trkpt lat="48.72036" lon="7.33481">
        <ele>445.5</ele>
        <time>2011-06-26T10:03:33Z</time>
      </trkpt>
      <trkpt lat="48.72049" lon="7.33497">
        <ele>445</ele>
        <time>2011-06-26T10:03:36Z</time>
      </trkpt>
      <trkpt lat="48.7207" lon="7.3351">
        <ele>443.5</ele>
        <time>2011-06-26T10:03:40Z</time>
      </trkpt>
      <trkpt lat="48.72082" lon="7.33511">
        <ele>442.7</ele>
        <time>2011-06-26T10:03:42Z</time>
      </trkpt>
      <trkpt lat="48.72106" lon="7.33525">
        <ele>440.4</ele>
        <time>2011-06-26T10:03:47Z</time>
      </trkpt>
      <trkpt lat="48.72119" lon="7.33539">
        <ele>439</ele>
        <time>2011-06-26T10:03:50Z</time>
      </trkpt>
      <trkpt lat="48.72141" lon="7.33566">
        <ele>437.8</ele>
        <time>2011-06-26T10:03:55Z</time>
      </trkpt>
      <trkpt lat="48.72157" lon="7.33569">
        <ele>437</ele>
        <time>2011-06-26T10:03:59Z</time>
      </trkpt>
      <trkpt lat="48.7216" lon="7.33565">
        <ele>436.9</ele>
        <time>2011-06-26T10:04:00Z</time>
      </trkpt>
      <trkpt lat="48.72163" lon="7.33558">
        <ele>436.3</ele>
        <time>2011-06-26T10:04:02Z</time>
      </trkpt>
      <trkpt lat="48.72157" lon="7.33525">
        <ele>434.3</ele>
        <time>2011-06-26T10:04:07Z</time>
      </trkpt>
      <trkpt lat="48.7215" lon="7.33509">
        <ele>433.2</ele>
        <time>2011-06-26T10:04:09Z</time>
      </trkpt>
      <trkpt lat="48.72138" lon="7.33484">
        <ele>430.8</ele>
        <time>2011-06-26T10:04:12Z</time>
      </trkpt>
      <trkpt lat="48.72113" lon="7.33434">
        <ele>425.5</ele>
        <time>2011-06-26T10:04:18Z</time>
      </trkpt>
      <trkpt lat="48.72107" lon="7.33423">
        <ele>423.5</ele>
        <time>2011-06-26T10:04:20Z</time>
      </trkpt>
      <trkpt lat="48.72096" lon="7.33393">
        <ele>420.2</ele>
        <time>2011-06-26T10:04:25Z</time>
      </trkpt>
      <trkpt lat="48.72089" lon="7.33361">
        <ele>417.5</ele>
        <time>2011-06-26T10:04:29Z</time>
      </trkpt>
      <trkpt lat="48.72076" lon="7.33314">
        <ele>413.3</ele>
        <time>2011-06-26T10:04:35Z</time>
      </trkpt>
      <trkpt lat="48.72069" lon="7.33289">
        <ele>410</ele>
        <time>2011-06-26T10:04:39Z</time>
      </trkpt>
      <trkpt lat="48.72063" lon="7.33275">
        <ele>408.1</ele>
        <time>2011-06-26T10:04:43Z</time>
      </trkpt>
      <trkpt lat="48.72059" lon="7.33266">
        <ele>407.3</ele>
        <time>2011-06-26T10:04:49Z</time>
      </trkpt>
      <trkpt lat="48.72063" lon="7.33255">
        <ele>406.1</ele>
        <time>2011-06-26T10:04:57Z</time>
      </trkpt>
      <trkpt lat="48.72062" lon="7.3325">
        <ele>404.3</ele>
        <time>2011-06-26T10:05:03Z</time>
      </trkpt>
      <trkpt lat="48.72058" lon="7.33237">
        <ele>403.1</ele>
        <time>2011-06-26T10:05:08Z</time>
      </trkpt>
      <trkpt lat="48.72057" lon="7.33233">
        <ele>402.7</ele>
        <time>2011-06-26T10:05:09Z</time>
      </trkpt>
      <trkpt lat="48.72055" lon="7.33223">
        <ele>401.9</ele>
        <time>2011-06-26T10:05:11Z</time>
      </trkpt>
      <trkpt lat="48.72057" lon="7.33199">
        <ele>399.3</ele>
        <time>2011-06-26T10:05:15Z</time>
      </trkpt>
      <trkpt lat="48.72059" lon="7.33173">
        <ele>397</ele>
        <time>2011-06-26T10:05:19Z</time>
      </trkpt>
      <trkpt lat="48.72065" lon="7.33143">
        <ele>394.2</ele>
        <time>2011-06-26T10:05:24Z</time>
      </trkpt>
      <trkpt lat="48.72069" lon="7.33121">
        <ele>393</ele>
        <time>2011-06-26T10:05:28Z</time>
      </trkpt>
      <trkpt lat="48.72073" lon="7.33092">
        <ele>390.4</ele>
        <time>2011-06-26T10:05:34Z</time>
      </trkpt>
      <trkpt lat="48.72076" lon="7.33079">
        <ele>389</ele>
        <time>2011-06-26T10:05:36Z</time>
      </trkpt>
      <trkpt lat="48.72083" lon="7.33034">
        <ele>385.5</ele>
        <time>2011-06-26T10:05:42Z</time>
      </trkpt>
      <trkpt lat="48.72091" lon="7.33004">
        <ele>382</ele>
        <time>2011-06-26T10:05:47Z</time>
      </trkpt>
      <trkpt lat="48.72092" lon="7.33002">
        <ele>380.6</ele>
        <time>2011-06-26T10:05:53Z</time>
      </trkpt>
      <trkpt lat="48.72092" lon="7.33004">
        <ele>380.2</ele>
        <time>2011-06-26T10:06:00Z</time>
      </trkpt>
      <trkpt lat="48.72092" lon="7.33004">
        <ele>380.2</ele>
        <time>2011-06-26T10:06:02Z</time>
      </trkpt>
      <trkpt lat="48.72094" lon="7.33016">
        <ele>379.3</ele>
        <time>2011-06-26T10:06:06Z</time>
      </trkpt>
      <trkpt lat="48.72092" lon="7.33021">
        <ele>378.7</ele>
        <time>2011-06-26T10:06:07Z</time>
      </trkpt>
      <trkpt lat="48.72086" lon="7.33047">
        <ele>377</ele>
        <time>2011-06-26T10:06:11Z</time>
      </trkpt>
      <trkpt lat="48.72086" lon="7.33072">
        <ele>375.9</ele>
        <time>2011-06-26T10:06:15Z</time>
      </trkpt>
      <trkpt lat="48.72086" lon="7.33099">
        <ele>375.2</ele>
        <time>2011-06-26T10:06:20Z</time>
      </trkpt>
      <trkpt lat="48.72094" lon="7.33127">
        <ele>372.5</ele>
        <time>2011-06-26T10:06:24Z</time>
      </trkpt>
      <trkpt lat="48.721" lon="7.3315">
        <ele>370</ele>
        <time>2011-06-26T10:06:28Z</time>
      </trkpt>
      <trkpt lat="48.72108" lon="7.33167">
        <ele>368.8</ele>
        <time>2011-06-26T10:06:31Z</time>
      </trkpt>
      <trkpt lat="48.72123" lon="7.33178">
        <ele>366.3</ele>
        <time>2011-06-26T10:06:35Z</time>
      </trkpt>
      <trkpt lat="48.72138" lon="7.33191">
        <ele>363.1</ele>
        <time>2011-06-26T10:06:39Z</time>
      </trkpt>
      <trkpt lat="48.72146" lon="7.33196">
        <ele>361.4</ele>
        <time>2011-06-26T10:06:42Z</time>
      </trkpt>
      <trkpt lat="48.72153" lon="7.33202">
        <ele>359.3</ele>
        <time>2011-06-26T10:06:45Z</time>
      </trkpt>
      <trkpt lat="48.72162" lon="7.33207">
        <ele>356.7</ele>
        <time>2011-06-26T10:06:49Z</time>
      </trkpt>
      <trkpt lat="48.72174" lon="7.33211">
        <ele>354.1</ele>
        <time>2011-06-26T10:06:52Z</time>
      </trkpt>
      <trkpt lat="48.72182" lon="7.33219">
        <ele>352.9</ele>
        <time>2011-06-26T10:06:54Z</time>
      </trkpt>
      <trkpt lat="48.72203" lon="7.33237">
        <ele>352</ele>
        <time>2011-06-26T10:06:59Z</time>
      </trkpt>
      <trkpt lat="48.72212" lon="7.33242">
        <ele>351.7</ele>
        <time>2011-06-26T10:07:01Z</time>
      </trkpt>
      <trkpt lat="48.72232" lon="7.33246">
        <ele>351.1</ele>
        <time>2011-06-26T10:07:05Z</time>
      </trkpt>
      <trkpt lat="48.72256" lon="7.33254">
        <ele>350.5</ele>
        <time>2011-06-26T10:07:10Z</time>
      </trkpt>
      <trkpt lat="48.72279" lon="7.33259">
        <ele>350.1</ele>
        <time>2011-06-26T10:07:15Z</time>
      </trkpt>
      <trkpt lat="48.72294" lon="7.33264">
        <ele>349.6</ele>
        <time>2011-06-26T10:07:18Z</time>
      </trkpt>
      <trkpt lat="48.72321" lon="7.33278">
        <ele>348.9</ele>
        <time>2011-06-26T10:07:23Z</time>
      </trkpt>
      <trkpt lat="48.72335" lon="7.33291">
        <ele>348.4</ele>
        <time>2011-06-26T10:07:26Z</time>
      </trkpt>
      <trkpt lat="48.72345" lon="7.333">
        <ele>348.1</ele>
        <time>2011-06-26T10:07:28Z</time>
      </trkpt>
      <trkpt lat="48.72358" lon="7.33312">
        <ele>347.6</ele>
        <time>2011-06-26T10:07:31Z</time>
      </trkpt>
      <trkpt lat="48.72385" lon="7.33339">
        <ele>346.5</ele>
        <time>2011-06-26T10:07:37Z</time>
      </trkpt>
      <trkpt lat="48.72404" lon="7.3336">
        <ele>345.8</ele>
        <time>2011-06-26T10:07:42Z</time>
      </trkpt>
      <trkpt lat="48.72421" lon="7.33378">
        <ele>345.4</ele>
        <time>2011-06-26T10:07:46Z</time>
      </trkpt>
      <trkpt lat="48.72446" lon="7.33401">
        <ele>344.7</ele>
        <time>2011-06-26T10:07:51Z</time>
      </trkpt>
      <trkpt lat="48.72455" lon="7.3341">
        <ele>344.2</ele>
        <time>2011-06-26T10:07:53Z</time>
      </trkpt>
      <trkpt lat="48.72483" lon="7.33432">
        <ele>343.4</ele>
        <time>2011-06-26T10:07:59Z</time>
      </trkpt>
      <trkpt lat="48.72514" lon="7.33454">
        <ele>342.8</ele>
        <time>2011-06-26T10:08:05Z</time>
      </trkpt>
      <trkpt lat="48.72552" lon="7.33484">
        <ele>341.6</ele>
        <time>2011-06-26T10:08:12Z</time>
      </trkpt>
      <trkpt lat="48.72574" lon="7.33501">
        <ele>341.1</ele>
        <time>2011-06-26T10:08:16Z</time>
      </trkpt>
      <trkpt lat="48.72606" lon="7.3353">
        <ele>340.3</ele>
        <time>2011-06-26T10:08:22Z</time>
      </trkpt>
      <trkpt lat="48.7261" lon="7.33535">
        <ele>340.2</ele>
        <time>2011-06-26T10:08:23Z</time>
      </trkpt>
      <trkpt lat="48.7263" lon="7.33552">
        <ele>339.4</ele>
        <time>2011-06-26T10:08:27Z</time>
      </trkpt>
      <trkpt lat="48.72652" lon="7.33575">
        <ele>338.8</ele>
        <time>2011-06-26T10:08:32Z</time>
      </trkpt>
      <trkpt lat="48.72675" lon="7.33601">
        <ele>338</ele>
        <time>2011-06-26T10:08:37Z</time>
      </trkpt>
      <trkpt lat="48.72694" lon="7.33623">
        <ele>337.4</ele>
        <time>2011-06-26T10:08:41Z</time>
      </trkpt>
      <trkpt lat="48.72707" lon="7.33642">
        <ele>336.8</ele>
        <time>2011-06-26T10:08:44Z</time>
      </trkpt>
      <trkpt lat="48.72729" lon="7.33671">
        <ele>335.9</ele>
        <time>2011-06-26T10:08:49Z</time>
      </trkpt>
      <trkpt lat="48.72758" lon="7.33713">
        <ele>334.8</ele>
        <time>2011-06-26T10:08:55Z</time>
      </trkpt>
      <trkpt lat="48.72772" lon="7.33737">
        <ele>334.4</ele>
        <time>2011-06-26T10:08:58Z</time>
      </trkpt>
      <trkpt lat="48.72779" lon="7.33757">
        <ele>334.3</ele>
        <time>2011-06-26T10:09:00Z</time>
      </trkpt>
      <trkpt lat="48.72795" lon="7.33785">
        <ele>333.7</ele>
        <time>2011-06-26T10:09:04Z</time>
      </trkpt>
      <trkpt lat="48.72803" lon="7.33811">
        <ele>332.7</ele>
        <time>2011-06-26T10:09:07Z</time>
      </trkpt>
      <trkpt lat="48.72823" lon="7.33861">
        <ele>331.9</ele>
        <time>2011-06-26T10:09:13Z</time>
      </trkpt>
      <trkpt lat="48.72833" lon="7.33887">
        <ele>331.4</ele>
        <time>2011-06-26T10:09:16Z</time>
      </trkpt>
      <trkpt lat="48.72843" lon="7.33925">
        <ele>331</ele>
        <time>2011-06-26T10:09:20Z</time>
      </trkpt>
      <trkpt lat="48.72858" lon="7.33971">
        <ele>330.1</ele>
        <time>2011-06-26T10:09:25Z</time>
      </trkpt>
      <trkpt lat="48.72861" lon="7.33988">
        <ele>329.9</ele>
        <time>2011-06-26T10:09:27Z</time>
      </trkpt>
      <trkpt lat="48.72871" lon="7.34051">
        <ele>328.3</ele>
        <time>2011-06-26T10:09:34Z</time>
      </trkpt>
      <trkpt lat="48.7289" lon="7.34107">
        <ele>326.3</ele>
        <time>2011-06-26T10:09:41Z</time>
      </trkpt>
      <trkpt lat="48.72904" lon="7.3414">
        <ele>325.1</ele>
        <time>2011-06-26T10:09:45Z</time>
      </trkpt>
      <trkpt lat="48.72937" lon="7.34185">
        <ele>323.7</ele>
        <time>2011-06-26T10:09:50Z</time>
      </trkpt>
      <trkpt lat="48.7295" lon="7.34202">
        <ele>323</ele>
        <time>2011-06-26T10:09:52Z</time>
      </trkpt>
      <trkpt lat="48.72975" lon="7.3424">
        <ele>321.6</ele>
        <time>2011-06-26T10:09:57Z</time>
      </trkpt>
      <trkpt lat="48.73005" lon="7.34274">
        <ele>320.3</ele>
        <time>2011-06-26T10:10:02Z</time>
      </trkpt>
      <trkpt lat="48.73017" lon="7.34287">
        <ele>320</ele>
        <time>2011-06-26T10:10:04Z</time>
      </trkpt>
      <trkpt lat="48.73035" lon="7.34305">
        <ele>319.5</ele>
        <time>2011-06-26T10:10:07Z</time>
      </trkpt>
      <trkpt lat="48.73073" lon="7.34343">
        <ele>318.3</ele>
        <time>2011-06-26T10:10:13Z</time>
      </trkpt>
      <trkpt lat="48.73098" lon="7.34371">
        <ele>317.4</ele>
        <time>2011-06-26T10:10:17Z</time>
      </trkpt>
      <trkpt lat="48.73128" lon="7.34414">
        <ele>316.4</ele>
        <time>2011-06-26T10:10:23Z</time>
      </trkpt>
      <trkpt lat="48.73162" lon="7.34464">
        <ele>313.7</ele>
        <time>2011-06-26T10:10:29Z</time>
      </trkpt>
      <trkpt lat="48.73169" lon="7.34473">
        <ele>313.5</ele>
        <time>2011-06-26T10:10:30Z</time>
      </trkpt>
      <trkpt lat="48.73207" lon="7.34536">
        <ele>309.9</ele>
        <time>2011-06-26T10:10:36Z</time>
      </trkpt>
      <trkpt lat="48.73253" lon="7.34615">
        <ele>305.4</ele>
        <time>2011-06-26T10:10:43Z</time>
      </trkpt>
      <trkpt lat="48.7326" lon="7.34627">
        <ele>305.2</ele>
        <time>2011-06-26T10:10:44Z</time>
      </trkpt>
      <trkpt lat="48.73295" lon="7.34686">
        <ele>301.9</ele>
        <time>2011-06-26T10:10:49Z</time>
      </trkpt>
      <trkpt lat="48.73329" lon="7.34743">
        <ele>298.6</ele>
        <time>2011-06-26T10:10:54Z</time>
      </trkpt>
      <trkpt lat="48.73366" lon="7.34801">
        <ele>295</ele>
        <time>2011-06-26T10:10:59Z</time>
      </trkpt>
      <trkpt lat="48.7338" lon="7.34821">
        <ele>292.3</ele>
        <time>2011-06-26T10:11:02Z</time>
      </trkpt>
      <trkpt lat="48.73384" lon="7.34826">
        <ele>291.6</ele>
        <time>2011-06-26T10:11:03Z</time>
      </trkpt>
      <trkpt lat="48.73401" lon="7.34831">
        <ele>290.5</ele>
        <time>2011-06-26T10:11:07Z</time>
      </trkpt>
      <trkpt lat="48.73437" lon="7.34832">
        <ele>288.8</ele>
        <time>2011-06-26T10:11:13Z</time>
      </trkpt>
      <trkpt lat="48.73451" lon="7.34833">
        <ele>287.9</ele>
        <time>2011-06-26T10:11:15Z</time>
      </trkpt>
      <trkpt lat="48.73483" lon="7.34837">
        <ele>286.3</ele>
        <time>2011-06-26T10:11:19Z</time>
      </trkpt>
      <trkpt lat="48.73526" lon="7.34842">
        <ele>283.7</ele>
        <time>2011-06-26T10:11:24Z</time>
      </trkpt>
      <trkpt lat="48.73553" lon="7.34854">
        <ele>281</ele>
        <time>2011-06-26T10:11:27Z</time>
      </trkpt>
      <trkpt lat="48.73563" lon="7.34858">
        <ele>280.5</ele>
        <time>2011-06-26T10:11:28Z</time>
      </trkpt>
      <trkpt lat="48.73622" lon="7.3488">
        <ele>274.5</ele>
        <time>2011-06-26T10:11:34Z</time>
      </trkpt>
      <trkpt lat="48.73683" lon="7.34896">
        <ele>267.7</ele>
        <time>2011-06-26T10:11:40Z</time>
      </trkpt>
      <trkpt lat="48.73745" lon="7.34908">
        <ele>261.6</ele>
        <time>2011-06-26T10:11:46Z</time>
      </trkpt>
      <trkpt lat="48.73821" lon="7.34923">
        <ele>253.8</ele>
        <time>2011-06-26T10:11:54Z</time>
      </trkpt>
      <trkpt lat="48.73868" lon="7.34933">
        <ele>249.3</ele>
        <time>2011-06-26T10:11:59Z</time>
      </trkpt>
      <trkpt lat="48.73912" lon="7.3497">
        <ele>245.5</ele>
        <time>2011-06-26T10:12:04Z</time>
      </trkpt>
      <trkpt lat="48.73958" lon="7.35021">
        <ele>240.5</ele>
        <time>2011-06-26T10:12:09Z</time>
      </trkpt>
      <trkpt lat="48.73991" lon="7.35073">
        <ele>236.5</ele>
        <time>2011-06-26T10:12:13Z</time>
      </trkpt>
      <trkpt lat="48.74013" lon="7.35136">
        <ele>232.6</ele>
        <time>2011-06-26T10:12:17Z</time>
      </trkpt>
      <trkpt lat="48.74022" lon="7.35202">
        <ele>229.5</ele>
        <time>2011-06-26T10:12:21Z</time>
      </trkpt>
      <trkpt lat="48.7403" lon="7.35331">
        <ele>223.2</ele>
        <time>2011-06-26T10:12:29Z</time>
      </trkpt>
      <trkpt lat="48.74034" lon="7.35431">
        <ele>220.2</ele>
        <time>2011-06-26T10:12:36Z</time>
      </trkpt>
      <trkpt lat="48.74037" lon="7.35468">
        <ele>218.8</ele>
        <time>2011-06-26T10:12:39Z</time>
      </trkpt>
      <trkpt lat="48.74042" lon="7.35517">
        <ele>217.9</ele>
        <time>2011-06-26T10:12:43Z</time>
      </trkpt>
      <trkpt lat="48.74062" lon="7.35583">
        <ele>216.7</ele>
        <time>2011-06-26T10:12:49Z</time>
      </trkpt>
      <trkpt lat="48.74072" lon="7.35614">
        <ele>216.5</ele>
        <time>2011-06-26T10:12:52Z</time>
      </trkpt>
      <trkpt lat="48.74076" lon="7.35657">
        <ele>217.1</ele>
        <time>2011-06-26T10:12:56Z</time>
      </trkpt>
      <trkpt lat="48.74069" lon="7.3571">
        <ele>218</ele>
        <time>2011-06-26T10:13:02Z</time>
      </trkpt>
      <trkpt lat="48.74068" lon="7.35758">
        <ele>219.1</ele>
        <time>2011-06-26T10:13:08Z</time>
      </trkpt>
      <trkpt lat="48.74068" lon="7.35799">
        <ele>219.9</ele>
        <time>2011-06-26T10:13:13Z</time>
      </trkpt>
      <trkpt lat="48.74062" lon="7.35844">
        <ele>220.6</ele>
        <time>2011-06-26T10:13:19Z</time>
      </trkpt>
      <trkpt lat="48.74067" lon="7.35902">
        <ele>221.4</ele>
        <time>2011-06-26T10:13:26Z</time>
      </trkpt>
      <trkpt lat="48.74067" lon="7.35924">
        <ele>221.7</ele>
        <time>2011-06-26T10:13:29Z</time>
      </trkpt>
      <trkpt lat="48.74078" lon="7.35955">
        <ele>221.2</ele>
        <time>2011-06-26T10:13:34Z</time>
      </trkpt>
      <trkpt lat="48.74089" lon="7.35975">
        <ele>219.3</ele>
        <time>2011-06-26T10:13:39Z</time>
      </trkpt>
      <trkpt lat="48.74091" lon="7.35978">
        <ele>219</ele>
        <time>2011-06-26T10:13:41Z</time>
      </trkpt>
      <trkpt lat="48.74102" lon="7.35972">
        <ele>218.8</ele>
        <time>2011-06-26T10:13:45Z</time>
      </trkpt>
      <trkpt lat="48.7412" lon="7.35952">
        <ele>217.8</ele>
        <time>2011-06-26T10:13:51Z</time>
      </trkpt>
      <trkpt lat="48.74127" lon="7.35944">
        <ele>216.8</ele>
        <time>2011-06-26T10:13:56Z</time>
      </trkpt>
      <trkpt lat="48.74136" lon="7.35933">
        <ele>216.1</ele>
        <time>2011-06-26T10:14:05Z</time>
      </trkpt>
      <trkpt lat="48.74144" lon="7.35925">
        <ele>215.8</ele>
        <time>2011-06-26T10:14:08Z</time>
      </trkpt>
      <trkpt lat="48.74155" lon="7.35911">
        <ele>215.2</ele>
        <time>2011-06-26T10:14:11Z</time>
      </trkpt>
      <trkpt lat="48.74171" lon="7.35874">
        <ele>214.7</ele>
        <time>2011-06-26T10:14:16Z</time>
      </trkpt>
      <trkpt lat="48.7419" lon="7.35812">
        <ele>213.7</ele>
        <time>2011-06-26T10:14:23Z</time>
      </trkpt>
      <trkpt lat="48.742" lon="7.35783">
        <ele>212.8</ele>
        <time>2011-06-26T10:14:26Z</time>
      </trkpt>
      <trkpt lat="48.74226" lon="7.35741">
        <ele>211.2</ele>
        <time>2011-06-26T10:14:31Z</time>
      </trkpt>
      <trkpt lat="48.7424" lon="7.35729">
        <ele>210.4</ele>
        <time>2011-06-26T10:14:33Z</time>
      </trkpt>
      <trkpt lat="48.74271" lon="7.3571">
        <ele>209.3</ele>
        <time>2011-06-26T10:14:37Z</time>
      </trkpt>
      <trkpt lat="48.74323" lon="7.35703">
        <ele>209.2</ele>
        <time>2011-06-26T10:14:44Z</time>
      </trkpt>
      <trkpt lat="48.74351" lon="7.35696">
        <ele>210.6</ele>
        <time>2011-06-26T10:14:49Z</time>
      </trkpt>
      <trkpt lat="48.74371" lon="7.35684">
        <ele>211.6</ele>
        <time>2011-06-26T10:14:53Z</time>
      </trkpt>
      <trkpt lat="48.74392" lon="7.35664">
        <ele>212.3</ele>
        <time>2011-06-26T10:14:58Z</time>
      </trkpt>
      <trkpt lat="48.7442" lon="7.35639">
        <ele>213</ele>
        <time>2011-06-26T10:15:04Z</time>
      </trkpt>
      <trkpt lat="48.74461" lon="7.35611">
        <ele>213.5</ele>
        <time>2011-06-26T10:15:12Z</time>
      </trkpt>
      <trkpt lat="48.74514" lon="7.35584">
        <ele>214.3</ele>
        <time>2011-06-26T10:15:22Z</time>
      </trkpt>
      <trkpt lat="48.74533" lon="7.35587">
        <ele>215</ele>
        <time>2011-06-26T10:15:26Z</time>
      </trkpt>
      <trkpt lat="48.74553" lon="7.35603">
        <ele>216.6</ele>
        <time>2011-06-26T10:15:31Z</time>
      </trkpt>
      <trkpt lat="48.74577" lon="7.35615">
        <ele>218.5</ele>
        <time>2011-06-26T10:15:38Z</time>
      </trkpt>
      <trkpt lat="48.74592" lon="7.35624">
        <ele>219.8</ele>
        <time>2011-06-26T10:15:43Z</time>
      </trkpt>
      <trkpt lat="48.74611" lon="7.35632">
        <ele>220.9</ele>
        <time>2011-06-26T10:15:49Z</time>
      </trkpt>
      <trkpt lat="48.74614" lon="7.35621">
        <ele>221.2</ele>
        <time>2011-06-26T10:15:53Z</time>
      </trkpt>
      <trkpt lat="48.74612" lon="7.35613">
        <ele>221.1</ele>
        <time>2011-06-26T10:15:55Z</time>
      </trkpt>
      <trkpt lat="48.74617" lon="7.35583">
        <ele>221.5</ele>
        <time>2011-06-26T10:16:02Z</time>
      </trkpt>
      <trkpt lat="48.74618" lon="7.35577">
        <ele>221.5</ele>
        <time>2011-06-26T10:16:06Z</time>
      </trkpt>
      <trkpt lat="48.74617" lon="7.35576">
        <ele>221.4</ele>
        <time>2011-06-26T10:16:08Z</time>
      </trkpt>
      <trkpt lat="48.74617" lon="7.35576">
        <ele>224.2</ele>
        <time>2011-06-26T10:32:15Z</time>
      </trkpt>
      <trkpt lat="48.74617" lon="7.35576">
        <ele>224.2</ele>
        <time>2011-06-26T10:32:19Z</time>
      </trkpt>
    </trkseg>
  </trk>
</gpx>